[[{"header":{"parameterUnit":"m.s-1","parameterCategory":1,"la1":30.6,"la2":28.766,"lo1":-90.7593,"lo2":-88.6598,"dy":0.0162,"dx":0.0183,"nx":116,"ny":114,"refTime":"2023-06-05T18:00:00:Z","depth":0,"parameterNumber":2,"parameterNumberName":"U-component_of_WINDS"},"data":[0.0,0.0,0.0,0.0,0.0,0.0,0.0,0.0,0.0,0.0,0.0,0.0,0.0,0.0,0.0,0.0,0.0,0.0,0.0,0.0,0.0,0.0,0.0,0.0,0.0,0.0,0.0,0.0,0.0,0.0,0.0,0.0,0.0,0.0,0.0,0.0,0.0,0.0,0.0,0.0,0.0,0.0,0.0,0.0,0.0,0.0,0.0,0.0,0.0,0.0,0.0,0.0,0.0,0.0,0.0,0.0,0.0,0.0,0.0,0.0,0.0,0.0,0.0,0.0,0.0,0.0,0.0,0.0,0.0,0.0,0.0,0.0,0.0,0.0,0.0,0.0,0.0,0.0,0.0,0.0,0.0,0.0,0.0,0.0,0.0,0.0,0.0,0.0,0.0,0.0,0.0,0.0,0.0,0.0,0.0,0.0,0.0,0.0,0.0,0.0,0.0,0.0,0.0,0.0,0.0,0.0,0.0,0.0,0.0,0.0,0.0,0.0,0.0,0.0,0.0,0.0,0.0,0.0,0.0,0.0,0.0,0.0,0.0,0.0,0.0,0.0,0.0,0.0,0.0,0.0,0.0,0.0,0.0,0.0,0.0,0.0,0.0,0.0,0.0,0.0,0.0,0.0,0.0,0.0,0.0,0.0,0.0,0.0,0.0,0.0,0.0,0.0,0.0,0.0,0.0,0.0,0.0,0.0,0.0,0.0,0.0,0.0,0.0,0.0,0.0,0.0,0.0,0.0,0.0,0.0,0.0,0.0,0.0,0.0,0.0,0.0,0.0,0.0,0.0,0.0,0.0,0.0,0.0,0.0,0.0,0.0,0.0,0.0,0.0,0.0,0.0,0.0,0.0,0.0,0.0,0.0,0.0,0.0,0.0,0.0,0.0,0.0,0.0,0.0,0.0,0.0,0.0,0.0,0.0,0.0,0.0,0.0,0.0,0.0,0.0,0.0,0.0,0.0,0.0,0.0,0.0,0.0,0.0,0.0,0.0,0.0,0.0,0.0,0.0,0.0,0.0,0.0,0.0,0.0,0.0,0.0,0.0,0.0,0.0,0.0,0.0,0.0,0.0,0.0,0.0,0.0,0.0,0.0,0.0,0.0,0.0,0.0,0.0,0.0,0.0,0.0,0.0,0.0,0.0,0.0,0.0,0.0,0.0,0.0,0.0,0.0,0.0,0.0,0.0,0.0,0.0,0.0,0.0,0.0,0.0,0.0,0.0,0.0,0.0,0.0,0.0,0.0,0.0,0.0,0.0,0.0,0.0,0.0,0.0,0.0,0.0,0.0,0.0,0.0,0.0,0.0,0.0,0.0,0.0,0.0,0.0,0.0,0.0,0.0,0.0,0.0,0.0,0.0,0.0,0.0,0.0,0.0,0.0,0.0,0.0,0.0,0.0,0.0,0.0,0.0,0.0,0.0,0.0,0.0,0.0,0.0,0.0,0.0,0.0,0.0,0.0,0.0,0.0,0.0,0.0,0.0,0.0,0.0,0.0,0.0,0.0,0.0,0.0,0.0,0.0,0.0,0.0,0.0,0.0,0.0,0.0,0.0,0.0,0.0,0.0,0.0,0.0,0.0,0.0,0.0,0.0,0.0,0.0,0.0,0.0,0.0,0.0,0.0,0.0,0.0,0.0,0.0,0.0,0.0,0.0,0.0,0.0,0.0,0.0,0.0,0.0,0.0,0.0,0.0,0.0,0.0,0.0,0.0,0.0,0.0,0.0,0.0,0.0,0.0,0.0,0.0,0.0,0.0,0.0,0.0,0.0,0.0,0.0,0.0,0.0,0.0,0.0,0.0,0.0,0.0,0.0,0.0,0.0,0.0,0.0,0.0,0.0,0.0,0.0,0.0,0.0,0.0,0.0,0.0,0.0,0.0,0.0,0.0,0.0,0.0,0.0,0.0,0.0,0.0,0.0,0.0,0.0,0.0,0.0,0.0,0.0,0.0,0.0,0.0,0.0,0.0,0.0,0.0,0.0,0.0,0.0,0.0,0.0,0.0,0.0,0.0,0.0,0.0,0.0,0.0,0.0,0.0,0.0,0.0,0.0,0.0,0.0,0.0,0.0,0.0,0.0,0.0,0.0,0.0,0.0,0.0,0.0,0.0,0.0,0.0,0.0,0.0,0.0,0.0,0.0,0.0,0.0,0.0,0.0,0.0,0.0,0.0,0.0,0.0,0.0,0.0,0.0,0.0,0.0,0.0,0.0,0.0,0.0,0.0,0.0,0.0,0.0,0.0,0.0,0.0,0.0,0.0,0.0,0.0,0.0,0.0,0.0,0.0,0.0,0.0,0.0,0.0,0.0,0.0,0.0,0.0,0.0,0.0,0.0,0.0,0.0,0.0,0.0,0.0,0.0,0.0,0.0,0.0,0.0,0.0,0.0,0.0,0.0,0.0,0.0,0.0,0.0,0.0,0.0,0.0,0.0,0.0,0.0,0.0,0.0,0.0,0.0,0.0,0.0,0.0,0.0,0.0,0.0,0.0,0.0,0.0,0.0,0.0,0.0,0.0,0.0,0.0,0.0,0.0,0.0,0.0,0.0,0.0,0.0,0.0,0.0,0.0,0.0,0.0,0.0,0.0,0.0,0.0,0.0,0.0,0.0,0.0,0.0,0.0,0.0,0.0,0.0,0.0,0.0,0.0,0.0,0.0,0.0,0.0,0.0,0.0,0.0,0.0,0.0,0.0,0.0,0.0,0.0,0.0,0.0,0.0,0.0,0.0,0.0,0.0,0.0,0.0,0.0,0.0,0.0,0.0,0.0,0.0,0.0,0.0,0.0,0.0,0.0,0.0,0.0,0.0,0.0,0.0,0.0,0.0,0.0,0.0,0.0,0.0,0.0,0.0,0.0,0.0,0.0,0.0,0.0,0.0,0.0,0.0,0.0,0.0,0.0,0.0,0.0,0.0,0.0,0.0,0.0,0.0,0.0,0.0,0.0,0.0,0.0,0.0,0.0,0.0,0.0,0.0,0.0,0.0,0.0,0.0,0.0,0.0,0.0,0.0,0.0,0.0,0.0,0.0,0.0,0.0,0.0,0.0,0.0,0.0,0.0,0.0,0.0,0.0,0.0,0.0,0.0,0.0,0.0,0.0,0.0,0.0,0.0,0.0,0.0,0.0,0.0,0.0,0.0,0.0,0.0,0.0,0.0,0.0,0.0,0.0,0.0,0.0,0.0,0.0,0.0,0.0,0.0,0.0,0.0,0.0,0.0,0.0,0.0,0.0,0.0,0.0,0.0,0.0,0.0,0.0,0.0,0.0,0.0,0.0,0.0,0.0,0.0,0.0,0.0,0.0,0.0,0.0,0.0,0.0,0.0,0.0,0.0,0.0,0.0,0.0,0.0,0.0,0.0,0.0,0.0,0.0,0.0,0.0,0.0,0.0,0.0,0.0,0.0,0.0,0.0,0.0,0.0,0.0,0.0,0.0,0.0,0.0,0.0,0.0,0.0,0.0,0.0,0.0,0.0,0.0,0.0,0.0,0.0,0.0,0.0,0.0,0.0,0.0,0.0,0.0,0.0,0.0,0.0,0.0,0.0,0.0,0.0,0.0,0.0,0.0,0.0,0.0,0.0,0.0,0.0,0.0,0.0,0.0,0.0,0.0,0.0,0.0,0.0,0.0,0.0,0.0,0.0,0.0,0.0,0.0,0.0,0.0,0.0,0.0,0.0,0.0,0.0,0.0,0.0,0.0,0.0,0.0,0.0,0.0,0.0,0.0,0.0,0.0,0.0,0.0,0.0,0.0,0.0,0.0,0.0,0.0,0.0,0.0,0.0,0.0,0.0,0.0,0.0,0.0,0.0,0.0,0.0,0.0,0.0,0.0,0.0,0.0,0.0,0.0,0.0,0.0,0.0,0.0,0.0,0.0,0.0,0.0,0.0,0.0,0.0,0.0,0.0,0.0,0.0,0.0,0.0,0.0,0.0,0.0,0.0,0.0,0.0,0.0,0.0,0.0,0.0,0.0,0.0,0.0,0.0,0.0,0.0,0.0,0.0,0.0,0.0,0.0,0.0,0.0,0.0,0.0,0.0,0.0,0.0,0.0,0.0,0.0,0.0,0.0,0.0,0.0,0.0,0.0,0.0,0.0,0.0,0.0,0.0,0.0,0.0,0.0,0.0,0.0,0.0,0.0,0.0,0.0,0.0,0.0,0.0,0.0,0.0,0.0,0.0,0.0,0.0,0.0,0.0,0.0,0.0,0.0,0.0,0.0,0.0,0.0,0.0,0.0,0.0,0.0,0.0,0.0,0.0,0.0,0.0,0.0,0.0,0.0,0.0,0.0,0.0,0.0,0.0,0.0,0.0,0.0,0.0,0.0,0.0,0.0,0.0,0.0,0.0,0.0,0.0,0.0,0.0,0.0,0.0,0.0,0.0,0.0,0.0,0.0,0.0,0.0,0.0,0.0,0.0,0.0,0.0,0.0,0.0,0.0,0.0,0.0,0.0,0.0,0.0,0.0,0.0,0.0,0.0,0.0,0.0,0.0,0.0,0.0,0.0,0.0,0.0,0.0,0.0,0.0,0.0,0.0,0.0,0.0,0.0,0.0,0.0,0.0,0.0,0.0,0.0,0.0,0.0,0.0,0.0,0.0,0.0,0.0,0.0,0.0,0.0,0.0,0.0,0.0,0.0,0.0,0.0,0.0,0.0,0.0,0.0,0.0,0.0,0.0,0.0,0.0,0.0,0.0,0.0,0.0,0.0,0.0,0.0,0.0,0.0,0.0,0.0,0.0,0.0,0.0,0.0,0.0,0.0,0.0,0.0,0.0,0.0,0.0,0.0,0.0,0.0,0.0,0.0,0.0,0.0,0.0,0.0,0.0,0.0,0.0,0.0,0.0,0.0,0.0,0.0,0.0,0.0,0.0,0.0,0.0,0.0,0.0,0.0,0.0,0.0,0.0,0.0,0.0,0.0,0.0,0.0,0.0,0.0,0.0,0.0,0.0,0.0,0.0,0.0,0.0,0.0,0.0,0.0,0.0,0.0,0.0,0.0,0.0,0.0,0.0,0.0,0.0,0.0,0.0,0.0,0.0,0.0,0.0,0.0,0.0,0.0,0.0,0.0,0.0,0.0,0.0,0.0,0.0,0.0,0.0,0.0,0.0,0.0,0.0,0.0,0.0,0.0,0.0,0.0,0.0,0.0,0.0,0.0,0.0,0.0,0.0,0.0,0.0,0.0,0.0,0.0,0.0,0.0,0.0,0.0,0.0,0.0,0.0,0.0,0.0,0.0,0.0,0.0,0.0,0.0,0.0,0.0,0.0,0.0,0.0,0.0,0.0,0.0,0.0,0.0,0.0,0.0,0.0,0.0,0.0,0.0,0.0,0.0,0.0,0.0,0.0,0.0,0.0,0.0,0.0,0.0,0.0,0.0,0.0,0.0,0.0,0.0,0.0,0.0,0.0,0.0,0.0,0.0,0.0,0.0,0.0,0.0,0.0,0.0,0.0,0.0,0.0,0.0,0.0,0.0,0.0,0.0,0.0,0.0,0.0,0.0,0.0,0.0,0.0,0.0,0.0,0.0,0.0,0.0,0.0,0.0,0.0,0.0,0.0,0.0,0.0,0.0,0.0,0.0,0.0,0.0,0.0,0.0,0.0,0.0,0.0,0.0,0.0,0.0,0.0,0.0,0.0,0.0,0.0,0.0,0.0,0.0,0.0,0.0,0.0,0.0,0.0,0.0,0.0,0.0,0.0,0.0,0.0,0.0,0.0,0.0,0.0,0.0,0.0,0.0,0.0,0.0,0.0,0.0,0.0,0.0,0.0,0.0,0.0,0.0,0.0,0.0,0.0,0.0,0.0,0.0,0.0,0.0,0.0,0.0,0.0,0.0,0.0,0.0,0.0,0.0,0.0,0.0,0.0,0.0,0.0,0.0,0.0,0.0,0.0,0.0,0.0,0.0,0.0,0.0,0.0,0.0,0.0,0.0,0.0,0.0,0.0,0.0,0.0,0.0,0.0,0.0,0.0,0.0,0.0,0.0,0.0,0.0,0.0,0.0,0.0,0.0,0.0,0.0,0.0,0.0,0.0,0.0,0.0,0.0,0.0,0.0,0.0,0.0,0.0,0.0,0.0,0.0,0.0,-1.9798,0.0,0.0,0.0,0.0,0.0,0.0,0.0,0.0,0.0,0.0,0.0,0.0,0.0,0.0,0.0,0.0,0.0,0.0,0.0,0.0,0.0,0.0,0.0,0.0,0.0,0.0,0.0,0.0,0.0,0.0,0.0,0.0,0.0,0.0,0.0,0.0,0.0,0.0,0.0,-2.4856,-2.5047,-2.4812,-2.4532,-2.441,-2.4369,0.0,0.0,0.0,0.0,0.0,0.0,0.0,0.0,0.0,0.0,0.0,0.0,0.0,0.0,0.0,0.0,0.0,0.0,0.0,0.0,0.0,0.0,0.0,0.0,0.0,0.0,0.0,0.0,0.0,0.0,0.0,0.0,0.0,0.0,0.0,0.0,0.0,0.0,0.0,0.0,0.0,0.0,0.0,0.0,0.0,0.0,0.0,0.0,0.0,0.0,0.0,0.0,0.0,0.0,0.0,0.0,0.0,0.0,0.0,0.0,0.0,0.0,0.0,0.0,0.0,0.0,0.0,0.0,0.0,0.0,0.0,-1.9798,0.0,0.0,0.0,0.0,0.0,0.0,0.0,0.0,0.0,0.0,0.0,0.0,0.0,0.0,0.0,0.0,0.0,0.0,0.0,0.0,0.0,0.0,0.0,0.0,-2.2296,-2.2296,-2.2166,0.0,0.0,0.0,0.0,0.0,0.0,0.0,0.0,0.0,0.0,0.0,-2.5486,-2.5221,-2.4266,-2.4266,-2.4266,-2.4225,-2.3794,0.0,0.0,0.0,0.0,0.0,0.0,0.0,0.0,0.0,0.0,0.0,0.0,0.0,0.0,0.0,0.0,0.0,0.0,0.0,0.0,0.0,0.0,0.0,0.0,0.0,0.0,0.0,0.0,0.0,0.0,0.0,0.0,0.0,0.0,0.0,0.0,0.0,0.0,0.0,0.0,0.0,0.0,0.0,0.0,0.0,0.0,0.0,0.0,0.0,0.0,0.0,0.0,0.0,0.0,0.0,0.0,0.0,0.0,0.0,0.0,0.0,0.0,0.0,-2.0049,-2.01,-2.01,-2.01,-2.01,-2.01,-2.01,-1.9987,-1.9798,-1.9798,0.0,0.0,0.0,0.0,0.0,0.0,0.0,0.0,0.0,0.0,0.0,0.0,0.0,0.0,0.0,0.0,0.0,0.0,0.0,0.0,0.0,-2.2296,-2.2296,-2.2296,-2.16,-2.1582,0.0,0.0,0.0,0.0,0.0,0.0,0.0,-2.4451,-2.4498,-2.4511,-2.4572,-2.4287,-2.3724,-2.3724,-2.3724,-2.3702,-2.3638,-2.4116,-2.4969,0.0,0.0,0.0,0.0,0.0,0.0,0.0,0.0,0.0,0.0,0.0,0.0,0.0,0.0,0.0,0.0,0.0,0.0,0.0,0.0,0.0,0.0,0.0,0.0,0.0,0.0,0.0,0.0,0.0,0.0,0.0,0.0,0.0,0.0,0.0,0.0,0.0,0.0,0.0,0.0,0.0,-2.1017,-2.0944,0.0,0.0,0.0,0.0,0.0,0.0,0.0,0.0,0.0,0.0,0.0,0.0,0.0,-1.9798,-1.9798,-2.0327,-2.0578,-2.0591,-2.1041,-2.1267,-2.1267,-2.1267,-2.1267,-2.1267,-2.1267,0.0,-1.9798,-1.9798,0.0,0.0,0.0,0.0,0.0,0.0,0.0,0.0,0.0,0.0,0.0,0.0,0.0,0.0,0.0,0.0,0.0,0.0,0.0,0.0,0.0,-2.2061,-2.1913,-2.1913,-2.1696,-2.1777,-2.2264,0.0,0.0,0.0,0.0,0.0,0.0,-2.4712,-2.4697,-2.441,-2.4095,-2.3837,-2.3595,-2.3595,-2.3595,-2.3595,-2.3595,-2.3858,-2.4302,-2.4053,0.0,0.0,0.0,0.0,0.0,0.0,0.0,0.0,0.0,0.0,0.0,0.0,0.0,0.0,0.0,0.0,0.0,0.0,0.0,0.0,0.0,0.0,0.0,0.0,0.0,0.0,0.0,0.0,0.0,0.0,0.0,0.0,0.0,0.0,0.0,0.0,0.0,0.0,0.0,-2.1355,-2.0646,-2.0283,-2.0295,-2.0434,0.0,0.0,0.0,0.0,0.0,0.0,0.0,0.0,0.0,-2.074,-2.0752,-2.0752,-2.0752,-2.1031,-2.1157,-2.1157,-2.1408,-2.1493,-2.1493,-2.1493,-2.1493,-2.1493,-2.1493,-2.1204,-2.0752,-2.0752,-2.1309,-2.2155,0.0,0.0,0.0,0.0,-2.2855,-2.2688,0.0,0.0,0.0,0.0,0.0,0.0,0.0,0.0,0.0,0.0,0.0,0.0,-2.2296,-2.1988,-2.1801,-2.1845,-2.194,-2.214,-2.2507,-2.3164,0.0,0.0,0.0,0.0,0.0,-2.4672,-2.4612,-2.4199,-2.3794,-2.3595,-2.3595,-2.3595,-2.3595,-2.3595,-2.3595,-2.3595,-2.3595,-2.3595,-2.3595,-2.3638,0.0,0.0,0.0,0.0,0.0,0.0,0.0,0.0,0.0,0.0,0.0,0.0,0.0,0.0,0.0,0.0,0.0,0.0,0.0,0.0,0.0,0.0,0.0,0.0,0.0,0.0,0.0,0.0,0.0,0.0,0.0,0.0,0.0,0.0,0.0,0.0,0.0,-2.1064,-2.0547,-1.9875,-2.0245,-2.0486,0.0,0.0,0.0,0.0,0.0,0.0,-2.0907,-2.0905,-2.1094,-2.1509,-2.1493,-2.1493,-2.1493,-2.1769,-2.1907,-2.192,-2.2196,-2.2334,-2.2334,-2.2334,-2.2334,-2.2376,-2.2582,-2.2697,-2.2617,-2.2043,-2.225,-2.3004,-2.3601,-2.3984,-2.4237,-2.4543,-2.4425,-2.408,0.0,0.0,0.0,0.0,0.0,0.0,0.0,0.0,0.0,0.0,0.0,-2.2296,-2.2296,-2.2282,-2.2331,-2.2537,-2.2198,-2.2571,-2.3911,-2.4111,-2.4449,-2.5083,-2.5635,0.0,0.0,0.0,-2.3659,-2.3638,-2.3616,-2.3595,-2.3595,-2.3595,-2.3595,-2.3595,-2.3595,-2.3595,-2.3595,-2.3595,-2.3595,-2.3638,-2.4163,0.0,0.0,0.0,0.0,0.0,0.0,0.0,0.0,0.0,0.0,0.0,0.0,0.0,0.0,0.0,0.0,0.0,0.0,0.0,0.0,0.0,0.0,0.0,0.0,0.0,0.0,0.0,0.0,0.0,0.0,0.0,0.0,0.0,0.0,0.0,0.0,0.0,0.0,-1.9875,-1.9824,0.0,0.0,0.0,0.0,-2.2191,-2.1767,-2.1473,-2.1443,-2.1443,-2.1455,-2.1493,-2.1493,-2.1493,-2.1493,-2.2493,-2.302,-2.3032,-2.4111,-2.4625,-2.4625,-2.4625,-2.4625,-2.4676,-2.5509,-2.5867,-2.5695,-2.3462,-2.3286,-2.4403,-2.443,-2.5231,-2.6205,-2.4945,-2.4878,-2.5336,0.0,0.0,0.0,0.0,0.0,0.0,0.0,0.0,0.0,-2.2363,-2.2296,-2.2296,-2.2296,-2.218,-2.2151,-2.2198,-2.2358,-2.2666,-2.3161,-2.3575,-2.4065,-2.4657,-2.4552,0.0,0.0,0.0,-2.3595,-2.3595,-2.3595,-2.3595,-2.3595,-2.3595,-2.3595,-2.3595,-2.3595,-2.3595,-2.3595,-2.3595,-2.3595,-2.3638,-2.4163,-2.4496,0.0,0.0,0.0,0.0,0.0,0.0,0.0,0.0,0.0,0.0,0.0,0.0,0.0,0.0,0.0,0.0,0.0,0.0,0.0,0.0,0.0,0.0,0.0,0.0,0.0,0.0,0.0,0.0,0.0,0.0,0.0,0.0,0.0,0.0,0.0,0.0,0.0,-2.0921,-2.0891,0.0,-2.1482,-2.1357,-2.1378,-2.1788,-2.162,-2.1644,-2.1995,-2.2347,-2.2723,-2.31,-2.3452,-2.3627,-2.3627,-2.3998,-2.4186,-2.4199,-2.46,-2.4788,-2.4788,-2.4788,-2.5116,-2.566,-2.599,-2.6381,-2.6829,-2.6483,-2.6078,-2.5786,-2.6254,-2.6183,-2.5836,-2.6327,-2.6358,-2.6174,0.0,0.0,0.0,0.0,0.0,0.0,0.0,0.0,0.0,-2.2363,-2.2296,-2.2237,-2.2092,-2.2162,-2.2193,-2.2106,-2.259,-2.2928,-2.2987,-2.3736,-2.422,-2.4389,-2.4053,0.0,0.0,-2.3702,-2.3595,-2.3595,-2.3595,-2.3595,-2.3595,-2.3595,-2.3595,-2.3595,-2.3595,-2.3595,-2.3595,-2.3595,-2.3595,-2.3638,-2.3991,-2.4225,-2.4491,0.0,0.0,0.0,0.0,0.0,0.0,0.0,0.0,0.0,0.0,0.0,0.0,0.0,0.0,0.0,0.0,0.0,0.0,0.0,0.0,0.0,0.0,0.0,0.0,0.0,0.0,0.0,0.0,0.0,0.0,0.0,0.0,0.0,0.0,0.0,-2.2363,-2.1597,-2.1718,-2.185,-2.1773,-2.1769,-2.192,-2.2309,-2.2598,-2.2856,-2.3125,-2.375,-2.4162,-2.4268,-2.4893,-2.5084,-2.4788,-2.5274,-2.5465,-2.5372,-2.5561,-2.5903,-2.6401,-2.6401,-2.6889,-2.7764,-2.8048,-2.8346,-2.8683,-2.945,-2.8986,-2.7811,-2.8113,-2.7628,-2.6939,-2.7906,-2.7973,-2.763,0.0,0.0,0.0,0.0,0.0,0.0,0.0,-2.2923,-2.2625,-2.2335,-2.2296,-2.2137,-2.1691,-2.2209,-2.2537,-2.2341,-2.2925,-2.3402,-2.3614,-2.4592,-2.493,-2.441,0.0,0.0,-2.4369,-2.3879,-2.3595,-2.3616,-2.3616,-2.3638,-2.3659,-2.3638,-2.3616,-2.3616,-2.3595,-2.3595,-2.3616,-2.3616,-2.3638,-2.3638,-2.3616,-2.3921,-2.443,0.0,0.0,0.0,0.0,0.0,0.0,0.0,0.0,0.0,0.0,0.0,0.0,0.0,0.0,0.0,0.0,0.0,0.0,0.0,0.0,0.0,0.0,0.0,0.0,0.0,0.0,0.0,0.0,0.0,0.0,0.0,0.0,0.0,-2.3784,-2.4262,-2.3921,-2.1824,-2.2251,-2.2637,-2.2425,-2.243,-2.2925,-2.4022,-2.4801,-2.5127,-2.4879,-2.5686,-2.5775,-2.4903,-2.5769,-2.5814,-2.4953,-2.6342,-2.6889,-2.6653,-2.7183,-2.8148,-2.9556,-2.9556,-3.0098,-3.1065,-3.1868,-3.1844,-3.1346,-3.2167,-3.1779,-3.0537,-2.9864,-2.9621,-2.9606,-2.9606,-2.9606,-2.9606,0.0,0.0,0.0,0.0,0.0,0.0,0.0,-2.3117,-2.2878,-2.2363,-2.2296,-2.2308,-2.2321,-2.2669,-2.2941,-2.3034,-2.333,-2.3703,-2.4142,-2.4095,-2.397,-2.3837,0.0,0.0,-2.3837,-2.3681,-2.3794,-2.4163,-2.4163,-2.4369,-2.4752,-2.4369,-2.4163,-2.4158,-2.3773,-2.3815,-2.4163,-2.4163,-2.441,-2.4692,-2.3921,-2.3702,-2.3879,0.0,0.0,0.0,0.0,0.0,0.0,0.0,0.0,0.0,0.0,0.0,0.0,0.0,0.0,0.0,0.0,0.0,0.0,0.0,0.0,0.0,0.0,0.0,0.0,0.0,0.0,0.0,0.0,0.0,0.0,0.0,0.0,-2.6379,-2.5151,-2.4732,-2.4296,-2.3609,-2.4617,-2.5097,-2.4446,-2.533,-2.6061,-2.6356,-2.6049,-2.6098,-2.6597,-2.7135,-2.7261,-2.6915,-2.8681,-2.9193,-2.8221,-2.9322,-2.9851,-2.9781,-2.991,-3.0208,-3.0596,-3.0596,-3.1065,-3.1882,-3.2108,-3.2451,-3.2879,-3.3124,-3.3006,-3.2512,-3.0881,-2.9983,-2.9606,-2.9606,-2.9606,-2.9606,0.0,0.0,0.0,0.0,0.0,0.0,0.0,-2.32,-2.2977,-2.2377,-2.2296,-2.2302,-2.2346,-2.291,-2.3229,-2.305,-2.3795,-2.4204,-2.4074,-2.3773,-2.3702,0.0,0.0,-2.3921,-2.3595,-2.3815,-2.4095,-2.441,-2.4632,-2.4914,-2.5273,-2.4947,-2.4847,-2.4887,-2.4844,-2.498,-2.5268,-2.5221,-2.5393,-2.5579,-2.4641,-2.4137,-2.397,-2.4287,-2.4266,-2.4137,-2.4672,-2.4732,-2.4556,-2.4776,0.0,0.0,0.0,0.0,0.0,0.0,0.0,0.0,0.0,0.0,0.0,0.0,0.0,0.0,0.0,0.0,0.0,0.0,0.0,0.0,0.0,0.0,0.0,0.0,-2.76,-2.7403,-2.6861,-2.6469,-2.5972,-2.5248,-2.6381,-2.693,-2.6172,-2.6827,-2.7508,-2.8021,-2.7969,-2.816,-2.8813,-2.9393,-2.9501,-2.9106,-3.067,-3.1065,-3.0132,-3.1032,-3.1438,-3.1354,-3.1354,-3.1648,-3.2238,-3.2238,-3.2734,-3.3577,-3.3577,-3.3718,-3.3903,-3.3903,-3.3739,0.0,0.0,0.0,0.0,0.0,-3.1046,-3.0806,0.0,0.0,0.0,0.0,0.0,0.0,0.0,-2.32,-2.2977,-2.2377,-2.2296,-2.2247,-2.2129,-2.3061,-2.3463,-2.2842,-2.4284,-2.4756,-2.3752,-2.3702,0.0,-2.4287,-2.3921,-2.3702,-2.3702,-2.422,-2.4491,-2.4491,-2.5048,-2.5373,-2.5501,-2.5515,-2.5579,-2.5716,-2.625,-2.6545,-2.6601,-2.6541,-2.6498,-2.6409,-2.5686,-2.5013,-2.441,-2.441,-2.4074,-2.3659,-2.4137,-2.4012,-2.3681,-2.4158,0.0,0.0,0.0,0.0,0.0,0.0,0.0,0.0,0.0,0.0,0.0,0.0,0.0,0.0,0.0,0.0,0.0,0.0,0.0,0.0,0.0,0.0,0.0,0.0,-2.7705,-2.7959,-2.8622,-2.8771,-2.8263,-2.6806,-2.7812,-2.8383,-2.7715,-2.7785,-2.8362,-2.9512,-3.0211,-3.0805,-3.1241,0.0,0.0,0.0,0.0,-3.2162,-3.1341,-3.2162,-3.2434,-3.222,-3.222,-3.2891,-3.4177,-3.4177,-3.4658,-3.5504,-3.5504,-3.516,-3.4623,-3.4623,-3.4247,-3.3709,-3.3559,-3.3499,-3.3499,-3.3499,-3.3125,-3.2617,0.0,0.0,0.0,0.0,0.0,0.0,0.0,-2.32,-2.2977,-2.2377,-2.2296,-2.2432,-2.2765,-2.3353,-2.3638,-2.3438,-2.4514,-2.4914,-2.4302,-2.4246,-2.4095,-2.3773,-2.4074,-2.4246,-2.4246,-2.4756,-2.5047,-2.5047,-2.5695,-2.6006,-2.6043,-2.6168,-2.6209,-2.6243,-2.6428,-2.6741,-2.7174,-2.7639,-2.7708,-2.7453,-2.6937,-2.5792,-2.441,-2.441,-2.4074,-2.3616,-2.3724,-2.3702,-2.3616,-2.3724,-2.3752,-2.3752,-2.3752,0.0,0.0,0.0,0.0,0.0,0.0,0.0,0.0,0.0,0.0,0.0,0.0,0.0,0.0,0.0,0.0,0.0,0.0,0.0,0.0,-2.8308,-2.8412,-2.8637,-2.9295,-2.9819,-2.9605,-2.8196,-2.9254,-3.0012,-2.9807,-3.0835,-3.1811,-3.2579,-3.2142,-3.2181,-3.2976,-3.3001,-3.2918,-3.2701,-3.4094,-3.4391,-3.3416,-3.4391,-3.4836,-3.4776,0.0,0.0,-3.5213,-3.5213,-3.5326,-3.5504,-3.5504,-3.5429,-3.531,-3.531,-3.5235,-3.5011,-3.3918,-3.3499,-3.3499,-3.3499,-3.341,-3.3305,0.0,0.0,0.0,0.0,0.0,0.0,0.0,-2.32,-2.2977,-2.2377,-2.2296,-2.2571,-2.3271,-2.3786,-2.4176,-2.4387,-2.4652,-2.4796,-2.4796,-2.4287,-2.3879,-2.3616,-2.4116,-2.441,-2.441,-2.5182,-2.5596,-2.5596,-2.6536,-2.7038,-2.7158,-2.7607,-2.7842,-2.7926,-2.8247,-2.8549,-2.8823,-2.9042,-2.8873,-2.8348,-2.771,-2.6547,-2.5144,-2.4597,-2.4225,-2.3985,-2.3702,-2.3595,-2.3595,-2.3595,-2.3595,-2.3595,-2.3595,-2.4014,-2.4459,0.0,0.0,0.0,0.0,0.0,0.0,0.0,0.0,0.0,0.0,0.0,0.0,0.0,0.0,-2.7705,0.0,0.0,-2.8308,-2.8981,-2.9086,-2.931,-2.9953,-3.0612,-3.0739,-3.0042,-3.0862,-3.1618,-3.1928,-3.2585,-3.3275,-3.3933,-3.3604,-3.3689,-3.4455,-3.4401,-3.4335,-3.4303,-3.5083,-3.5246,-3.4758,-3.5246,-3.5504,-3.5504,-3.5504,-3.5504,-3.5504,-3.5504,-3.5504,-3.5504,-3.5504,-3.5504,-3.5504,-3.5504,-3.5504,-3.5429,-3.4756,-3.4502,-3.4502,-3.4502,-3.4277,-3.3978,0.0,0.0,0.0,0.0,0.0,0.0,0.0,0.0,-2.2977,-2.2377,-2.2296,-2.266,-2.3605,-2.4191,-2.4778,-2.5431,-2.4914,-2.4736,0.0,-2.4287,-2.3767,-2.3767,-2.4266,-2.4597,-2.4712,-2.5652,-2.6103,-2.6013,-2.7084,-2.7727,-2.7974,-2.8698,-2.915,-2.9429,-3.0038,-3.0293,-3.0302,-3.0163,-2.9668,-2.8925,-2.8111,-2.7124,-2.6033,-2.507,-2.4652,-2.4491,-2.3948,-2.3767,-2.376,-2.3803,-2.3789,-2.3819,-2.3954,-2.4373,-2.4799,-2.4799,-2.5485,0.0,0.0,0.0,0.0,0.0,0.0,0.0,0.0,0.0,-2.76,-2.76,-2.7705,-2.7959,-2.8502,-2.8712,-2.9011,-2.9654,-2.9759,-3.0028,-3.0791,-3.1346,-3.1795,-3.2049,-3.2422,-3.2961,-3.3619,-3.3679,-3.3963,-3.4653,-3.4698,-3.4921,-3.5474,-3.5504,-3.5504,-3.5504,-3.5504,-3.5504,-3.5504,-3.5504,-3.5504,-3.5504,-3.5504,-3.5504,-3.5504,-3.5504,-3.5504,-3.5504,-3.5504,-3.5504,-3.5504,-3.5504,-3.5504,-3.5504,-3.5504,-3.5504,-3.5504,-3.5504,-3.516,-3.4698,0.0,0.0,0.0,0.0,0.0,0.0,0.0,0.0,0.0,-2.2377,-2.2296,-2.266,-2.3605,-2.4191,-2.5036,-2.6404,-2.5672,0.0,-2.5202,-2.4652,-2.4307,-2.4307,-2.4816,-2.5335,-2.5815,-2.6349,-2.6419,-2.6013,-2.6685,-2.7143,-2.7394,-2.8078,-2.8762,-2.9429,-3.0038,-3.0293,-3.0302,-3.0163,-2.9668,-2.8925,-2.8111,-2.7333,-2.6556,-2.6033,-2.554,-2.5047,-2.4511,-2.4307,-2.4333,-2.4453,-2.4485,-2.459,-2.5196,-2.5435,-2.5495,-2.5495,0.0,-2.6054,-2.7727,-2.8604,-2.8798,-2.7733,-2.754,-2.76,0.0,0.0,-2.76,-2.76,-2.8053,-2.8502,-2.8592,-2.9086,-2.9684,-3.0298,-3.0402,-3.0836,-3.2108,-3.2333,-3.2841,-3.4008,-3.3694,-3.3649,-3.4339,-3.4399,-3.4651,-3.534,-3.5385,-3.5429,-3.5504,-3.5504,-3.5504,-3.5504,-3.5504,-3.5504,-3.5504,-3.5504,-3.5504,-3.5504,-3.5504,-3.5504,-3.5504,-3.5504,-3.5504,-3.5504,-3.5504,-3.5504,-3.5504,-3.5504,-3.5504,-3.5504,-3.5504,-3.5504,-3.5504,-3.5504,-3.5459,-3.5385,0.0,0.0,0.0,0.0,0.0,0.0,0.0,0.0,0.0,0.0,-2.2402,-2.2779,-2.4024,-2.5141,-2.6031,-2.664,-2.6068,0.0,-2.567,-2.5163,-2.4871,-2.4871,-2.5373,-2.5779,-2.5995,-2.6453,-2.6607,-2.6401,-2.7084,-2.7476,-2.7604,-2.8367,-2.888,-2.9178,-2.9432,-2.9546,-2.9532,-2.9473,-2.9008,-2.8281,-2.7942,-2.735,-2.6674,-2.647,-2.6263,-2.603,-2.563,-2.5527,0.0,-2.5669,-2.5717,-2.5696,-2.5626,-2.5869,-2.6183,-2.6183,-2.6702,0.0,-2.824,-2.8404,-2.8231,0.0,-2.76,-2.76,-2.76,-2.7899,-2.8173,-2.8173,-2.8738,-2.928,-2.9639,-2.9924,-3.0328,0.0,-3.1391,-3.1869,-3.2437,-3.317,-3.3858,-3.4444,-3.4592,-3.4771,-3.504,-3.507,-3.519,-3.5489,-3.5504,-3.5504,-3.5504,-3.5504,-3.5504,-3.5504,-3.5504,-3.5504,-3.5504,-3.5504,-3.5504,-3.5504,-3.5504,-3.5504,-3.5504,-3.5504,-3.5504,-3.5504,-3.5504,-3.5504,-3.5504,-3.5504,-3.5504,-3.5504,-3.5504,-3.5504,-3.5504,-3.5504,-3.5504,-3.5504,0.0,0.0,0.0,0.0,0.0,0.0,0.0,0.0,0.0,0.0,0.0,-2.2868,-2.4338,-2.5828,-2.6691,-2.6691,0.0,0.0,0.0,-2.5633,-2.5411,-2.5411,-2.5781,-2.605,-2.6191,-2.6539,-2.6691,-2.6691,-2.7232,-2.7604,-2.7824,-2.8399,-2.879,-2.8993,-2.8993,-2.8993,-2.8993,-2.8773,-2.8332,-2.779,-2.757,-2.7182,-2.6691,-2.6691,-2.6826,-2.696,-2.6643,-2.6512,-2.6562,0.0,-2.7024,-2.6945,-2.6519,-2.6859,-2.7335,-2.7182,-2.7887,-2.8709,-2.8559,-2.8189,-2.781,-2.7635,-2.775,-2.7884,-2.7884,-2.8382,-2.8876,-2.8876,-2.9385,-2.9968,-3.0417,-3.0657,-3.1016,-3.1675,-3.2168,-3.2647,-3.3006,-3.3873,-3.4578,-3.4741,-3.519,-3.5504,-3.5504,-3.5504,-3.5504,-3.5504,-3.5504,-3.5504,-3.5504,-3.5504,-3.5504,-3.5504,-3.5504,-3.5504,-3.5504,-3.5504,-3.5504,-3.5504,-3.5504,-3.5504,-3.5504,-3.5504,-3.5504,-3.5504,-3.5504,-3.5504,-3.5504,-3.5504,-3.5504,-3.5504,-3.5504,-3.5504,-3.5504,-3.5504,-3.5504,-3.5504,0.0,0.0,0.0,0.0,0.0,0.0,0.0,0.0,0.0,0.0,0.0,0.0,0.0,0.0,-2.6691,-2.6691,0.0,0.0,0.0,-2.5979,-2.5995,-2.5995,-2.5979,-2.6209,-2.6674,-2.6691,-2.6691,-2.6691,-2.6708,-2.7097,-2.7807,-2.7824,-2.8264,-2.8993,-2.8993,-2.8993,-2.8942,-2.818,-2.7824,-2.7739,-2.7012,-2.6708,-2.6691,-2.6691,-2.7148,-2.772,-2.7232,-2.7083,-2.7202,0.0,-2.8345,-2.8333,-2.8397,-2.8826,0.0,-2.8607,-2.888,-2.9248,-2.8677,-2.8487,-2.8319,-2.7735,-2.8094,-2.8562,-2.8562,-2.9086,-2.9577,-2.9577,-3.0043,-3.0477,-3.0507,-3.1017,-3.169,-3.2348,-3.2497,-3.2961,-3.4279,-3.4474,-3.4726,-3.5385,-3.5489,-3.5504,0.0,-3.5504,-3.5504,-3.5504,-3.5504,-3.5504,-3.5504,-3.5504,-3.5504,-3.5504,-3.5504,-3.5504,-3.5504,-3.5504,-3.5504,-3.5504,-3.5504,-3.5504,-3.5504,-3.5504,-3.5504,-3.5504,-3.5504,-3.5504,-3.5504,-3.5504,-3.5504,-3.5504,-3.5504,-3.5504,-3.5504,-3.5504,-3.5504,-3.5504,0.0,0.0,0.0,0.0,0.0,0.0,0.0,0.0,0.0,0.0,0.0,0.0,0.0,0.0,0.0,0.0,-2.6691,0.0,0.0,-2.6453,-2.6453,-2.6453,-2.6453,-2.6556,-2.6691,-2.6691,-2.6691,-2.6691,-2.6691,-2.6826,-2.708,-2.708,-2.7215,-2.7469,-2.7469,-2.7469,-2.747,-2.7182,-2.708,-2.7046,-2.6793,-2.6691,-2.6742,-2.7232,-2.757,-2.7924,0.0,-2.9087,0.0,0.0,0.0,0.0,-2.9214,-2.9225,-2.9457,-2.9689,-2.9305,-2.8865,-2.9117,-2.8863,-2.853,-2.8299,-2.8757,-2.925,-2.925,-2.9744,-3.0193,-3.0193,-3.0717,-3.1301,-3.1749,-3.1645,-3.1869,-3.2991,-3.3155,-3.3469,-3.4384,-3.4861,-3.525,-3.5474,-3.5504,0.0,0.0,0.0,0.0,-3.5504,-3.5504,-3.5504,-3.5504,-3.5504,-3.5504,-3.5504,-3.5504,-3.5504,-3.5504,-3.5504,-3.5504,-3.5504,-3.5504,-3.5504,-3.5504,-3.5504,-3.5504,-3.5504,-3.5504,-3.5504,-3.5504,-3.5504,-3.5504,-3.5504,-3.5504,-3.5504,-3.5504,-3.5504,-3.5504,-3.5504,0.0,0.0,0.0,0.0,0.0,0.0,0.0,0.0,0.0,0.0,0.0,0.0,0.0,0.0,0.0,0.0,0.0,-2.6691,0.0,0.0,-2.6691,-2.6691,-2.6691,-2.6691,-2.6691,-2.6691,-2.6691,-2.6691,-2.6691,-2.6691,-2.6691,-2.6691,-2.6691,-2.6691,-2.6691,-2.6691,-2.6691,-2.6691,-2.6691,-2.6691,-2.6691,-2.6691,-2.6742,-2.7232,-2.7757,0.0,-2.9347,-3.0057,0.0,0.0,0.0,0.0,-2.9913,-2.9901,-3.016,-3.0309,-2.9819,-2.9257,-2.9459,-2.9063,-2.8667,-2.8891,-2.943,-2.9909,-2.9909,-3.0417,-3.0866,-3.0866,-3.1409,-3.1945,-3.2107,-3.2012,-3.2263,-3.3305,-3.3499,-3.3814,-3.4726,-3.5235,-3.5504,-3.5504,-3.5504,-3.5504,0.0,0.0,0.0,-3.5504,-3.5504,-3.5504,-3.5504,-3.5504,-3.5504,-3.5504,-3.5504,-3.5504,-3.5504,-3.5504,-3.5504,-3.5504,-3.5504,-3.5504,-3.5504,-3.5504,-3.5504,-3.5504,-3.5504,-3.5504,-3.5504,-3.5504,-3.5504,-3.5504,-3.5504,-3.5504,-3.5504,-3.5504,-3.5504,-3.5504,0.0,0.0,0.0,0.0,0.0,0.0,0.0,0.0,0.0,0.0,0.0,0.0,0.0,0.0,0.0,0.0,0.0,0.0,0.0,0.0,0.0,-2.6691,-2.6691,-2.6691,-2.6691,-2.6691,-2.6691,-2.6691,-2.6691,-2.6691,-2.6691,-2.6691,-2.6691,-2.6691,-2.6691,-2.6691,-2.6691,-2.6691,-2.6691,-2.6691,-2.6691,-2.6691,-2.6691,-2.6742,-2.769,-2.8993,-2.9044,0.0,0.0,0.0,0.0,0.0,0.0,-3.0733,-3.1166,-3.046,-3.0346,-3.0306,-2.9688,-2.9113,-2.8846,-2.9502,-3.0103,-3.0552,-3.0552,-3.1032,-3.1511,-3.1511,-3.2092,-3.2398,0.0,0.0,-3.2829,-3.3442,-3.353,-3.3963,-3.5265,-3.5489,-3.5504,0.0,0.0,0.0,0.0,0.0,0.0,-3.5504,0.0,-3.5504,-3.5504,-3.5504,-3.5504,-3.5504,-3.5504,-3.5504,-3.5504,-3.5504,-3.5504,-3.5504,-3.5504,-3.5504,-3.5504,-3.5504,-3.5504,-3.5504,-3.5504,-3.5504,-3.5504,-3.5504,-3.5504,-3.5504,-3.5504,-3.5504,-3.5504,-3.5504,-3.5504,-3.5504,0.0,0.0,0.0,0.0,0.0,0.0,0.0,0.0,0.0,0.0,0.0,0.0,0.0,0.0,0.0,0.0,0.0,0.0,0.0,0.0,0.0,0.0,0.0,0.0,0.0,0.0,0.0,-2.6691,-2.6691,-2.6691,-2.6691,-2.6691,-2.6691,-2.6691,-2.6691,-2.6691,-2.6691,-2.6691,-2.6691,-2.6691,-2.6691,-2.6691,-2.6759,-2.73,-2.8146,-2.9077,0.0,0.0,0.0,0.0,0.0,0.0,0.0,-2.9758,-2.9862,-2.9745,-2.9728,-2.9726,-2.9609,-2.979,-3.0058,-3.0223,-3.0748,-3.1241,-3.1241,-3.1376,-3.1511,-3.1511,-3.2092,-3.2686,0.0,0.0,0.0,-3.4049,-3.3819,0.0,-3.4653,-3.519,0.0,-3.5504,0.0,-3.5504,-3.5504,-3.5504,0.0,0.0,-3.5504,-3.5504,-3.5504,-3.5504,-3.5504,-3.5504,-3.5504,-3.5504,-3.5504,-3.5504,-3.5504,-3.5504,-3.5504,-3.5504,-3.5504,-3.5504,-3.5504,-3.5504,-3.5504,-3.5504,-3.5504,-3.5504,-3.5504,-3.5504,-3.5504,-3.5504,-3.5504,-3.5504,-3.5504,-3.5504,0.0,0.0,0.0,0.0,0.0,0.0,0.0,0.0,0.0,0.0,0.0,0.0,0.0,0.0,0.0,0.0,0.0,0.0,0.0,0.0,0.0,0.0,0.0,0.0,0.0,0.0,0.0,0.0,0.0,0.0,-2.6691,-2.6691,-2.6691,-2.6691,-2.6691,-2.6691,-2.6691,-2.6691,0.0,0.0,0.0,-2.6691,-2.6742,-2.7165,-2.7807,0.0,0.0,0.0,0.0,0.0,0.0,-2.9865,-2.9496,-2.9614,-2.9779,-2.9223,0.0,-2.9934,-2.9674,-3.0028,-3.0567,-3.0881,-3.1212,-3.1582,-3.191,-3.1979,-3.2064,-3.2351,-3.2971,0.0,-3.3538,0.0,0.0,0.0,0.0,0.0,-3.4369,-3.4801,-3.516,0.0,-3.5504,0.0,-3.5504,-3.5504,-3.5504,0.0,-3.5504,-3.5504,-3.5504,-3.5504,-3.5504,-3.5504,-3.5504,-3.5504,-3.5504,-3.5504,-3.5504,-3.5504,-3.5504,-3.5504,-3.5504,-3.5504,-3.5504,-3.5504,0.0,-3.5504,-3.5504,-3.5504,-3.5504,-3.5504,-3.5504,-3.5504,-3.5504,-3.5504,-3.5504,-3.5504,0.0,0.0,0.0,0.0,0.0,0.0,0.0,0.0,0.0,0.0,0.0,0.0,0.0,0.0,0.0,0.0,0.0,0.0,0.0,0.0,0.0,0.0,0.0,0.0,0.0,0.0,0.0,0.0,0.0,0.0,0.0,0.0,0.0,0.0,0.0,0.0,0.0,0.0,0.0,0.0,-2.6691,-2.6691,-2.6691,0.0,0.0,0.0,0.0,0.0,0.0,0.0,-2.9339,-2.9271,-2.918,-2.96,-2.9895,-2.8714,-2.9373,-3.0335,-2.9753,-3.0103,-3.0763,-3.1346,-3.1511,-3.1697,-3.2437,-3.2586,-3.2788,-3.3469,0.0,-3.4431,-3.3836,-3.3735,-3.367,-3.3536,0.0,-3.3051,-3.4204,-3.4459,-3.4758,-3.5429,-3.5504,-3.5504,-3.5504,-3.5504,-3.5504,-3.5504,-3.5504,-3.5504,-3.5504,-3.5504,-3.5504,-3.5504,-3.5504,-3.5504,-3.5504,-3.5504,-3.5504,-3.5504,-3.5504,-3.5504,-3.5504,-3.5504,-3.5504,-3.5504,-3.5504,-3.5504,-3.5504,-3.5504,-3.5504,-3.5504,-3.5504,-3.5504,-3.5504,-3.5504,-3.5504,-3.5504,0.0,0.0,0.0,0.0,0.0,0.0,0.0,0.0,0.0,0.0,-2.3876,-2.3999,0.0,0.0,0.0,0.0,0.0,0.0,0.0,0.0,0.0,0.0,0.0,0.0,0.0,-2.6691,-2.6691,-2.6691,-2.6691,0.0,0.0,0.0,0.0,0.0,0.0,0.0,0.0,0.0,0.0,0.0,-2.6691,-2.6691,-2.6691,0.0,0.0,0.0,0.0,0.0,0.0,0.0,-2.9081,-2.8583,-2.8067,-2.7995,-2.8071,-2.7815,-2.871,-2.9753,-2.9633,-3.0447,-3.1346,-3.1466,-3.1511,-3.1697,-3.2437,-3.2586,0.0,0.0,-3.4137,-3.4552,-3.4455,-3.4431,-3.4243,-3.3664,0.0,0.0,0.0,0.0,-3.4758,0.0,0.0,0.0,0.0,0.0,0.0,0.0,-3.5504,-3.5504,-3.5504,-3.5504,-3.5504,-3.5504,-3.5504,-3.5504,-3.5504,-3.5504,-3.5504,-3.5504,-3.5504,-3.5504,-3.5504,-3.5504,-3.5504,-3.5504,-3.5504,0.0,-3.5504,-3.5504,-3.5504,-3.5504,-3.5504,-3.5504,-3.5504,-3.5504,-3.5504,-3.5504,0.0,0.0,0.0,0.0,0.0,0.0,0.0,-2.4339,-2.419,-2.419,-2.4064,-2.4166,-2.4737,-2.4853,-2.5226,0.0,0.0,0.0,0.0,0.0,0.0,0.0,0.0,0.0,0.0,-2.6691,-2.6691,-2.6691,0.0,-2.6691,-2.6691,-2.6691,-2.6691,-2.6691,-2.6691,-2.6691,-2.6691,-2.6691,-2.6691,-2.6691,-2.6691,-2.6691,0.0,0.0,0.0,0.0,0.0,0.0,0.0,0.0,-2.9248,-2.8391,-2.7785,-2.76,-2.76,-2.76,-2.8304,-2.9071,-2.9071,-3.0013,-3.0972,-3.0972,-3.1241,-3.1796,-3.2879,0.0,0.0,0.0,-3.4911,-3.5121,-3.5121,0.0,0.0,0.0,0.0,0.0,0.0,0.0,0.0,0.0,0.0,0.0,0.0,0.0,0.0,-3.5504,-3.5504,-3.5504,-3.5504,-3.5504,-3.5504,-3.5504,-3.5504,-3.5504,-3.5504,-3.5504,-3.5504,-3.5504,-3.5504,-3.5504,-3.5504,-3.5504,-3.5504,-3.5504,-3.5504,-3.5504,-3.5504,-3.5504,-3.5504,-3.5504,-3.5504,-3.5504,-3.5504,-3.5504,-3.5504,-3.5504,0.0,0.0,0.0,0.0,0.0,0.0,0.0,-2.4339,-2.419,-2.419,-2.419,-2.4312,-2.4632,-2.4759,-2.5075,0.0,0.0,0.0,0.0,0.0,0.0,0.0,0.0,0.0,0.0,0.0,0.0,-2.6691,-2.6691,0.0,0.0,0.0,0.0,0.0,-2.6691,-2.6691,-2.6691,-2.6691,-2.6691,0.0,0.0,-2.6691,0.0,0.0,0.0,0.0,0.0,0.0,0.0,0.0,-2.9673,-2.8779,-2.8174,-2.781,-2.7625,-2.776,-2.8181,-2.8607,-2.8607,-2.9445,-3.0342,-3.0477,-3.0883,-3.1684,-3.324,-3.3582,0.0,0.0,-3.56,-3.56,-3.56,0.0,-3.4759,0.0,0.0,0.0,0.0,0.0,0.0,0.0,0.0,0.0,0.0,0.0,0.0,-3.5733,-3.5733,-3.5668,-3.5504,-3.5504,-3.5504,-3.5504,-3.5504,-3.5504,-3.5504,-3.5504,-3.5504,-3.5504,-3.5504,-3.5504,-3.5504,-3.5504,-3.5504,-3.5504,-3.5504,-3.5504,-3.5504,-3.5504,-3.5504,-3.5504,-3.5504,-3.5504,-3.5504,-3.5504,-3.5504,-3.5504,0.0,0.0,0.0,0.0,0.0,0.0,0.0,-2.4339,-2.419,-2.419,-2.419,-2.4217,-2.4243,-2.4577,-2.4835,0.0,0.0,0.0,0.0,0.0,0.0,0.0,0.0,0.0,0.0,0.0,0.0,-2.6691,-2.6691,0.0,0.0,0.0,0.0,0.0,0.0,-2.6691,-2.6691,-2.6691,0.0,0.0,0.0,0.0,0.0,0.0,0.0,0.0,0.0,0.0,0.0,0.0,0.0,-3.0038,-2.9429,-2.8496,-2.771,-2.8262,0.0,0.0,-2.8607,-2.9131,-2.9804,-3.0357,-3.0552,-3.1107,-3.3129,0.0,0.0,-3.5316,-3.56,-3.56,-3.56,-3.5538,-3.5316,0.0,0.0,-3.4189,0.0,0.0,0.0,0.0,0.0,0.0,0.0,0.0,0.0,-3.6492,-3.6492,-3.6196,-3.5537,-3.5504,-3.5504,-3.5504,-3.5504,-3.5504,-3.5504,-3.5504,-3.5504,-3.5504,-3.5504,-3.5504,-3.5504,-3.5504,-3.5504,-3.5504,-3.5504,-3.5504,0.0,-3.5504,-3.5504,-3.5504,-3.5504,-3.5504,-3.5504,-3.5504,-3.5504,-3.5504,0.0,0.0,0.0,0.0,0.0,0.0,-2.4537,-2.4339,-2.419,-2.419,-2.419,-2.419,-2.419,-2.4338,-2.4537,-2.4779,0.0,0.0,0.0,0.0,0.0,0.0,0.0,0.0,0.0,0.0,-2.6938,-2.6691,-2.6691,0.0,0.0,0.0,0.0,0.0,0.0,-2.6691,-2.6691,-2.6691,0.0,0.0,0.0,0.0,0.0,0.0,0.0,0.0,0.0,0.0,0.0,0.0,0.0,0.0,-3.0456,-2.9673,0.0,0.0,-2.8535,-2.8454,-2.8106,-2.8472,-2.9146,-2.9789,-3.0579,-3.1601,-3.3216,0.0,0.0,-3.5424,-3.56,-3.56,-3.56,-3.56,-3.5515,-3.5253,0.0,0.0,0.0,0.0,0.0,0.0,0.0,0.0,0.0,0.0,0.0,-3.7338,-3.7338,-3.7189,-3.689,-3.689,-3.689,-3.689,-3.689,-3.6646,-3.6165,-3.6165,-3.5943,-3.5504,-3.5504,-3.5504,-3.5504,-3.5504,-3.5504,-3.5504,-3.5504,-3.5504,0.0,-3.5504,-3.5504,-3.5504,-3.5504,-3.5504,-3.5504,-3.5504,-3.5504,-3.5504,0.0,0.0,0.0,0.0,0.0,-2.4731,-2.4537,-2.4339,-2.419,-2.419,-2.419,-2.419,-2.419,-2.419,-2.4303,-2.4592,-2.4835,0.0,0.0,0.0,0.0,0.0,0.0,0.0,0.0,0.0,-2.7162,-2.6873,-2.6758,-2.6691,0.0,0.0,-2.6691,-2.6691,0.0,0.0,0.0,0.0,0.0,0.0,0.0,0.0,0.0,0.0,0.0,0.0,0.0,0.0,0.0,0.0,0.0,0.0,0.0,0.0,0.0,0.0,-2.8919,-2.8662,-2.8247,-2.8492,-2.8997,-2.9671,-3.0746,-3.1939,0.0,0.0,0.0,-3.547,-3.56,-3.56,-3.56,-3.56,-3.56,-3.56,0.0,-3.4847,-3.4624,0.0,0.0,0.0,0.0,0.0,0.0,0.0,0.0,-3.8121,-3.8121,-3.8121,-3.8121,-3.8346,-3.8262,-3.7806,-3.7793,-3.7544,-3.6964,-3.6722,-3.6337,-3.5846,-3.5846,-3.5846,-3.5831,-3.6085,-3.6053,-3.5846,-3.5846,-3.5701,0.0,-3.5504,-3.5504,-3.5504,-3.5504,-3.5504,-3.5504,-3.5504,-3.5504,-3.5504,0.0,0.0,0.0,0.0,0.0,0.0,-2.4537,-2.4339,-2.419,-2.419,-2.419,-2.419,-2.419,-2.419,-2.4208,-2.4208,-2.4924,0.0,0.0,0.0,0.0,0.0,0.0,0.0,0.0,0.0,-2.7303,-2.7286,-2.689,-2.6691,-2.6691,-2.6691,-2.6691,-2.6691,0.0,0.0,0.0,0.0,0.0,0.0,0.0,0.0,0.0,0.0,0.0,0.0,0.0,0.0,0.0,0.0,0.0,0.0,0.0,0.0,0.0,0.0,-2.9848,-2.9384,-2.9384,-2.9384,-2.9575,-3.0301,-3.0989,-3.1878,0.0,0.0,-3.4783,-3.547,-3.56,-3.56,-3.56,-3.56,-3.56,-3.56,-3.56,0.0,-3.4688,0.0,0.0,0.0,0.0,0.0,0.0,0.0,-3.8881,-3.8881,-3.8881,0.0,-3.8881,-3.9636,-3.9375,-3.7851,-3.7793,-3.7793,-3.7793,-3.6994,-3.6615,-3.6584,-3.6584,-3.6584,-3.6615,-3.7427,-3.7338,-3.6584,-3.6584,-3.6165,0.0,-3.5504,-3.5504,-3.5504,-3.5504,-3.5504,-3.5504,-3.5504,-3.5504,-3.5504,0.0,0.0,0.0,0.0,0.0,0.0,0.0,-2.4462,-2.4348,-2.4218,-2.419,-2.419,-2.419,-2.419,-2.419,-2.419,-2.4428,0.0,0.0,0.0,0.0,0.0,0.0,0.0,0.0,0.0,-2.7592,-2.7303,-2.689,-2.6691,-2.6691,-2.6691,-2.6691,-2.6691,-2.6691,-2.6691,0.0,0.0,0.0,0.0,0.0,0.0,0.0,0.0,0.0,0.0,0.0,0.0,0.0,0.0,0.0,0.0,0.0,0.0,0.0,0.0,0.0,0.0,-2.9518,-2.9765,-3.0334,-3.1021,-3.2079,-3.3156,-3.4072,0.0,-3.5339,-3.5577,-3.56,-3.56,-3.56,-3.56,-3.56,-3.56,-3.56,0.0,0.0,0.0,0.0,0.0,0.0,0.0,0.0,0.0,-3.9731,-3.9731,-3.9731,-3.9731,-3.9731,-3.9952,-3.9876,-3.9401,-3.9375,-3.9102,-3.8553,-3.8314,-3.7917,-3.7427,-3.7427,-3.7427,-3.7427,-3.7114,-3.6843,-3.6584,-3.6054,-3.5733,-3.5504,-3.5504,-3.5504,-3.5504,-3.5504,-3.5504,-3.5504,-3.5504,-3.5504,-3.5504,0.0,0.0,0.0,0.0,0.0,0.0,0.0,-2.4553,-2.4436,-2.4228,-2.419,-2.419,-2.419,-2.419,-2.419,-2.419,-2.419,0.0,0.0,0.0,0.0,0.0,0.0,0.0,0.0,-2.7692,-2.7783,-2.7532,-2.7131,-2.6923,-2.6923,-2.6775,-2.6691,-2.6691,-2.6691,-2.6691,0.0,0.0,0.0,0.0,0.0,0.0,-2.6691,0.0,0.0,0.0,0.0,0.0,0.0,0.0,0.0,0.0,0.0,0.0,0.0,0.0,-3.0918,0.0,0.0,-3.0609,-3.1291,-3.1735,-3.2909,0.0,0.0,0.0,-3.56,-3.56,-3.56,-3.56,-3.56,-3.56,-3.56,-3.56,-3.56,0.0,0.0,0.0,0.0,0.0,0.0,0.0,0.0,-4.0096,-4.0096,-4.0096,-4.0096,-4.0096,-4.0096,-4.0096,-4.0096,-4.0096,-4.0096,-3.9876,-3.9342,-3.9059,-3.8663,-3.8234,-3.8234,-3.8234,-3.8206,-3.8003,-3.7758,-3.7438,-3.698,-3.6446,0.0,-3.6258,-3.6196,-3.5958,-3.6258,-3.6368,-3.6337,-3.6038,-3.5926,-3.5863,0.0,0.0,0.0,0.0,0.0,0.0,0.0,-2.4647,-2.4444,-2.4256,-2.4199,-2.419,-2.419,-2.419,-2.419,-2.419,0.0,0.0,0.0,0.0,0.0,0.0,0.0,0.0,0.0,-2.7722,-2.7911,-2.794,-2.75,-2.7303,-2.7303,-2.689,-2.6691,-2.6691,-2.6691,-2.6691,-2.6691,-2.6691,-2.6691,-2.6691,-2.6691,-2.6691,0.0,0.0,0.0,0.0,0.0,0.0,0.0,0.0,0.0,0.0,0.0,0.0,0.0,0.0,0.0,0.0,0.0,0.0,0.0,0.0,0.0,0.0,0.0,0.0,0.0,-3.56,-3.56,-3.56,-3.56,-3.56,-3.56,-3.56,0.0,0.0,0.0,0.0,0.0,0.0,0.0,0.0,0.0,-4.0096,-4.0096,-4.0096,-4.0096,-4.0096,-4.0096,-4.0096,-4.0096,-4.0096,-4.0096,-4.0096,-4.0096,-3.9342,-3.9005,-3.9005,-3.9005,-3.9005,-3.9005,-3.9705,-3.961,0.0,-3.8854,-3.8015,-3.6722,-3.7485,-3.7368,-3.6768,-3.7515,-3.7793,-3.769,-3.6964,-3.6707,-3.6584,0.0,0.0,0.0,0.0,0.0,0.0,0.0,0.0,0.0,0.0,-2.4294,-2.419,-2.419,-2.419,-2.419,0.0,0.0,0.0,0.0,0.0,0.0,0.0,0.0,0.0,0.0,-2.7978,-2.8037,-2.829,-2.7616,-2.7303,-2.7303,-2.689,-2.6691,-2.6691,-2.6691,-2.6691,-2.6691,-2.6691,-2.6691,-2.6691,-2.6691,-2.6691,0.0,0.0,0.0,0.0,-2.8993,-2.9958,0.0,0.0,0.0,0.0,0.0,0.0,0.0,0.0,-3.119,-3.119,-3.119,0.0,-3.3144,-3.3148,-3.4262,-3.5357,0.0,0.0,0.0,0.0,0.0,0.0,-3.56,-3.56,0.0,0.0,0.0,0.0,0.0,0.0,0.0,0.0,0.0,0.0,-4.0096,-4.0096,-4.0096,-4.0096,-4.0096,-4.0096,-4.0096,-4.0096,-4.0096,-4.0096,-4.0096,-4.0096,-4.0096,-3.9901,-3.9808,-3.9808,-3.9808,-3.9808,-3.9808,-3.9385,-3.9086,-3.8881,-3.8302,-3.7863,-3.7544,-3.7719,-3.769,-3.7544,-3.7735,-3.7793,-3.7793,-3.7602,-3.7515,-3.7485,0.0,0.0,0.0,0.0,0.0,0.0,0.0,0.0,0.0,0.0,0.0,0.0,0.0,0.0,0.0,0.0,0.0,0.0,0.0,0.0,0.0,0.0,0.0,-2.8061,-2.7904,-2.8043,-2.8224,-2.8407,-2.7848,-2.7592,-2.756,-2.6971,-2.6691,-2.6691,-2.6691,-2.6691,-2.6691,-2.6691,-2.6691,-2.6691,-2.6691,0.0,0.0,0.0,0.0,0.0,-2.8993,-2.9958,0.0,-3.119,-3.119,-3.119,0.0,0.0,0.0,0.0,-3.119,-3.119,-3.119,-3.2273,-3.3406,-3.3406,-3.4501,-3.56,0.0,0.0,0.0,0.0,0.0,0.0,0.0,0.0,0.0,0.0,0.0,0.0,0.0,0.0,0.0,0.0,0.0,0.0,0.0,-4.0096,-4.0096,-4.0096,-4.0096,-4.0096,-4.0096,-4.0096,-4.0096,-4.0096,-4.0096,-4.0096,-4.0096,-4.0096,-4.0096,-4.0096,-4.0096,-4.0096,-4.007,-3.9636,-3.9463,-3.9437,-3.9022,-3.8652,-3.833,-3.8707,-3.8624,-3.833,-3.8707,-3.8859,-3.8805,-3.8458,-3.8302,-3.8246,0.0,0.0,0.0,0.0,0.0,0.0,0.0,0.0,0.0,0.0,0.0,0.0,0.0,0.0,0.0,0.0,0.0,0.0,0.0,0.0,0.0,0.0,0.0,-2.8139,-2.7557,-2.8112,-2.8433,-2.8484,-2.8088,-2.7897,-2.7883,-2.7067,-2.6691,-2.6691,-2.6691,-2.6691,-2.6691,-2.6691,-2.6691,-2.6691,-2.6691,0.0,0.0,0.0,0.0,0.0,0.0,0.0,0.0,-3.119,-3.119,-3.119,-3.119,0.0,0.0,0.0,0.0,0.0,-3.119,-3.2273,-3.3406,-3.3406,-3.4501,-3.56,0.0,0.0,0.0,0.0,0.0,0.0,0.0,0.0,0.0,0.0,0.0,0.0,0.0,0.0,0.0,0.0,0.0,0.0,-4.0096,-4.0096,-4.0096,-4.0096,-4.0096,-4.0096,-4.0096,-4.0096,-4.0096,-4.0096,-4.0096,-4.0096,-4.0096,-4.0096,-4.0096,-4.0096,-4.0096,-4.0096,-4.0096,-4.0096,-4.0096,-4.0096,0.0,0.0,-3.9139,-3.9808,-3.9705,-3.9139,-3.9833,-4.0096,-4.002,-3.9342,-3.9086,-3.9005,0.0,0.0,0.0,0.0,0.0,0.0,0.0,0.0,0.0,0.0,0.0,0.0,0.0,0.0,0.0,0.0,0.0,0.0,0.0,0.0,0.0,0.0,-2.7877,-2.8515,-2.8725,-2.8515,-2.8565,-2.8917,-2.8228,-2.7897,-2.7883,-2.7067,-2.6691,-2.6691,-2.6691,-2.6691,-2.6691,-2.6691,-2.6691,-2.6691,-2.6691,0.0,0.0,0.0,0.0,0.0,0.0,0.0,0.0,-3.119,-3.119,-3.119,-3.119,0.0,0.0,0.0,0.0,0.0,-3.119,-3.2273,-3.3406,-3.3406,-3.4501,-3.56,0.0,0.0,0.0,0.0,0.0,0.0,0.0,0.0,0.0,0.0,0.0,0.0,0.0,0.0,0.0,0.0,0.0,-4.0096,-4.0096,-4.0096,-4.0096,-4.0096,-4.0096,-4.0096,-4.0096,-4.0096,-4.0096,-4.0096,-4.0096,-4.0096,-4.0096,-4.0096,-4.0096,-4.0096,-4.0096,-4.0096,-4.0096,-4.0096,-4.0096,-4.0096,0.0,-4.002,-3.9927,-4.0045,-4.002,-3.9927,-4.0045,-4.0096,-4.007,-3.9952,-3.9927,-3.9901,0.0,0.0,0.0,0.0,0.0,0.0,0.0,0.0,0.0,0.0,0.0,0.0,0.0,0.0,0.0,0.0,0.0,0.0,0.0,0.0,0.0,-2.751,-2.83,-2.8707,-2.867,-2.8707,-2.8797,-2.9005,-2.8255,-2.7978,-2.8156,-2.7376,-2.7019,-2.7003,-2.6808,-2.6691,-2.6691,-2.6691,-2.6691,-2.6691,0.0,0.0,0.0,0.0,0.0,0.0,0.0,0.0,0.0,0.0,-3.119,-3.119,-3.119,0.0,0.0,0.0,0.0,0.0,-3.119,-3.2273,-3.3406,-3.3406,-3.4501,-3.56,0.0,0.0,0.0,0.0,0.0,0.0,0.0,0.0,0.0,0.0,0.0,0.0,0.0,-3.887,-3.9723,0.0,0.0,-4.0096,-4.0096,-4.0096,-4.0096,-4.0096,-4.0096,-4.0096,-4.0096,-4.0096,-4.0096,-4.0096,-4.0096,-4.0096,-4.0096,-4.0096,-4.0096,-4.0096,-4.0096,-4.0096,-4.0096,-4.0096,-4.0096,-4.0096,0.0,-4.0096,-4.0096,-4.0096,-4.0096,-4.0096,-4.0096,-4.0096,-4.0096,-4.0096,-4.0096,-4.0096,0.0,0.0,0.0,0.0,0.0,0.0,0.0,0.0,0.0,0.0,0.0,0.0,0.0,0.0,0.0,0.0,0.0,0.0,0.0,0.0,-2.7879,-2.8062,-2.8675,-2.8851,-2.8552,-2.8839,-2.9005,-2.9005,-2.8334,-2.8102,-2.8277,-2.7601,-2.7303,-2.7288,-2.6873,-2.6691,-2.6691,-2.6691,-2.6691,-2.6691,0.0,0.0,0.0,0.0,0.0,0.0,0.0,0.0,0.0,0.0,0.0,0.0,0.0,0.0,0.0,-3.119,-3.119,-3.119,-3.119,-3.2273,-3.3406,-3.3406,0.0,0.0,0.0,0.0,0.0,0.0,0.0,0.0,0.0,0.0,0.0,0.0,0.0,-3.7973,-3.8142,-3.9276,-4.0096,-4.0096,-4.0096,-4.0096,-4.0096,-4.0096,-4.0096,-4.0096,-4.0096,-4.0096,-4.0096,-4.0096,-4.0096,-4.0096,-4.0096,-4.0096,-4.0096,-4.0096,-4.0096,-4.0096,-4.0096,-4.0096,-4.0096,-4.0096,-4.0096,-4.0096,-4.0096,-4.0096,-4.0096,-4.0096,-4.0096,-4.0096,-4.0096,-4.0096,-4.0096,-4.0096,-4.0096,-4.0096,0.0,0.0,0.0,0.0,0.0,0.0,0.0,0.0,0.0,0.0,0.0,0.0,0.0,0.0,0.0,0.0,0.0,0.0,0.0,0.0,-2.8136,-2.8877,-2.8968,-2.8994,-2.897,-2.8994,-2.9005,-2.9005,-2.8565,-2.8224,-2.794,-2.75,-2.7303,-2.7288,-2.6873,-2.6691,-2.6691,-2.6691,-2.6691,-2.6691,-2.6691,0.0,0.0,0.0,0.0,0.0,0.0,0.0,0.0,0.0,0.0,0.0,0.0,0.0,-3.119,-3.119,-3.119,-3.119,-3.119,-3.2273,-3.3406,-3.3406,-3.4501,0.0,-3.56,-3.56,0.0,-3.56,0.0,0.0,0.0,0.0,0.0,0.0,0.0,-3.8142,-3.8819,0.0,-4.0096,-4.0096,-4.0096,-4.0096,-4.0096,-4.0096,-4.0096,-4.0096,-4.0096,-4.0096,-4.0096,-4.0096,-4.0096,-4.0096,-4.0096,-4.0096,-4.0096,-4.0096,-4.0096,-4.0096,-4.0096,-4.0096,-4.0096,-4.0096,-4.0096,-4.0096,-4.0096,-4.0096,-4.0096,-4.0096,-4.0096,-4.0096,-4.0096,-4.0096,-4.0096,-4.0096,-4.0096,-4.0096,0.0,0.0,0.0,0.0,0.0,0.0,0.0,0.0,0.0,0.0,0.0,0.0,0.0,0.0,0.0,0.0,0.0,0.0,0.0,0.0,-2.8675,-2.8987,-2.9005,-2.9005,-2.9005,-2.9005,-2.9005,-2.9005,-2.8851,-2.8583,-2.821,-2.7837,-2.7794,-2.796,-2.7082,-2.6841,-2.7051,-2.6808,-2.6691,-2.6742,-2.7199,-2.7553,0.0,0.0,0.0,0.0,0.0,0.0,0.0,0.0,-3.119,-3.119,-3.119,-3.119,-3.119,-3.119,-3.119,-3.1292,-3.1769,-3.2628,-3.3508,-3.3964,0.0,0.0,0.0,-3.56,-3.56,-3.56,-3.56,0.0,0.0,0.0,0.0,0.0,0.0,-3.8159,-3.8886,-3.9639,-4.0096,-4.0096,-4.0096,-4.0096,-4.0096,-4.0096,-4.0096,-4.0096,-4.0096,-4.0096,-4.0096,-4.0096,-4.0096,-4.0096,-4.0096,-4.0096,-4.0096,-4.0096,-4.0096,-4.0096,-4.0096,-4.0096,-4.0096,-4.0096,-4.0096,-4.0096,-4.0096,-4.0096,-4.0096,-4.0096,-4.0096,-4.0096,-4.0096,-4.0096,-4.0096,-4.0096,-4.0096,-4.0096,0.0,0.0,0.0,0.0,0.0,0.0,0.0,0.0,0.0,0.0,0.0,0.0,0.0,0.0,0.0,0.0,0.0,0.0,-2.8968,-2.9005,-2.9005,-2.9005,-2.9005,-2.9005,-2.9005,-2.9005,-2.9005,-2.9005,-2.9005,-2.8785,-2.8389,-2.817,-2.8129,-2.8192,-2.7284,-2.7035,-2.7288,-2.702,-2.6944,-2.7097,-2.7743,-2.8201,0.0,0.0,0.0,0.0,0.0,0.0,0.0,0.0,-3.119,-3.119,-3.119,-3.119,-3.119,-3.119,-3.119,-3.136,-3.2107,-3.2831,-3.3592,0.0,0.0,0.0,-3.56,-3.56,-3.56,-3.56,-3.56,0.0,0.0,0.0,0.0,0.0,-3.777,-3.8497,-3.9225,-3.9791,-4.0096,-4.0096,-4.0096,-4.0096,-4.0096,-4.0096,-4.0096,-4.0096,-4.0096,-4.0096,-4.0096,-4.0096,-4.0096,-4.0096,-4.0096,-4.0096,-4.0096,-4.0096,-4.0096,-4.0096,-4.0096,-4.0096,-4.0096,-4.0096,-4.0096,-4.0096,-4.0096,-4.0096,-4.0096,-4.0096,-4.0096,-4.0096,-4.0096,-4.0096,-4.0096,-4.0096,-4.0096,-4.0096,0.0,0.0,0.0,0.0,0.0,0.0,0.0,0.0,0.0,0.0,0.0,0.0,0.0,0.0,0.0,0.0,0.0,0.0,-2.9005,-2.9005,-2.9005,-2.9005,-2.9005,-2.9005,-2.9005,-2.9005,-2.9005,-2.9005,-2.9005,-2.8803,-2.8407,-2.8407,-2.8224,-2.7897,-2.7502,-2.7319,-2.7319,-2.7319,-2.7514,-2.7842,-2.8268,-2.9093,-3.0108,0.0,0.0,0.0,0.0,0.0,0.0,0.0,-3.119,-3.119,-3.119,-3.119,-3.119,-3.119,-3.119,-3.136,-3.2107,-3.2831,-3.3592,0.0,0.0,0.0,0.0,0.0,-3.56,-3.56,0.0,-3.56,-3.56,0.0,0.0,-3.7787,-3.8514,-3.9242,-3.9994,-4.0096,-4.0096,-4.0096,-4.0096,-4.0096,-4.0096,-4.0096,-4.0096,-4.0096,-4.0096,-4.0096,-4.0096,-4.0096,-4.0096,-4.0096,-4.0096,-4.0096,-4.0096,-4.0096,-4.0096,-4.0096,-4.0096,-4.0096,-4.0096,-4.0096,-4.0096,-4.0096,-4.0096,-4.0096,-4.0096,-4.0096,-4.0096,-4.0096,-4.0096,-4.0096,-4.0096,-4.0096,-4.0096,-4.0096,0.0,0.0,0.0,0.0,0.0,0.0,0.0,0.0,0.0,0.0,0.0,0.0,0.0,0.0,0.0,0.0,0.0,0.0,-2.9005,-2.9005,-2.9005,-2.9005,-2.9005,-2.9005,-2.9005,-2.9005,-2.9005,-2.9005,-2.9005,-2.894,-2.8827,-2.854,-2.8502,-2.8651,-2.8006,-2.7848,-2.8106,-2.8417,-2.8425,-2.8337,-2.9539,-3.0055,-3.0176,0.0,0.0,0.0,0.0,0.0,0.0,0.0,0.0,0.0,-3.119,-3.119,-3.119,-3.119,-3.119,-3.1461,-3.273,-3.3237,0.0,0.0,0.0,0.0,0.0,0.0,0.0,0.0,0.0,-3.56,-3.56,0.0,0.0,-3.7787,-3.8514,-3.9242,-3.9994,-4.0096,-4.0096,-4.0096,-4.0096,-4.0096,-4.0096,-4.0096,-4.0096,-4.0096,-4.0096,-4.0096,-4.0096,-4.0096,-4.0096,-4.0096,-4.0096,-4.0096,-4.0096,-4.0096,-4.0096,-4.0096,-4.0096,-4.0096,-4.0096,-4.0096,-4.0096,-4.0096,-4.0096,-4.0096,-4.0096,-4.0096,-4.0096,-4.0096,-4.0096,-4.0096,-4.0096,-4.0096,-4.0096,-4.0096,0.0,0.0,0.0,0.0,0.0,0.0,0.0,0.0,0.0,0.0,0.0,0.0,0.0,0.0,0.0,0.0,0.0,0.0,0.0,-2.9005,-2.9005,-2.9005,-2.9005,-2.9005,-2.9005,-2.9005,-2.9005,-2.9005,-2.9005,-2.8917,-2.8761,-2.867,-2.8682,-2.8749,-2.8308,-2.8385,-2.8894,-2.9173,-2.9414,-2.9678,-3.0768,-3.1028,-3.0815,0.0,0.0,0.0,0.0,0.0,0.0,0.0,0.0,0.0,-3.119,-3.119,-3.119,-3.119,-3.119,-3.1512,-3.3,0.0,0.0,0.0,0.0,0.0,0.0,0.0,0.0,0.0,0.0,-3.56,-3.56,-3.6502,0.0,-3.7838,-3.8751,-3.9605,-4.0045,-4.0096,-4.0096,-4.0096,-4.0096,-4.0096,-4.0096,-4.0096,-4.0096,-4.0096,-4.0096,-4.0096,-4.0096,-4.0096,-4.0096,-4.0096,-4.0096,-4.0096,-4.0096,-4.0096,-4.0096,-4.0096,-4.0096,-4.0096,-4.0096,-4.0096,-4.0096,-4.0096,-4.0096,-4.0096,-4.0096,-4.0096,-4.0096,-4.0096,-4.0096,-4.0096,-4.0096,-4.0096,-4.0096,-4.0096,0.0,0.0,0.0,0.0,0.0,0.0,0.0,0.0,0.0,0.0,0.0,0.0,0.0,0.0,0.0,0.0,0.0,0.0,0.0,0.0,-2.9005,-2.9005,-2.9005,-2.9005,-2.9005,-2.9005,-2.9005,-2.9005,-2.9005,-2.8797,-2.8458,-2.8839,-2.8797,-2.8458,-2.8531,-2.8977,-2.9659,-2.9804,-3.0499,-3.1493,-3.1888,-3.1945,-3.1807,-3.1752,0.0,0.0,0.0,0.0,0.0,0.0,0.0,0.0,-3.1232,-3.123,-3.121,-3.1232,-3.128,-3.1613,-3.3017,0.0,0.0,0.0,0.0,0.0,0.0,0.0,0.0,0.0,0.0,-3.56,-3.56,-3.685,-3.7905,-3.7905,-3.914,-4.0096,-4.0096,-4.0096,-4.0096,-4.0096,-4.0096,-4.0096,-4.0096,-4.0096,-4.0096,-4.0096,-4.0096,-4.0096,-4.0096,-4.0096,-4.0096,-4.0096,-4.0096,-4.0096,-4.0096,-4.0096,-4.0096,-4.0096,-4.0096,-4.0096,-4.0096,-4.0096,-4.0096,-4.0096,-4.0096,-4.0096,-4.0096,-4.0096,-4.0096,-4.0096,-4.0096,-4.0096,-4.0096,-4.0096,-4.0096,-4.0096,0.0,0.0,0.0,0.0,0.0,0.0,0.0,0.0,0.0,0.0,0.0,0.0,0.0,0.0,0.0,0.0,0.0,0.0,0.0,0.0,-2.9005,-2.9005,-2.9005,-2.9005,-2.9005,-2.9005,-2.9005,-2.9005,-2.9005,-2.897,-2.8863,-2.8952,-2.8952,-2.89,-2.9533,-2.9911,-3.0149,-3.143,-3.1929,-3.19,-3.2264,-3.2158,-3.1771,-3.1449,-3.1271,0.0,0.0,0.0,0.0,0.0,0.0,0.0,-3.1565,-3.1468,-3.1252,-3.1584,-3.1859,-3.2259,0.0,-3.3829,0.0,0.0,0.0,0.0,0.0,0.0,0.0,0.0,-3.56,-3.56,-3.56,-3.685,-3.7905,-3.7905,-3.914,-4.0096,-4.0096,-4.0096,-4.0096,-4.0096,-4.0096,-4.0096,-4.0096,-4.0096,-4.0096,-4.0096,-4.0096,-4.0096,-4.0096,-4.0096,-4.0096,-4.0096,-4.0096,-4.0096,-4.0096,-4.0096,-4.0096,-4.0096,-4.0096,-4.0096,-4.0096,-4.0096,-4.0096,-4.0096,-4.0096,-4.0096,-4.0096,-4.0096,-4.0096,-4.0096,-4.0096,-4.0096,-4.0096,-4.0096,-4.0096,-4.0096,0.0,0.0,0.0,0.0,0.0,0.0,0.0,0.0,0.0,0.0,0.0,0.0,0.0,0.0,0.0,0.0,0.0,0.0,0.0,0.0,-2.9005,-2.9005,-2.9005,-2.9005,-2.9005,-2.9005,-2.9005,-2.9005,-2.9005,-2.9005,-2.9005,-2.9005,-2.9207,-2.9592,-3.0008,-3.0632,-3.139,-3.2234,-3.2697,-3.2883,-3.3063,-3.2854,-3.245,-3.223,-3.2021,-3.1823,-3.1823,0.0,0.0,0.0,0.0,0.0,0.0,0.0,-3.1545,-3.1734,-3.204,-3.2462,0.0,0.0,0.0,0.0,0.0,0.0,0.0,0.0,0.0,0.0,-3.56,-3.56,-3.56,-3.6569,-3.7483,-3.7838,-3.8836,-3.9706,-4.0045,-4.0096,-4.0096,-4.0096,-4.0096,-4.0096,-4.0096,-4.0096,-4.0096,-4.0096,-4.0096,-4.0096,-4.0096,-4.0096,-4.0096,-4.0096,-4.0096,-4.0096,-4.0096,-4.0096,-4.0096,-4.0096,-4.0096,-4.0096,-4.0096,-4.0096,-4.0096,-4.0096,-4.0096,-4.0096,-4.0096,-4.0096,-4.0096,-4.0096,-4.0096,-4.0096,-4.0096,-4.0096,-4.0096,-4.0096,0.0,0.0,0.0,0.0,0.0,0.0,0.0,0.0,0.0,0.0,0.0,0.0,0.0,0.0,0.0,0.0,0.0,0.0,0.0,0.0,0.0,-2.9005,-2.9005,-2.9005,-2.9005,-2.9005,-2.9005,-2.9005,-2.9005,-2.9078,0.0,-2.9207,-2.9555,-3.021,-3.0485,-3.1335,-3.2601,-3.2748,-3.3201,-3.3788,-3.3721,-3.3494,-3.3199,-3.3105,-3.2842,-3.2501,-3.2501,-3.2501,-3.2501,-3.2501,0.0,0.0,0.0,0.0,-3.195,-3.2072,-3.2343,-3.2751,0.0,0.0,0.0,0.0,0.0,0.0,0.0,0.0,0.0,0.0,-3.56,-3.56,-3.56,-3.6265,-3.7015,-3.7618,-3.8328,-3.9005,-3.9639,-3.9842,-3.991,-3.991,-4.0028,-4.0096,-4.0096,-4.0096,-4.0096,-4.0096,-4.0096,-4.0096,-4.0096,-4.0096,-4.0096,-4.0096,-4.0096,-4.0096,-4.0096,-4.0096,-4.0096,-4.0096,-4.0096,-4.0096,-4.0096,-4.0096,-4.0096,-4.0096,-4.0096,-4.0096,-4.0096,-4.0096,-4.0096,-4.0096,-4.0096,-4.0096,-4.0096,-4.0096,-4.0096,-4.0096,0.0,0.0,0.0,0.0,0.0,0.0,0.0,0.0,0.0,0.0,0.0,0.0,0.0,0.0,0.0,0.0,0.0,0.0,-2.9005,0.0,0.0,-2.9005,-2.9005,-2.9005,-2.9005,-2.9005,-2.9005,-2.9005,-2.9005,0.0,0.0,0.0,0.0,-3.0265,-3.1647,-3.2399,-3.2656,-3.3348,-3.3697,-3.3762,-3.3422,-3.3243,-3.3154,-3.2745,-3.255,-3.2501,-3.2501,-3.2501,-3.2501,-3.2501,-3.2501,0.0,0.0,0.0,-3.2524,-3.3159,-3.361,-3.3925,0.0,0.0,0.0,0.0,0.0,0.0,0.0,0.0,0.0,0.0,-3.56,-3.56,-3.56,-3.6265,-3.6829,-3.6931,-3.7567,-3.8091,-3.8176,-3.8734,-3.914,-3.914,-3.9723,-4.0096,-4.0096,-4.0096,-4.0096,-4.0096,-4.0096,-4.0096,-4.0096,-4.0096,-4.0096,-4.0096,-4.0096,-4.0096,-4.0096,-4.0096,-4.0096,-4.0096,-4.0096,-4.0096,-4.0096,-4.0096,-4.0096,-4.0096,-4.0096,-4.0096,-4.0096,-4.0096,-4.0096,-4.0096,-4.0096,-4.0096,-4.0096,-4.0096,-4.0096,-4.0096,0.0,0.0,0.0,0.0,0.0,0.0,0.0,0.0,0.0,0.0,0.0,0.0,0.0,0.0,0.0,-2.9005,-2.9005,-2.9005,-2.9005,-2.9005,-2.9005,-2.9005,-2.9005,-2.9005,-2.9005,-2.9005,-2.9005,-2.9005,0.0,0.0,0.0,-3.1115,-3.1537,0.0,0.0,0.0,-3.3311,0.0,-3.3807,-3.3775,-3.3606,0.0,-3.3494,-3.306,-3.2887,-3.2887,-3.2887,-3.2887,-3.2937,-3.3148,-3.3225,-3.327,-3.348,0.0,0.0,0.0,-3.4058,0.0,0.0,0.0,0.0,0.0,0.0,0.0,0.0,0.0,0.0,0.0,-3.56,-3.56,-3.56,-3.5893,-3.6282,-3.6728,-3.7083,-3.7432,-3.7838,-3.8176,-3.8379,-3.8379,-3.8667,-3.887,-3.887,-3.887,-3.887,-3.887,-3.887,-3.9039,-3.9469,-3.9486,-3.9673,-4.0096,-4.0096,-4.0096,-4.0096,-4.0096,-4.0096,-4.0096,-4.0096,-4.0096,-4.0096,-4.0096,-4.0096,-4.0096,-4.0096,-4.0096,-4.0096,-4.0096,-4.0096,-4.0096,-4.0096,-4.0096,-4.0096,-4.0096,-4.0096,-4.0096,0.0,0.0,0.0,0.0,0.0,0.0,0.0,0.0,0.0,0.0,0.0,0.0,0.0,0.0,0.0,0.0,-2.9005,-2.9005,-2.9005,-2.9005,-2.9005,-2.9005,-2.9005,-2.9005,-2.9005,-2.9207,-2.9299,-2.9299,0.0,0.0,-3.0852,-3.2032,-3.2711,0.0,-3.2894,-3.3238,0.0,0.0,0.0,0.0,0.0,0.0,0.0,-3.3346,-3.3258,-3.3317,-3.3105,-3.3151,-3.3361,-3.3433,-3.355,-3.3671,-3.389,-3.3636,0.0,0.0,0.0,0.0,0.0,0.0,0.0,0.0,0.0,0.0,0.0,0.0,0.0,0.0,-3.56,-3.56,-3.56,-3.56,-3.5785,-3.64,-3.6485,-3.6688,-3.7246,-3.7499,-3.7618,-3.7618,-3.7787,-3.7905,-3.7905,-3.7905,-3.7905,-3.7905,-3.7905,-3.8142,-3.8684,-3.8717,-3.8971,-3.9512,-3.9529,-3.9529,-3.9529,-3.974,-3.9825,-3.9825,-4.0011,-4.0096,-4.0096,-4.0096,-4.0096,-4.0096,-4.0096,-4.0096,-4.0096,-4.0096,-4.0096,-4.0096,-4.0096,-4.0096,-4.0096,-4.0096,-4.0096,-4.0096,0.0,0.0,0.0,0.0,0.0,0.0,0.0,0.0,0.0,0.0,0.0,0.0,-2.9044,-2.9017,-2.9005,-2.9005,-2.9005,-2.9005,-2.9005,-2.9005,-2.9005,-2.9005,-2.9005,0.0,-2.9005,-2.9739,-3.0136,0.0,0.0,0.0,-3.2472,-3.2564,-3.3005,-3.3733,-3.3733,-3.3752,-3.3807,0.0,0.0,0.0,0.0,0.0,0.0,-3.3346,-3.3451,-3.3648,-3.284,-3.3057,-3.3652,-3.284,-3.2856,-3.3355,-3.4132,-3.4015,-3.3984,0.0,0.0,0.0,0.0,0.0,0.0,0.0,0.0,0.0,0.0,0.0,0.0,0.0,-3.56,-3.56,-3.56,-3.56,-3.5616,-3.565,-3.565,-3.5667,-3.5701,-3.6383,-3.6863,-3.6863,-3.7466,-3.7905,-3.7905,-3.7905,-3.7905,-3.7905,-3.7905,-3.7922,-3.7973,-3.7973,-3.7973,-3.8024,-3.8024,-3.8024,-3.8024,-3.87,-3.9056,-3.9056,-3.9774,-4.0096,-4.0096,-4.0096,-4.0096,-4.0096,-4.0096,-4.0096,-4.0096,-4.0096,-4.0096,-4.0096,-4.0096,-4.0096,-4.0096,-4.0096,-4.0096,-4.0096,0.0,0.0,0.0,0.0,0.0,0.0,0.0,0.0,0.0,0.0,0.0,0.0,0.0,-2.91,-2.9005,-2.9005,-2.9005,-2.9225,-2.9739,-2.9757,-3.0008,-3.0522,-3.054,-3.054,-3.054,-3.0815,-3.0962,0.0,0.0,-3.232,-3.2601,-3.3115,-3.3532,-3.3807,-3.3807,-3.3807,-3.3807,-3.3807,0.0,0.0,0.0,0.0,0.0,0.0,0.0,0.0,0.0,0.0,-3.3717,-3.3721,-3.438,-3.5236,-3.5528,-3.5243,-3.5001,-3.5918,0.0,0.0,0.0,0.0,0.0,0.0,0.0,0.0,0.0,0.0,0.0,-3.56,-3.56,-3.56,-3.56,-3.56,-3.56,-3.56,-3.56,-3.56,-3.56,-3.5859,-3.6028,-3.6028,-3.6265,-3.6411,-3.6411,-3.6411,-3.6411,-3.6411,-3.6411,-3.6654,-3.7161,-3.7178,-3.7398,-3.7889,-3.7905,-3.7905,-3.7905,-3.8159,-3.8294,-3.8311,-3.8565,-3.8937,-3.9402,-3.9402,-3.9656,-4.0096,-4.0096,-4.0096,-4.0096,-4.0096,-4.0096,-4.0096,-4.0096,-4.0096,-4.0096,-4.0096,-4.0096,-4.0096,0.0,0.0,0.0,0.0,0.0,0.0,0.0,0.0,0.0,-3.0021,0.0,0.0,0.0,0.0,-2.9616,-2.9787,-2.9812,-3.0026,-3.0577,-3.0595,-3.0834,-3.1378,-3.1397,-3.1397,-3.1397,-3.1397,0.0,0.0,0.0,0.0,0.0,-3.355,-3.3807,-3.3807,-3.3807,-3.3807,0.0,0.0,0.0,-3.3807,0.0,0.0,-3.4124,0.0,0.0,0.0,0.0,0.0,-3.404,-3.4075,-3.4721,-3.5636,-3.605,-3.637,-3.6564,-3.6559,0.0,0.0,-3.7791,0.0,0.0,0.0,0.0,0.0,0.0,0.0,0.0,-3.5644,-3.56,-3.56,-3.56,-3.56,-3.56,-3.56,-3.56,-3.56,-3.56,-3.56,-3.5667,-3.5849,-3.5876,-3.5876,-3.5876,-3.5876,-3.5788,-3.5622,-3.56,0.0,-3.6366,-3.64,-3.662,-3.7127,-3.7144,-3.7144,-3.7144,-3.7398,-3.7533,-3.7533,-3.7787,-3.8159,-3.8633,-3.8633,-3.9022,-3.974,-3.974,-3.9876,-4.0096,-4.0096,-4.0096,-4.0096,-4.0096,-4.0096,-4.0096,-4.0096,-4.0096,-4.0096,0.0,0.0,0.0,0.0,0.0,0.0,0.0,0.0,-3.0032,-3.0044,0.0,0.0,0.0,0.0,0.0,-3.1348,-3.1397,-3.1415,-3.1433,-3.1433,-3.1452,-3.147,-3.147,-3.147,-3.147,0.0,0.0,0.0,0.0,0.0,0.0,0.0,-3.3807,-3.3807,-3.3807,-3.3807,-3.3807,0.0,-3.3807,-3.3844,0.0,-3.4321,-3.4999,0.0,0.0,0.0,-3.4527,-3.4454,0.0,-3.3785,0.0,0.0,0.0,0.0,0.0,0.0,0.0,0.0,0.0,0.0,0.0,0.0,0.0,0.0,0.0,0.0,0.0,-3.5761,-3.5627,-3.5644,-3.5627,-3.5622,-3.56,-3.5622,-3.5622,-3.56,-3.56,-3.56,-3.5788,-3.6312,-3.6392,-3.6392,-3.6392,-3.6392,-3.6161,-3.5644,-3.56,-3.56,-3.56,-3.56,-3.56,-3.56,-3.56,-3.56,-3.56,-3.6366,-3.6761,-3.6778,-3.7483,-3.7855,-3.7872,-3.7872,-3.8278,-3.8954,-3.8954,-3.9402,-4.0079,-4.0096,-4.0096,-4.0096,-4.0096,-4.0096,-4.0096,-4.0096,-4.0096,-4.0096,0.0,0.0,0.0,0.0,0.0,0.0,-3.0404,-3.0349,-3.0445,0.0,0.0,0.0,-3.119,-3.1188,-3.1243,-3.1378,-3.1397,-3.1654,-3.2228,-3.2284,-3.254,-3.3109,-3.3128,-3.3128,-3.3128,-3.3128,-3.3256,-3.3476,-3.3476,-3.3587,-3.3807,-3.3807,-3.3807,0.0,-3.3807,-3.3807,-3.3807,-3.3807,0.0,-3.4674,-3.4674,-3.5169,0.0,0.0,0.0,0.0,0.0,-3.5367,-3.6177,0.0,-3.631,-3.6845,0.0,0.0,0.0,0.0,0.0,0.0,-3.8707,0.0,0.0,0.0,0.0,0.0,0.0,0.0,0.0,-3.6786,-3.644,-3.6291,-3.6704,-3.6122,-3.5717,-3.6118,-3.5854,-3.56,-3.56,-3.56,-3.5667,-3.5788,-3.581,-3.581,-3.581,-3.581,-3.5761,0.0,-3.56,-3.56,-3.56,-3.56,-3.56,-3.56,-3.56,-3.56,-3.56,-3.5802,-3.5943,-3.5943,-3.614,-3.6552,-3.7117,-3.7117,-3.7499,-3.821,-3.821,-3.8616,-3.9368,-3.9893,-4.0096,-4.0096,-4.0096,-4.0096,-4.0096,-4.0096,-4.0096,-4.0096,0.0,0.0,0.0,0.0,0.0,-3.0942,-3.0942,-3.1156,-3.1468,0.0,0.0,0.0,-3.2251,-3.2166,-3.2164,-3.237,-3.2394,-3.2596,-3.3073,-3.3096,-3.3311,-3.377,-3.3807,-3.3807,-3.3807,-3.3476,-3.3458,-3.3807,-3.3458,-3.3476,-3.3807,-3.3807,-3.3807,0.0,0.0,0.0,0.0,0.0,0.0,0.0,-3.5389,0.0,0.0,-3.6501,-3.6463,0.0,0.0,0.0,-3.6665,-3.688,-3.7377,0.0,0.0,0.0,0.0,0.0,0.0,0.0,0.0,0.0,0.0,0.0,0.0,0.0,-3.7946,-3.7685,-3.7433,0.0,-3.696,-3.6823,-3.7135,-3.6686,-3.6357,-3.6684,-3.646,-3.6186,-3.5963,-3.5941,-3.6028,-3.6249,-3.627,-3.6186,-3.5963,-3.5941,-3.5832,-3.5622,-3.56,-3.56,-3.56,-3.56,-3.56,-3.56,-3.56,-3.56,-3.56,-3.56,-3.56,-3.56,-3.56,-3.5859,-3.6299,-3.6299,-3.6721,-3.7432,-3.7432,-3.7855,-3.8599,-3.9351,-3.9825,-4.0096,-4.0096,-4.0096,-4.0096,-4.0096,-4.0096,-4.0096,0.0,0.0,-3.0673,-3.0673,-3.1327,-3.1833,-3.1833,-3.2285,-3.2721,0.0,-3.2727,-3.2693,-3.3146,-3.3159,-3.3308,-3.376,-3.3807,-3.3807,-3.3807,-3.3807,-3.3807,-3.3807,-3.3807,-3.3807,-3.3807,-3.3096,-3.3091,-3.3807,-3.3091,-3.3096,-3.3807,-3.3807,-3.3844,-3.3972,0.0,0.0,0.0,0.0,0.0,-3.5353,-3.6119,-3.6923,0.0,0.0,-3.7794,-3.798,-3.798,-3.7397,-3.6724,-3.7135,-3.7596,0.0,0.0,0.0,0.0,0.0,-3.8707,0.0,0.0,0.0,0.0,0.0,-3.8707,0.0,-3.8099,-3.798,-3.7877,0.0,-3.7322,-3.7303,-3.7359,-3.7284,-3.7228,-3.7267,-3.7229,-3.702,-3.656,-3.6498,-3.6681,-3.7135,-3.7209,-3.6999,-3.6457,-3.6395,-3.6182,-3.5644,-3.56,-3.56,-3.56,-3.56,-3.56,-3.56,-3.56,-3.56,-3.56,-3.56,-3.56,-3.56,-3.56,-3.56,-3.56,-3.56,-3.5994,-3.6677,-3.6677,-3.7077,-3.7838,-3.8481,-3.9249,-3.9994,-4.0079,-4.0096,-4.0096,-4.0096,-4.0096,-4.0096,0.0,0.0,-3.241,-3.241,-3.2545,-3.2679,-3.2679,-3.2769,-3.3109,-3.3853,-3.4286,-3.449,-3.4369,-3.4132,-3.3926,-3.3797,-3.3807,-3.3807,-3.3807,-3.3807,-3.3807,-3.3807,-3.3807,-3.3807,-3.3807,-3.3642,-3.3642,-3.3807,-3.3642,-3.3642,-3.3807,-3.3807,-3.4156,-3.4766,0.0,0.0,0.0,0.0,0.0,-3.7033,-3.7199,0.0,-3.8469,-3.8469,-3.8496,-3.8546,-3.8546,-3.8417,-3.8201,-3.7877,-3.8117,-3.8465,0.0,0.0,0.0,-3.8707,0.0,0.0,0.0,0.0,0.0,0.0,-3.8707,0.0,-3.8562,-3.8546,-3.853,0.0,-3.8048,-3.7894,-3.8334,-3.7756,-3.7323,-3.7702,-3.7451,-3.7154,-3.7076,-3.7039,-3.7078,-3.719,-3.7209,-3.6999,-3.6457,-3.6395,-3.6182,-3.5644,-3.56,-3.56,-3.56,-3.56,-3.56,-3.56,-3.56,-3.56,-3.56,-3.56,-3.56,-3.56,-3.56,-3.56,-3.56,-3.56,-3.5684,-3.5819,-3.5819,-3.6282,-3.7032,-3.7168,-3.8014,-3.9259,-3.9876,-4.0096,-4.0096,-4.0096,-4.0096,-4.0096,0.0,-3.2891,-3.2891,-3.2891,-3.3256,-3.3545,-3.3545,-3.393,-3.4353,-3.4795,-3.4879,-3.4793,-3.4478,-3.4189,-3.3948,-3.3802,-3.3807,-3.3807,-3.3807,-3.3807,-3.3807,-3.3807,-3.3807,-3.3807,-3.3807,-3.3807,-3.3807,-3.3807,-3.3807,-3.4009,-3.4399,-3.4399,-3.4839,-3.5665,0.0,0.0,0.0,0.0,-3.8102,-3.8102,-3.8102,0.0,-3.8707,-3.8707,-3.8707,-3.8707,-3.8707,-3.8707,-3.8627,-3.8082,-3.8267,0.0,-3.8382,-3.8481,-3.8707,0.0,-3.8707,-3.8707,0.0,0.0,0.0,-3.8707,-3.8707,0.0,0.0,-3.8707,-3.8707,-3.8707,-3.8481,-3.8382,-3.8643,-3.8285,-3.8033,-3.8267,-3.81,-3.7948,-3.7948,-3.772,-3.7542,-3.7542,-3.7542,-3.736,-3.6862,-3.6803,-3.6684,-3.6419,-3.6161,-3.6006,-3.6006,-3.5739,-3.56,-3.56,-3.56,-3.56,-3.56,-3.56,-3.56,-3.56,-3.56,-3.56,-3.56,-3.56,-3.56,-3.56,-3.56,-3.5842,-3.6231,-3.6643,-3.7252,-3.8014,-3.9131,-3.9554,-3.9605,-3.996,-4.0096,-4.0096,-3.341,0.0,-3.341,-3.341,-3.3987,-3.4449,-3.4449,-3.5045,-3.5486,-3.5432,-3.5053,-3.4624,-3.4235,-3.4006,-3.3868,-3.3802,-3.3807,-3.3862,-3.4027,-3.4027,-3.4027,-3.4027,-3.4192,-3.4192,-3.4027,-3.4192,-3.4284,-3.4284,-3.4284,-3.4614,-3.5261,-3.5261,-3.5701,0.0,0.0,0.0,0.0,0.0,0.0,-3.8707,0.0,-3.8707,-3.8707,-3.8707,-3.8707,-3.8707,-3.8707,-3.8707,-3.8627,-3.82,-3.835,-3.8707,-3.8707,-3.8707,0.0,0.0,0.0,0.0,0.0,0.0,0.0,0.0,0.0,-3.8707,0.0,0.0,0.0,-3.8707,-3.8707,-3.8707,0.0,-3.8707,0.0,0.0,0.0,0.0,0.0,-3.8225,0.0,-3.8047,-3.8047,-3.786,-3.7378,-3.7248,-3.7209,-3.7209,-3.6803,-3.6519,-3.6412,-3.6006,-3.5694,-3.56,-3.56,-3.56,-3.56,-3.56,-3.56,-3.56,-3.56,-3.56,-3.56,-3.56,-3.56,-3.56,-3.56,-3.56,-3.565,-3.6299,-3.6575,-3.6728,-3.8193,-3.887,-3.9056,-3.9673,-3.9977,-4.0096,-3.5192,-3.5192,0.0,-3.5192,-3.5288,-3.5346,-3.5346,-3.5442,-3.5405,-3.5182,-3.5096,-3.4832,-3.4258,-3.4164,-3.4068,-3.3815,-3.3807,-3.41,-3.4821,-3.4857,-3.4857,-3.4857,-3.5605,-3.5661,-3.4876,-3.5624,-3.6009,-3.6009,-3.6009,-3.6064,-3.6156,-3.6156,0.0,0.0,-3.7456,0.0,0.0,0.0,-3.8707,0.0,-3.8707,-3.8707,0.0,-3.8707,-3.8707,-3.8707,-3.8707,-3.8707,-3.8692,0.0,-3.8643,-3.8707,0.0,-3.8707,-3.8707,-3.8707,0.0,0.0,0.0,0.0,0.0,0.0,-3.8707,-3.8707,-3.8707,0.0,-3.8707,-3.8707,0.0,-3.8707,-3.8707,0.0,0.0,0.0,0.0,0.0,-3.7749,-3.82,-3.8611,-3.8611,-3.8611,-3.8399,-3.7877,-3.7451,-3.7209,-3.7209,-3.7135,-3.6902,-3.6416,-3.6333,-3.6097,-3.5622,-3.56,-3.56,-3.56,-3.56,-3.56,-3.56,-3.56,-3.56,-3.56,-3.56,-3.56,-3.56,-3.56,-3.56,-3.56,-3.5701,-3.5735,-3.5887,-3.7432,-3.843,-3.9005,-3.9089,-3.9554,-4.0096,-3.55,-3.55,0.0,-3.55,-3.55,-3.55,-3.55,-3.55,-3.5626,-3.5987,-3.5895,-3.5892,-3.6157,0.0,0.0,0.0,0.0,-3.5385,-3.5734,-3.5752,-3.5752,-3.5752,-3.6101,-3.6138,-3.5771,-3.6101,-3.6303,-3.6303,-3.6303,-3.6541,-3.6997,-3.6997,0.0,0.0,-3.8193,0.0,-3.8707,0.0,-3.8707,0.0,0.0,0.0,0.0,-3.8707,-3.8707,-3.8707,-3.8707,-3.8707,-3.8707,0.0,-3.8707,0.0,0.0,0.0,0.0,-3.8707,0.0,0.0,0.0,0.0,0.0,0.0,0.0,0.0,-3.8707,0.0,-3.8707,-3.8707,0.0,0.0,0.0,0.0,0.0,0.0,-3.8487,0.0,0.0,0.0,-3.8707,0.0,0.0,0.0,-3.8382,-3.8185,-3.8066,-3.8066,-3.7773,-3.7506,-3.7286,-3.7001,-3.6623,-3.6075,-3.6054,-3.592,-3.56,-3.56,-3.56,-3.56,-3.56,-3.56,-3.56,-3.56,-3.56,-3.56,-3.56,-3.56,-3.56,-3.56,-3.56,-3.5667,-3.6309,-3.7043,-3.7845,-3.8667,-3.9191,-3.9512,-3.6192,0.0,0.0,0.0,-3.55,-3.5577,-3.5808,-3.6019,-3.637,-3.6876,-3.678,0.0,-3.7299,-3.696,0.0,0.0,-3.6417,-3.6376,-3.6611,-3.6615,-3.6615,-3.6615,-3.6835,-3.6853,-3.6615,-3.6835,-3.6964,-3.6964,-3.6964,-3.7257,-3.7841,-3.7841,-3.8138,0.0,0.0,-3.8707,-3.8707,0.0,-3.8707,-3.8707,-3.8707,-3.8707,-3.8707,-3.8707,-3.8707,-3.8707,-3.8707,-3.8707,-3.8707,-3.8707,-3.8707,0.0,-3.8707,-3.8707,-3.8707,0.0,0.0,0.0,-3.8707,0.0,0.0,0.0,0.0,0.0,0.0,0.0,0.0,-3.8707,-3.8707,0.0,0.0,0.0,-3.8634,-3.8414,0.0,-3.8615,0.0,-3.856,0.0,0.0,0.0,0.0,0.0,-3.8707,-3.8707,-3.8707,-3.835,-3.8065,-3.7893,-3.7578,-3.7154,-3.6641,-3.6623,-3.6354,-3.581,-3.581,-3.5739,-3.56,-3.56,-3.56,-3.56,-3.56,-3.56,-3.56,-3.56,-3.56,-3.56,-3.56,-3.56,-3.56,-3.56,-3.596,-3.662,-3.7905,-3.8633,-3.9073,-3.7911,-3.6615,0.0,0.0,0.0,-3.5769,-3.6538,-3.7373,-3.7844,0.0,0.0,0.0,0.0,0.0,0.0,0.0,0.0,-3.6615,-3.7419,-3.7456,-3.7456,-3.7456,-3.8212,-3.8267,-3.7474,-3.8212,-3.8615,-3.8615,-3.8615,-3.8652,-3.867,-3.867,-3.8689,0.0,-3.8707,-3.8707,-3.8707,-3.8707,-3.8707,-3.8707,-3.8707,-3.8707,-3.8707,0.0,-3.8707,-3.8707,-3.8707,0.0,0.0,-3.8707,-3.8707,0.0,0.0,0.0,0.0,0.0,0.0,0.0,0.0,0.0,0.0,-3.8707,0.0,0.0,0.0,0.0,-3.8707,0.0,0.0,-3.8707,-3.8707,-3.8707,-3.845,-3.7676,0.0,0.0,0.0,0.0,0.0,0.0,0.0,0.0,0.0,-3.8707,-3.8707,-3.8707,-3.8673,-3.8449,-3.7929,-3.7894,-3.7667,-3.7173,-3.7173,-3.6921,-3.6374,-3.6374,-3.6118,-3.56,-3.56,-3.56,-3.56,-3.56,-3.56,-3.56,-3.56,-3.56,-3.56,-3.56,-3.56,-3.56,-3.56,-3.5616,-3.5735,-3.6552,-3.7753,-3.8988,0.0,0.0,0.0,0.0,0.0,0.0,0.0,-3.7815,0.0,0.0,-3.8531,0.0,0.0,-3.8539,-3.8239,0.0,0.0,-3.7991,-3.8267,-3.8285,-3.8285,-3.8285,-3.856,-3.8579,-3.8303,-3.856,-3.8707,-3.8707,-3.8707,-3.8707,0.0,0.0,0.0,0.0,0.0,-3.8707,0.0,0.0,0.0,0.0,0.0,-3.8707,-3.8707,0.0,-3.8707,-3.8707,-3.8707,-3.8707,0.0,-3.8707,-3.8707,-3.8707,-3.8707,-3.8707,-3.8707,-3.8707,-3.8707,-3.8707,0.0,0.0,-3.8707,-3.8707,0.0,0.0,0.0,0.0,0.0,0.0,0.0,-3.8707,-3.8707,-3.8707,-3.8615,-3.834,-3.8524,-3.8597,0.0,0.0,0.0,0.0,0.0,0.0,0.0,0.0,-3.8707,-3.8707,-3.8707,-3.8627,-3.8449,-3.8433,-3.8183,-3.7685,-3.7667,-3.7433,-3.6923,-3.658,-3.6291,-3.6118,-3.5783,-3.56,-3.56,-3.56,-3.56,-3.56,-3.56,-3.56,-3.56,-3.56,-3.56,-3.56,-3.56,-3.56,-3.5701,-3.6485,-3.7134,-3.7692,-3.8892,0.0,0.0,0.0,0.0,0.0,0.0,0.0,0.0,0.0,-3.9542,0.0,-3.9886,0.0,-3.9192,0.0,-3.8803,-3.8707,-3.8707,-3.8707,-3.8707,-3.8707,-3.8707,-3.8732,-3.8844,-3.8747,-3.875,-3.8844,-3.875,-3.8707,0.0,0.0,0.0,0.0,0.0,-3.8707,-3.8707,-3.8707,-3.8707,0.0,0.0,-3.8707,0.0,0.0,-3.8707,-3.8707,0.0,-3.8707,-3.8707,-3.8707,-3.8707,-3.8707,-3.8707,-3.8707,-3.8707,-3.8707,-3.8707,-3.8707,-3.8707,-3.8707,0.0,-3.8707,-3.8707,0.0,-3.8707,0.0,-3.8707,0.0,0.0,0.0,0.0,-3.8707,-3.8707,-3.8707,-3.8707,-3.8707,0.0,-3.8707,0.0,0.0,0.0,0.0,0.0,-3.8707,-3.8707,-3.8707,-3.8707,-3.8707,-3.8707,-3.8707,-3.8546,-3.82,-3.8183,-3.7947,-3.7451,-3.7116,-3.6845,-3.6684,-3.6139,-3.5876,-3.5876,-3.5689,-3.56,-3.56,-3.56,-3.56,-3.56,-3.56,-3.56,-3.56,-3.56,-3.56,-3.565,-3.618,-3.6535,-3.6981,-4.0496,0.0,0.0,0.0,-3.8815,0.0,0.0,0.0,-4.0496,0.0,-4.0489,-4.0257,-3.9668,-3.9587,-3.9339,-3.875,-3.8707,-3.8707,-3.8707,-3.8707,0.0,0.0,-3.8707,-3.8815,-3.9072,-3.8829,-3.8815,-3.9085,0.0,0.0,0.0,0.0,0.0,0.0,-3.8707,0.0,-3.8707,-3.8707,-3.8707,-3.8707,-3.8707,-3.8707,-3.8707,-3.8707,-3.8707,-3.8707,-3.8707,-3.8707,-3.8707,-3.8707,-3.8707,-3.8707,-3.8707,-3.8707,-3.8707,-3.8707,-3.8707,-3.8707,-3.8707,-3.8707,-3.8707,-3.8707,-3.8707,0.0,0.0,0.0,-3.8707,0.0,0.0,0.0,0.0,0.0,-3.8707,-3.8707,-3.8707,-3.8707,0.0,0.0,-3.8707,0.0,0.0,0.0,0.0,-3.8707,-3.8707,-3.8707,-3.8707,-3.8707,0.0,-3.8707,-3.8707,-3.8707,-3.8707,-3.8465,-3.7946,-3.7911,-3.7685,-3.7229,-3.6684,-3.6437,-3.6416,-3.592,-3.5672,-3.5672,-3.5672,-3.5672,-3.5672,-3.5672,-3.5672,-3.5672,-3.5672,-3.5672,-3.5672,-3.5622,-3.6101,-3.6892,-4.0496,-4.0496,-4.0362,0.0,-4.0035,-4.0189,0.0,0.0,0.0,0.0,-4.033,-4.0062,-3.9645,-3.9377,-3.9095,-3.8735,-3.8707,0.0,0.0,0.0,0.0,-3.8707,-3.8707,-3.8735,-3.8803,-3.8735,-3.8735,-3.8803,0.0,0.0,-3.8707,0.0,0.0,0.0,0.0,0.0,-3.8707,-3.8707,-3.8707,-3.8707,-3.8707,-3.8707,-3.8707,0.0,-3.8707,-3.8707,-3.8707,-3.8707,-3.8707,-3.8707,-3.8707,-3.8707,-3.8707,-3.8707,-3.8707,-3.8707,-3.8707,-3.8707,-3.8707,-3.8707,-3.8707,-3.8707,-3.8707,-3.8707,0.0,0.0,0.0,0.0,0.0,0.0,0.0,0.0,0.0,0.0,0.0,0.0,0.0,0.0,0.0,-3.8707,0.0,0.0,-3.8707,-3.8707,-3.8707,-3.8707,-3.8707,-3.8707,-3.8707,0.0,-3.8707,-3.8707,-3.8707,-3.8627,-3.8515,-3.8099,-3.7842,-3.772,-3.7229,-3.6981,-3.6999,-3.6845,-3.6786,-3.6786,-3.6786,-3.6786,-3.6786,-3.6786,-3.6786,-3.6786,-3.6786,-3.6786,-3.6686,-3.5881,-3.599,-3.6616,-4.0496,-4.0496,0.0,-4.0496,0.0,0.0,-4.0496,-4.0816,0.0,-4.1066,-4.1266,0.0,-4.0943,-4.0738,-4.0516,-4.0216,-4.0055,0.0,-3.9472,0.0,0.0,-3.8888,-3.8884,-3.8937,-3.9087,-3.8833,-3.8931,-3.9405,-3.9295,-3.9405,-3.9753,0.0,0.0,0.0,0.0,-3.9753,-3.9735,-3.9368,-3.9221,-3.9184,-3.8836,-3.8707,0.0,-3.8707,-3.8707,-3.8707,-3.8707,-3.8707,-3.8707,-3.8707,-3.8707,-3.8707,-3.8707,-3.8707,-3.8707,-3.8707,-3.8707,-3.8707,-3.8707,-3.8707,-3.8707,-3.8707,-3.8707,-3.8707,-3.8707,-3.8707,-3.8707,0.0,-3.8707,-3.8707,0.0,0.0,0.0,0.0,0.0,0.0,0.0,0.0,0.0,0.0,-3.8707,-3.8707,-3.8707,-3.8707,-3.8707,-3.8707,-3.8707,-3.8707,0.0,0.0,-3.8707,-3.8707,-3.8707,-3.8707,-3.8707,-3.8399,-3.8251,-3.8232,-3.7755,-3.7506,-3.7506,-3.7285,-3.7209,-3.7209,-3.7209,-3.7209,-3.7209,-3.7209,-3.7209,-3.7209,-3.7209,-3.7209,-3.7133,-3.6522,-3.6481,-3.6814,-4.0843,0.0,0.0,0.0,0.0,0.0,0.0,-4.1393,0.0,-4.1962,0.0,-4.297,-4.264,-4.2591,-4.2457,-4.2124,-4.1841,-4.1371,-4.0662,-4.0578,-4.0229,-3.9514,-3.9456,-3.9562,-3.9849,-3.9314,-3.9482,-4.0397,-4.0164,-4.0414,-4.1095,0.0,0.0,0.0,0.0,0.0,0.0,-4.0359,-4.0065,-3.9992,-3.9294,-3.9019,-3.9019,-3.9019,-3.8946,-3.8854,-3.8854,-3.8799,-3.8707,-3.8707,-3.8707,-3.8707,-3.8707,-3.8707,-3.8707,-3.8707,-3.8707,-3.8707,-3.8707,-3.8707,-3.8707,-3.8707,-3.8707,-3.8707,-3.8707,-3.8707,-3.8707,-3.8707,-3.8707,-3.8707,-3.8707,0.0,0.0,0.0,0.0,0.0,0.0,0.0,0.0,0.0,0.0,0.0,-3.8707,-3.8707,-3.8707,-3.8707,-3.8707,-3.8707,0.0,0.0,-3.8707,-3.8707,-3.8707,-3.8707,-3.8707,-3.8707,-3.8707,-3.8692,-3.8216,-3.7997,-3.798,-3.7596,-3.7396,-3.7396,-3.7396,-3.7396,-3.7396,-3.7396,-3.7396,-3.7396,-3.7396,-3.7396,-3.7396,-3.7396,-3.7396,-3.7396,-4.2643,0.0,0.0,0.0,0.0,-4.2643,-4.2643,-4.2162,-4.2058,-4.2777,-4.3008,-4.297,-4.264,-4.2591,-4.2457,-4.2124,-4.2039,0.0,0.0,0.0,0.0,-4.1581,-4.1303,-4.1185,-4.1254,-4.0886,-4.0761,-4.0969,-4.0924,-4.0948,-4.1095,-4.1095,0.0,0.0,0.0,0.0,-4.1095,-4.0948,0.0,-4.0875,-4.0728,-4.0673,-4.0673,-4.0673,-4.0267,-3.968,-3.968,-3.9258,-3.8707,-3.8707,-3.8707,-3.8707,-3.8707,-3.8707,-3.8707,-3.8707,-3.8707,-3.8707,-3.8707,-3.8707,-3.8707,-3.8707,-3.8707,-3.8707,-3.8707,-3.8707,-3.8707,-3.8707,-3.8707,-3.8707,-3.8707,0.0,0.0,0.0,0.0,0.0,0.0,0.0,0.0,0.0,0.0,-3.8707,-3.8707,-3.8707,-3.8707,-3.8707,-3.8707,-3.8707,0.0,0.0,-3.8707,0.0,-3.8707,-3.8707,0.0,0.0,-3.8707,-3.8707,-3.8593,-3.8562,-3.8562,-3.8465,-3.8433,-3.8433,-3.8433,-3.8433,-3.8433,-3.8433,-3.8433,-3.8433,-3.8433,-3.8433,-3.8433,-3.8433,-3.8433,-3.8366,-4.3104,0.0,0.0,0.0,0.0,0.0,0.0,-4.3374,-4.3258,-4.3662,-4.4124,-4.4339,-4.4173,-4.4164,-4.4097,-4.3939,-4.3759,-4.3491,-4.3065,-4.3005,-4.2803,-4.237,-4.2203,-4.2119,-4.2119,-4.1619,-4.157,-4.1995,-4.1813,-4.1937,-4.2341,-4.2341,0.0,0.0,0.0,-4.2341,0.0,0.0,0.0,-4.1682,-4.126,-4.1095,-4.1095,-4.1095,-4.0857,-4.0524,-4.0524,-4.0286,-3.9811,-3.8982,-3.8707,-3.8707,-3.8707,-3.8707,-3.8707,-3.8707,-3.8707,-3.8707,-3.8707,-3.8707,-3.8707,-3.8707,-3.8707,-3.8707,-3.8707,-3.8707,-3.8707,-3.8707,-3.8707,-3.8707,-3.8707,-3.8707,0.0,0.0,0.0,0.0,0.0,0.0,-3.8707,0.0,0.0,0.0,0.0,0.0,0.0,0.0,0.0,-3.8707,-3.8707,0.0,-3.8707,0.0,0.0,0.0,-3.8707,0.0,-3.8707,-3.8707,-3.8707,-3.8707,-3.8707,-3.8707,-3.8707,-3.8707,-3.8707,-3.8707,-3.8707,-3.8707,-3.8707,-3.8707,-3.8707,-3.8707,-3.8707,-3.8707,-3.8707,-3.8627,0.0,-4.3624,0.0,0.0,-4.3624,-4.3835,-4.447,-4.4586,-4.4586,-4.4586,-4.5171,-4.5594,-4.5594,-4.5594,-4.5594,-4.5594,-4.5352,-4.4935,-4.4306,-4.4199,-4.3912,-4.3263,-4.3175,-4.3134,-4.3134,-4.2459,-4.2425,-4.3062,-4.2719,-4.2782,-4.324,-4.3423,-4.3515,0.0,0.0,0.0,0.0,0.0,-4.2561,-4.2506,-4.1882,-4.1625,-4.1625,-4.1625,-4.1515,-4.1352,-4.1352,-4.1242,-4.0912,-3.9643,-3.9111,-3.8927,-3.8762,-3.8707,-3.8707,-3.8707,-3.8707,-3.8707,-3.8707,-3.8707,-3.8707,-3.8707,-3.8707,-3.8707,-3.8707,-3.8707,-3.8707,-3.8707,-3.8707,-3.8707,-3.8707,-3.8707,0.0,0.0,0.0,0.0,0.0,0.0,-3.8707,0.0,0.0,0.0,-3.8707,-3.8707,0.0,0.0,-3.8707,-3.8707,-3.8707,-3.8707,-3.8707,0.0,0.0,-3.8707,-3.8707,0.0,-3.8707,-3.8707,-3.8707,-3.8707,-3.8707,-3.8707,-3.8707,-3.8707,-3.8707,-3.8707,-3.8707,-3.8707,-3.8707,-3.8707,-3.8707,-3.8707,-3.8707,-3.8707,-3.8707,-3.8627,0.0,0.0,0.0,0.0,0.0,-4.5383,-4.5479,-4.5479,-4.5479,-4.5479,-4.5556,-4.5594,-4.5594,-4.5594,-4.5594,-4.5594,-4.5568,-4.5521,-4.5444,-4.5425,-4.5405,-4.5309,-4.5033,-4.4868,-4.4868,-4.4143,-4.3811,-4.3886,-4.3552,-4.3039,-4.2433,-4.3149,-4.3515,0.0,0.0,0.0,0.0,-4.3423,-4.3404,-4.3386,-4.3296,-4.3277,-4.3277,-4.3277,-4.2818,-4.2194,-4.2194,-4.1735,-4.1077,-4.093,-4.0396,-3.9662,-3.8927,-3.8707,-3.8707,-3.8707,-3.8707,-3.8707,-3.8707,-3.8707,-3.8707,-3.8707,-3.8707,-3.8707,-3.8707,-3.8707,-3.8707,-3.8707,-3.8707,-3.8707,-3.8707,-3.8707,-3.8707,0.0,0.0,0.0,0.0,0.0,-3.8707,-3.8707,0.0,0.0,-3.8707,-3.8707,0.0,0.0,-3.8707,-3.8707,-3.8707,-3.8707,-3.8707,-3.8707,-3.8707,-3.8707,-3.8707,-3.8707,-3.8707,-3.8707,-3.8707,-3.8707,-3.8707,-3.8707,-3.8707,-3.8707,-3.8707,-3.8707,-3.8707,-3.8707,-3.8707,-3.8707,-3.8707,-3.8707,-3.8707,-3.8707,-3.8707,-3.8627,0.0,0.0,0.0,0.0,0.0,0.0,0.0,-4.5594,-4.5594,-4.5594,-4.5594,-4.5594,-4.5594,-4.5594,-4.5594,-4.5594,-4.5594,-4.5594,-4.5594,-4.5594,-4.5594,-4.5594,-4.5476,-4.54,-4.54,-4.4713,-4.4455,-4.4663,-4.3884,-4.3448,-4.3323,-4.345,-4.3515,0.0,0.0,-4.3515,-4.3515,-4.3515,-4.3515,-4.3515,-4.3515,-4.3515,-4.3515,-4.3515,-4.3313,-4.302,-4.302,-4.28,-4.247,-4.1992,-4.1295,-4.0487,-3.9662,-3.9423,-3.9331,-3.8836,-3.8707,-3.8707,-3.8707,-3.8707,-3.8707,-3.8707,-3.8707,-3.8707,-3.8707,-3.8707,-3.8707,-3.8707,-3.8707,-3.8707,-3.8707,-3.8707,-3.8707,-3.8707,0.0,0.0,0.0,0.0,0.0,-3.8707,0.0,-3.8707,-3.8707,-3.8707,0.0,0.0,0.0,-3.8707,-3.8707,-3.8707,-3.8707,-3.8707,0.0,-3.8707,-3.8707,-3.8707,-3.8707,-3.8707,-3.8707,-3.8707,-3.8707,-3.8707,-3.8707,-3.8707,-3.8707,-3.8707,-3.8707,-3.8707,-3.8707,-3.8707,-3.8707,-3.8707,-3.8707,-3.8707,-3.8707,-3.8658,-4.5594,0.0,-4.5594,0.0,-4.5594,-4.5594,-4.5594,-4.5594,-4.5594,-4.5594,-4.5594,-4.5594,-4.5594,-4.5594,-4.5594,-4.5594,-4.5594,-4.5594,-4.5594,-4.5594,-4.5594,-4.5594,-4.5594,0.0,-4.5594,-4.5033,-4.4861,-4.5096,-4.4121,-4.3661,-4.3644,-4.3312,-4.3276,0.0,-4.3515,-4.3515,-4.3515,-4.3515,-4.3515,-4.3515,-4.3515,-4.3515,-4.3515,-4.3515,-4.3515,-4.3515,-4.3515,-4.3515,-4.3423,-4.2837,-4.2286,-4.1625,-4.0579,-4.0249,-4.0084,-3.9294,-3.9056,-3.9001,-3.8762,-3.8707,-3.8707,-3.8707,-3.8707,-3.8707,-3.8707,-3.8707,-3.8707,-3.8707,-3.8707,-3.8707,-3.8707,-3.8707,-3.8707,-3.8707,0.0,0.0,0.0,-3.8707,0.0,-3.8707,-3.8707,-3.8707,-3.8707,-3.8707,0.0,0.0,0.0,-3.8707,-3.8707,-3.8707,-3.8707,0.0,0.0,0.0,-3.8707,-3.8707,-3.8707,-3.8707,-3.8707,-3.8707,-3.8707,-3.8707,-3.8707,-3.8707,-3.8707,-3.8707,-3.8707,-3.8707,-3.8707,-3.8707,-3.8707,-3.8707,-3.8707,-3.8707,-3.8707,-3.8707,-4.5594,-4.5594,-4.5594,-4.5594,-4.5594,-4.5594,-4.5594,-4.5594,-4.5594,-4.5594,-4.5594,-4.5594,-4.5594,-4.5594,-4.5594,-4.5594,-4.5594,-4.5594,-4.5594,-4.5594,-4.5594,0.0,0.0,-4.5594,-4.5594,-4.5282,-4.5096,-4.5096,0.0,-4.3588,-4.2801,-4.2463,-4.2745,-4.3515,-4.3515,-4.3515,-4.3515,-4.3515,-4.3515,-4.3515,-4.3515,-4.3515,-4.3515,-4.3515,-4.3515,-4.3515,-4.3515,-4.3515,-4.3515,-4.3496,-4.3478,-4.3185,-4.1589,-4.1077,-4.093,-4.012,-3.9882,-3.9698,-3.8927,-3.8707,-3.8707,-3.8707,-3.8707,-3.8707,-3.8707,-3.8707,-3.8707,-3.8707,-3.8707,-3.8707,-3.8707,-3.8707,-3.8707,-3.8707,0.0,0.0,0.0,-3.8707,0.0,-3.8707,-3.8707,-3.8707,-3.8707,-3.8707,0.0,0.0,0.0,-3.8707,-3.8707,0.0,0.0,-3.8707,-3.8707,0.0,-3.8707,-3.8707,-3.8707,-3.8707,-3.8707,-3.8707,-3.8707,-3.8707,-3.8707,-3.8707,-3.8707,-3.8707,-3.8707,-3.8707,-3.8707,-3.8707,-3.8707,-3.8707,-3.8707,-3.8707,-3.8707,-3.8707,-4.5594,-4.5594,-4.5594,-4.5594,-4.5594,-4.5594,-4.5594,-4.5594,-4.5594,-4.5594,-4.5594,-4.5594,-4.5594,-4.5594,-4.5594,0.0,-4.5594,-4.5594,0.0,-4.5594,-4.5594,-4.5594,-4.5594,-4.5594,-4.5594,-4.5263,-4.5211,-4.5438,0.0,0.0,-4.3606,-4.3275,-4.324,-4.3515,-4.3515,-4.3515,-4.3515,-4.3515,-4.3515,-4.3515,-4.3515,-4.3515,-4.3515,-4.3515,-4.3515,-4.3515,-4.3515,-4.3515,-4.3515,-4.3515,-4.3515,-4.3423,-4.2892,-4.2359,-4.1772,-4.0948,-4.0322,-3.9827,-3.9588,-3.9129,-3.8707,-3.8707,-3.8707,-3.8707,-3.8707,-3.8707,-3.8707,-3.8707,-3.8707,-3.8707,-3.8707,-3.8707,-3.8707,-3.8707,-3.8707,0.0,-3.8707,0.0,-3.8707,-3.8707,-3.8707,-3.8707,-3.8707,-3.8707,0.0,0.0,0.0,0.0,0.0,0.0,0.0,0.0,-3.8707,0.0,-3.8707,-3.8707,-3.8707,-3.8707,-3.8707,-3.8707,-3.8707,-3.8707,-3.8707,-3.8707,-3.8707,-3.8707,-3.8707,-3.8707,-3.8707,-3.8707,-3.8707,-3.8707,-3.8707,-3.8707,-3.8707,-3.8707,-4.5594,-4.5594,-4.5594,-4.5594,-4.5594,-4.5594,-4.5594,-4.5594,-4.5594,-4.5594,-4.5594,-4.5594,-4.5594,-4.5594,0.0,-4.5594,-4.5594,-4.5594,-4.5594,-4.5594,-4.5594,-4.5594,-4.5594,-4.5594,-4.5594,-4.5381,0.0,-4.5594,-4.4931,-4.4474,-4.4204,-4.3744,-4.3563,-4.3677,-4.3565,-4.3515,-4.3515,-4.3515,-4.3515,-4.3515,-4.3515,-4.3515,-4.3515,-4.3515,-4.3515,-4.3515,-4.3515,-4.3515,-4.3515,-4.3515,-4.3515,-4.3515,-4.3515,-4.3149,-4.2598,-4.1791,-4.1185,-4.0671,-4.0047,-3.9533,-3.9074,-3.8781,-3.8707,-3.8707,-3.8707,-3.8707,-3.8707,-3.8707,-3.8707,-3.8707,-3.8707,-3.8707,-3.8707,-3.8707,-3.8707,-3.8707,-3.8707,-3.8707,-3.8707,-3.8707,-3.8707,-3.8707,-3.8707,-3.8707,-3.8707,0.0,0.0,0.0,0.0,0.0,-3.8707,-3.8707,-3.8707,-3.8707,-3.8707,-3.8707,-3.8707,-3.8707,-3.8707,-3.8707,-3.8707,-3.8707,-3.8707,-3.8707,-3.8707,-3.8707,-3.8707,-3.8707,-3.8707,-3.8707,-3.8707,-3.8707,-3.8707,-3.8707,-3.8707,-3.8707,-4.5594,-4.5594,-4.5594,-4.5594,-4.5594,-4.5594,-4.5594,-4.5594,-4.5594,-4.5594,-4.5594,-4.5594,-4.5594,-4.5594,-4.5594,-4.5594,0.0,0.0,-4.5594,-4.5594,-4.5594,-4.5594,-4.5594,-4.5594,-4.5594,-4.5594,-4.5594,-4.5594,-4.4954,-4.4631,-4.4618,-4.3899,-4.3726,-4.3986,-4.366,-4.3513,-4.3515,-4.3515,-4.3515,-4.3515,-4.3515,-4.3515,-4.3515,-4.3515,-4.3515,-4.3515,-4.3515,-4.3515,-4.3515,-4.3515,-4.3515,-4.3515,-4.3515,-4.3515,-4.3349,-4.2598,-4.2341,-4.1974,-4.0469,-3.9989,-3.9717,-3.8964,-3.8744,-3.8707,-3.8707,-3.8707,-3.8707,-3.8707,-3.8707,-3.8707,-3.8707,-3.8707,-3.8707,-3.8707,-3.8707,-3.8707,-3.8707,-3.8707,-3.8707,-3.8707,0.0,0.0,-3.8707,-3.8707,-3.8707,0.0,0.0,0.0,0.0,0.0,-3.8707,-3.8707,-3.8707,-3.8707,-3.8707,-3.8707,-3.8707,-3.8707,-3.8707,-3.8707,-3.8707,-3.8707,-3.8707,-3.8707,-3.8707,-3.8707,-3.8707,-3.8707,-3.8707,-3.8707,-3.8707,-3.8707,-3.8707,-3.8707,-3.8707,-3.8707,0.0,0.0,-4.5594,-4.5594,-4.5594,-4.5594,-4.5594,-4.5594,-4.5594,-4.5594,-4.5594,-4.5594,-4.5594,-4.5594,-4.5594,-4.5594,-4.5594,-4.5594,-4.5594,-4.5594,-4.5594,-4.5594,-4.5594,-4.5594,-4.5594,-4.5594,-4.5594,-4.5594,-4.5171,-4.4977,-4.4966,-4.454,-4.4223,-4.4001,-4.3927,-4.3742,-4.3515,-4.3515,-4.3515,-4.3515,-4.3515,-4.3515,-4.3515,-4.3515,-4.3515,-4.3515,-4.3515,-4.3515,-4.3515,-4.3515,-4.3515,-4.3515,-4.3515,-4.3515,-4.346,-4.3276,-4.2782,-4.2213,-4.1846,-4.0836,-3.9845,-3.9662,-3.9148,-3.8707,-3.8707,-3.8707,-3.8707,-3.8707,-3.8707,-3.8707,-3.8707,-3.8707,-3.8707,-3.8707,-3.8707,-3.8707,-3.8707,-3.8707,-3.8707,0.0,-3.8707,-3.8707,-3.8707,-3.8707,-3.8707,0.0,0.0,-3.8707,-3.8707,-3.8707,-3.8707,-3.8707,-3.8707,-3.8707,-3.8707,-3.8707,-3.8707,-3.8707,-3.8707,-3.8707,-3.8707,-3.8707,-3.8707,-3.8707,-3.8707,-3.8707,-3.8707,-3.8707,-3.8707,-3.8707,-3.8707,-3.8707,-3.8707,-3.8707,-3.8707,-3.8707,-4.5594,-4.5594,-4.5594,-4.5594,-4.5594,-4.5594,-4.5594,-4.5594,-4.5594,-4.5594,-4.5594,-4.5594,-4.5594,-4.5594,-4.5594,-4.5594,-4.5594,-4.5594,-4.5594,-4.5594,-4.5594,-4.5594,-4.5594,-4.5594,-4.5594,-4.5594,-4.5594,-4.5594,-4.5253,-4.518,-4.5322,-4.4837,-4.4487,-4.4261,-4.4073,-4.382,-4.3515,-4.3515,-4.3515,-4.3515,-4.3515,-4.3515,-4.3515,-4.3515,-4.3515,-4.3515,-4.3515,-4.3515,-4.3515,-4.3515,-4.3515,-4.3515,-4.3515,-4.3515,-4.3515,-4.3515,-4.3185,-4.2763,-4.2396,-4.1387,-4.0297,-3.9689,-3.9213,-3.8884,-3.8884,-3.8884,-3.8859,-3.8719,-3.8707,-3.8707,-3.8707,-3.8707,-3.8707,-3.8707,-3.8707,-3.8732,-3.8869,-3.8792,-3.875,-3.8869,-3.8758,-3.8707,-3.8707,-3.8707,-3.8707,-3.8707,-3.8707,0.0,-3.8707,-3.8707,-3.8707,-3.8707,-3.8707,-3.8707,-3.8707,-3.8707,-3.8707,-3.8707,-3.8707,-3.8707,-3.8707,-3.8707,-3.8707,-3.8707,-3.8707,-3.8707,-3.8707,-3.8707,-3.8707,-3.8707,-3.8707,-3.8707,-3.8707,-3.8707,-3.8707,-3.8707,-4.5594,-4.5594,-4.5594,-4.5594,-4.5594,-4.5594,-4.5594,-4.5594,-4.5594,-4.5594,-4.5594,-4.5594,-4.5594,-4.5594,-4.5594,-4.5594,-4.5594,-4.5594,-4.5594,-4.5594,-4.5594,-4.5594,-4.5594,-4.5594,-4.5594,-4.5594,-4.5594,-4.5594,-4.5322,-4.5322,-4.5586,-4.5011,-4.472,-4.4657,-4.4318,-4.3971,-4.3662,-4.3597,-4.358,-4.3563,-4.3513,-4.3515,-4.3515,-4.3515,-4.3515,-4.3515,-4.3515,-4.3515,-4.3515,-4.3515,-4.3515,-4.3515,-4.3515,-4.3531,-4.358,-4.358,-4.3614,-4.3498,-4.2752,-4.1903,-4.092,-3.9508,-3.9192,-3.9147,-3.9125,-3.9112,-3.9022,-3.8747,-3.8707,-3.8707,-3.8707,-3.8707,-3.8707,-3.8707,-3.8735,-3.8844,-3.9058,0.0,-3.8913,-3.9152,-3.8923,-3.8762,-3.8762,-3.8719,-3.8707,-3.8707,-3.8707,-3.8707,-3.8707,-3.8707,-3.8707,-3.8707,-3.8707,-3.8707,-3.8707,-3.8707,-3.8707,-3.8707,-3.8707,-3.8707,-3.8707,-3.8707,-3.8707,-3.8707,-3.8707,-3.8707,-3.8707,-3.8707,-3.8707,-3.8707,-3.8707,-3.8707,-3.8707,-3.8707,-3.8707,-3.8707,-4.5594,-4.5594,-4.5594,-4.5594,-4.5594,-4.5594,-4.5594,-4.5594,-4.5594,-4.5594,-4.5594,-4.5594,-4.5594,-4.5594,-4.5594,-4.5594,-4.5594,-4.5594,-4.5594,-4.5594,-4.5594,-4.5594,-4.5594,-4.5594,-4.5594,-4.5594,-4.5594,-4.5594,-4.5559,-4.5559,-4.5594,-4.5495,-4.5283,-4.503,-4.4954,-4.4745,-4.4406,-4.4076,-4.3924,-4.3912,-4.3595,-4.3515,-4.3515,-4.3515,-4.3515,-4.3515,-4.3515,-4.3515,-4.3515,-4.3515,-4.3515,-4.3515,-4.3515,-4.3693,-4.3924,-4.3924,-4.4165,-4.4332,-4.3867,-4.2861,-4.1543,-3.9931,-3.951,-3.9457,-3.916,-3.9112,-3.9022,-3.8747,-3.8707,-3.8707,-3.8707,-3.8707,-3.8707,-3.8707,-3.888,-3.9044,-3.9099,0.0,-3.9469,-3.9529,-3.9231,-3.9036,-3.9036,-3.8829,-3.8707,-3.8707,-3.8707,-3.8707,-3.8707,-3.8707,-3.8707,-3.8707,-3.8707,-3.8707,-3.8707,-3.8707,-3.8707,-3.8707,-3.8707,-3.8707,-3.8707,-3.8707,-3.8707,-3.8707,-3.8707,-3.8707,-3.8707,-3.8707,-3.8707,-3.8707,-3.8707,-3.8707,-3.8707,-3.8707,-3.8707,-3.8707,-4.5691,-4.5594,-4.5594,-4.5594,-4.5594,-4.5594,-4.5594,-4.5594,-4.5594,-4.5594,-4.5594,-4.5594,-4.5594,-4.5594,-4.5594,-4.5594,-4.5594,-4.5594,-4.5594,-4.5594,-4.5594,-4.5594,-4.5594,-4.5594,-4.5594,-4.5594,-4.5594,-4.5594,-4.5594,-4.5594,-4.5594,-4.5594,-4.5419,-4.5096,-4.5096,-4.4908,-4.458,-4.4387,-4.4318,-4.4276,-4.3912,-4.3915,-4.4065,-4.3852,-4.3896,-4.4095,-4.4095,-4.4095,-4.4095,-4.4095,-4.4095,-4.4095,-4.4095,-4.4194,-4.4318,-4.4318,-4.4441,-4.4365,-4.3257,-4.2547,-4.1748,-4.0236,-3.988,-3.9819,-3.9668,-3.9634,-3.9552,-3.9255,-3.9176,-3.9176,-3.9176,-3.9176,-3.9176,-3.9176,-3.9301,-3.9426,-3.9611,-3.9622,-3.9668,-3.9859,-3.9576,-3.9364,-3.9364,-3.909,-3.8923,-3.8923,-3.8773,-3.8707,-3.8707,-3.8707,-3.8707,-3.8707,-3.8707,-3.8707,-3.8707,-3.8707,-3.8707,-3.8707,-3.8707,-3.8707,-3.8707,-3.8707,-3.8707,-3.8707,-3.8707,-3.8707,-3.8707,-3.8707,-3.8707,-3.8707,-3.8707,-3.8707,-3.8707,-3.8707,-3.8707,-3.8707,-4.6028,-4.5748,-4.5594,-4.5594,-4.5594,-4.5594,-4.5594,-4.5594,-4.5594,-4.5594,-4.5594,-4.5594,-4.5594,-4.5594,-4.5594,-4.5594,-4.5594,-4.5594,-4.5594,-4.5594,-4.5594,-4.5594,-4.5594,-4.5594,-4.5594,-4.5594,-4.5594,-4.5594,-4.5594,-4.5594,-4.5594,-4.5594,-4.5457,-4.5211,-4.5211,-4.5074,-4.4837,-4.4745,-4.4726,-4.4682,-4.429,-4.4318,-4.4567,-4.4247,-4.4318,-4.4593,-4.4593,-4.4593,-4.4593,-4.4593,-4.4593,-4.4593,-4.4593,-4.4644,-4.4726,-4.4726,-4.4624,-4.4199,-4.2619,-4.2113,-4.1732,-4.0502,-4.0186,-4.0177,-4.011,-4.0101,-4.0002,-3.9668,-3.9599,-3.9599,-3.9599,-3.9599,-3.9599,-3.9599,0.0,-3.9808,-4.0052,-3.9924,-3.9913,-4.0167,-3.9903,-3.9731,-3.9731,-3.9401,-3.9212,-3.9212,-3.8952,-3.8788,-3.8788,-3.8735,-3.8707,-3.8707,-3.8707,-3.8707,-3.8707,-3.8707,-3.8707,-3.8707,-3.8707,-3.8707,-3.8707,-3.8707,-3.8707,-3.8707,-3.8707,-3.8707,-3.8707,-3.8707,-3.8707,-3.8707,-3.8707,-3.8707,-3.8707,-3.8707,-3.8707,-3.8707,-4.6817,-4.6144,-4.5594,-4.5594,-4.5594,-4.5594,-4.5594,-4.5594,-4.5594,-4.5594,-4.5594,-4.5594,-4.5594,-4.5594,-4.5594,-4.5594,-4.5594,-4.5594,-4.5594,-4.5594,-4.5594,-4.5594,-4.5594,-4.5594,-4.5594,-4.5594,-4.5594,-4.5594,-4.5594,-4.5594,-4.5594,-4.5594,-4.5586,-4.5568,-4.5568,-4.5559,-4.5504,-4.5182,-4.5063,-4.5041,-4.4695,-4.4567,-4.4612,-4.4567,-4.4567,-4.4593,-4.4593,-4.4593,-4.4593,-4.4593,-4.4593,-4.4593,-4.4593,-4.4806,-4.5063,-4.5063,-4.4718,-4.4047,-4.282,-4.2145,-4.1594,-4.0696,-4.0473,-4.0417,-4.0158,-4.0101,-4.0002,-3.9668,-3.9599,-3.9599,-3.9599,-3.9599,-3.9599,-3.9599,0.0,0.0,-4.0101,-4.0285,-4.0438,-4.0473,-4.0232,-4.0052,-4.0052,-3.9765,-3.9564,-3.9564,-3.9269,-3.9072,-3.9072,-3.8829,-3.8707,-3.8707,-3.8707,-3.8707,-3.8707,-3.8707,-3.8707,-3.8707,-3.8707,-3.8707,-3.8707,-3.8707,-3.8707,-3.8707,-3.8707,-3.8707,-3.8707,-3.8707,-3.8707,-3.8707,-3.8707,-3.8707,-3.8707,-3.8707,-3.8707,-3.8707,-4.7,-4.6201,-4.5594,-4.5594,-4.5594,-4.5594,-4.5594,-4.5594,-4.5594,-4.5594,-4.5594,-4.5594,-4.5594,-4.5594,-4.5594,-4.5594,-4.5594,-4.5594,-4.5594,-4.5594,-4.5594,-4.5594,-4.5594,-4.5594,-4.5594,-4.5594,-4.5594,-4.5594,-4.5594,-4.5594,-4.5594,-4.5594,-4.5594,-4.5594,-4.5594,-4.5594,-4.5586,-4.5457,-4.541,-4.5371,-4.5052,-4.5022,-4.5211,-4.4988,-4.5052,-4.5232,-4.5232,-4.5232,-4.5232,-4.5232,-4.5232,-4.5232,-4.5232,-4.5312,-4.541,-4.541,-4.4534,-4.3453,-4.2992,-4.2345,-4.1585,-4.0727,-4.0496,-4.0473,-4.0372,-4.0347,-4.0302,-4.0175,-4.0157,-4.0157,-4.0157,-4.0157,-4.0157,-4.0157,0.0,-4.0347,-4.0347,-4.0441,-4.0496,-4.0496,-4.0406,-4.0347,-4.0347,-4.0091,-3.9912,-3.9912,-3.9599,-3.9401,-3.9401,-3.9314,-3.9268,-3.9268,-3.9073,-3.8869,-3.8707,-3.8707,-3.8707,-3.8707,-3.8707,-3.8707,-3.8707,-3.8707,-3.8707,-3.8707,-3.8707,-3.8707,-3.8707,-3.8707,-3.8707,-3.8707,-3.8707,-3.8707,-3.8707,-3.8707,-3.8707,-3.8707,-4.7394,-4.6374,-4.5594,-4.5594,-4.5594,-4.5594,-4.5594,-4.5594,-4.5594,-4.5594,-4.5594,-4.5594,-4.5594,-4.5594,-4.5594,-4.5594,-4.5594,-4.5594,-4.5594,-4.5594,-4.5594,-4.5594,-4.5594,-4.5594,-4.5594,-4.5594,-4.5594,-4.5594,-4.5594,-4.5594,-4.5594,-4.5594,-4.5594,-4.5594,-4.5594,-4.5594,-4.5594,-4.5594,-4.5594,-4.5577,-4.5342,-4.5381,-4.5577,-4.5342,-4.54,-4.5594,-4.5594,-4.5594,-4.5594,-4.5594,-4.5594,-4.5594,-4.5594,-4.5594,-4.5556,-4.5267,-4.4201,-4.3047,-4.2777,-4.2066,-4.1258,-4.065,-4.0496,-4.0496,-4.0496,-4.0496,-4.0496,-4.0496,-4.0496,-4.0496,-4.0496,-4.0496,-4.0496,-4.0496,-4.0496,-4.0496,-4.0496,-4.0496,-4.0496,-4.0496,-4.0496,-4.0496,-4.0496,-4.0339,-4.0242,-4.0242,-3.9924,-3.9701,-3.9611,-3.9599,-3.9599,-3.9599,-3.9377,-3.9171,-3.8984,-3.8792,-3.8707,-3.8707,-3.8707,-3.8707,-3.8707,-3.8707,-3.8707,-3.8707,-3.8707,-3.8707,-3.8707,-3.8707,-3.8707,-3.8707,-3.8707,-3.8707,-3.8707,-3.8707,-3.8707,-3.8707,-4.8105,-4.6759,-4.5614,-4.5594,-4.5594,-4.5594,-4.5594,-4.5594,-4.5594,-4.5594,-4.5594,-4.5594,-4.5594,-4.5594,-4.5594,-4.5594,-4.5594,-4.5594,-4.5594,-4.5594,-4.5594,-4.5594,-4.5594,-4.5594,-4.5594,-4.5594,-4.5594,-4.5594,-4.5594,-4.5594,-4.5594,-4.5594,-4.5594,-4.5594,-4.5594,-4.5594,-4.5594,-4.5594,-4.5594,-4.5594,-4.5594,-4.5594,-4.5594,-4.5594,-4.5594,-4.5594,-4.5594,-4.5594,-4.5594,-4.5594,-4.5594,-4.5594,-4.5594,-4.5594,-4.5441,-4.4566,-4.372,-4.2912,-4.2047,-4.1162,-4.0496,-4.0496,-4.0496,-4.0496,-4.0496,-4.0496,-4.0496,-4.0496,-4.0496,-4.0496,-4.0496,-4.0496,-4.0496,-4.0496,-4.0496,-4.0496,-4.0496,-4.0496,-4.0496,-4.0496,-4.0496,-4.0496,-4.0496,-4.0496,-4.0496,-4.0496,-4.025,-3.9972,-3.9622,-3.9611,-3.9611,-3.9611,-3.9611,-3.9599,-3.9599,-3.9013,-3.8707,-3.8707,-3.8707,-3.8707,-3.8707,-3.8707,-3.8707,-3.8707,-3.8707,-3.8707,-3.8707,-3.8707,-3.8707,-3.8707,-3.8707,-3.8707,-3.8707,-3.8707,-3.8707,-3.8707,-4.8221,-4.724,-4.6317,-4.571,-4.5594,-4.5594,-4.5594,-4.5594,-4.5594,-4.5594,-4.5594,-4.5594,-4.5594,-4.5594,-4.5594,-4.5594,-4.5594,-4.5594,-4.5594,-4.5594,-4.5594,-4.5594,-4.5594,-4.5594,-4.5594,-4.5594,-4.5594,-4.5594,-4.5594,-4.5594,-4.5594,-4.5594,-4.5594,-4.5594,-4.5594,-4.5594,-4.5594,-4.5594,-4.5594,-4.5594,-4.5594,-4.5594,-4.5594,-4.5594,-4.5594,-4.5594,-4.5594,-4.5594,-4.5594,-4.5594,-4.5594,-4.5594,-4.5594,-4.5594,-4.5441,-4.4566,-4.372,-4.2912,-4.2047,-4.1162,-4.0496,-4.0496,-4.0496,-4.0496,-4.0496,-4.0496,-4.0496,-4.0496,-4.0496,-4.0496,-4.0496,-4.0496,-4.0496,-4.0496,-4.0496,-4.0496,-4.0496,-4.0496,-4.0496,-4.0496,-4.0496,-4.0496,-4.0496,-4.0496,-4.0496,-4.0496,-4.0433,-4.0347,-4.0239,-4.0239,-4.0239,-4.0239,-4.0043,-3.9943,-3.9943,-3.9548,-3.9327,-3.9327,-3.9077,-3.8971,-3.8971,-3.8788,-3.8707,-3.8707,-3.8707,-3.8707,-3.8707,-3.8707,-3.8707,-3.8707,-3.8707,-3.8707,-3.8707,-3.8707,-3.8707,-3.8781,-4.8279,-4.7451,-4.6624,-4.5748,-4.5594,-4.5594,-4.5594,-4.5594,-4.5594,-4.5594,-4.5594,-4.5594,-4.5594,-4.5594,-4.5594,-4.5594,-4.5594,-4.5594,-4.5594,-4.5594,-4.5594,-4.5594,-4.5594,-4.5594,-4.5594,-4.5594,-4.5594,-4.5594,-4.5594,-4.5594,-4.5594,-4.5594,-4.5594,-4.5594,-4.5594,-4.5594,-4.5594,-4.5594,-4.5594,-4.5594,-4.5594,-4.5594,-4.5594,-4.5594,-4.5594,-4.5594,-4.5594,-4.5594,-4.5594,-4.5594,-4.5594,-4.5594,-4.5594,-4.5594,-4.5441,-4.4566,-4.372,-4.2912,-4.2047,-4.1162,-4.0496,-4.0496,-4.0496,-4.0496,-4.0496,-4.0496,-4.0496,-4.0496,-4.0496,-4.0496,-4.0496,-4.0496,-4.0496,-4.0496,-4.0496,-4.0496,-4.0496,-4.0496,-4.0496,-4.0496,-4.0496,-4.0496,-4.0496,-4.0496,-4.0496,-4.0496,-4.0496,-4.0496,-4.0496,-4.0496,-4.0496,-4.0496,-4.0347,-4.0269,-4.0269,-4.0062,-3.9759,-3.9389,-3.9205,-3.9049,-3.8952,-3.8777,-3.8707,-3.8707,-3.8707,-3.8707,-3.8707,-3.8707,-3.8707,-3.8707,-3.8707,-3.8707,-3.8744,-3.9056,-3.9166,-3.9294,-4.8298,-4.7509,-4.6721,-4.5768,-4.5594,-4.5594,-4.5594,-4.5594,-4.5594,-4.5594,-4.5594,-4.5594,-4.5594,-4.5594,-4.5594,-4.5594,-4.5594,-4.5594,-4.5594,-4.5594,-4.5594,-4.5594,-4.5594,-4.5594,-4.5594,-4.5594,-4.5594,-4.5594,-4.5594,-4.5594,-4.5594,-4.5594,-4.5594,-4.5594,-4.5594,-4.5594,-4.5594,-4.5594,-4.5594,-4.5594,-4.5594,-4.5594,-4.5594,-4.5594,-4.5594,-4.5594,-4.5594,-4.5594,-4.5594,-4.5594,-4.5594,-4.5594,-4.5594,-4.5594,-4.5441,-4.4566,-4.3778,-4.3028,-4.2162,-4.1277,-4.0631,-4.0631,-4.0554,-4.0496,-4.0496,-4.0496,-4.0496,-4.0496,-4.0496,-4.0496,-4.0496,-4.0496,-4.0496,-4.0496,-4.0496,-4.0496,-4.0496,-4.0496,-4.0496,-4.0496,-4.0496,-4.0496,-4.0496,-4.0496,-4.0496,-4.0496,-4.0496,-4.0496,-4.0496,-4.0496,-4.0496,-4.0496,-4.0496,-4.0496,-4.0496,-4.0496,-4.0063,-3.9225,-3.916,-3.9013,-3.8777,-3.8719,-3.8707,-3.8707,-3.8707,-3.8707,-3.8707,-3.8707,-3.8707,-3.8707,-3.8781,-3.8817,-3.8909,-3.9698,-4.001,-4.012,-4.8413,-4.7971,-4.7375,-4.5864,-4.5594,-4.5594,-4.5594,-4.5594,-4.5594,-4.5594,-4.5594,-4.5594,-4.5594,-4.5594,-4.5594,-4.5594,-4.5594,-4.5594,-4.5594,-4.5594,-4.5594,-4.5594,-4.5594,-4.5594,-4.5594,-4.5594,-4.5594,-4.5594,-4.5594,-4.5594,-4.5594,-4.5594,-4.5594,-4.5594,-4.5594,-4.5594,-4.5594,-4.5594,-4.5594,-4.5594,-4.5594,-4.5594,-4.5594,-4.5594,-4.5594,-4.5594,-4.5594,-4.5594,-4.5594,-4.5594,-4.5594,-4.5594,-4.5594,-4.5594,-4.5441,-4.4566,-4.4182,-4.3855,-4.3047,-4.2181,-4.1527,-4.1527,-4.0989,-4.0496,-4.0496,-4.0496,-4.0496,-4.0496,-4.0496,-4.0496,-4.0496,-4.0496,-4.0496,-4.0496,-4.0496,-4.0496,-4.0496,-4.0496,-4.0496,-4.0496,-4.0496,-4.0496,-4.0496,-4.0496,-4.0496,-4.0496,-4.0496,-4.0496,-4.0496,-4.0496,-4.0496,-4.0496,-4.0496,-4.0496,-4.0496,-4.0496,-4.0406,-4.0193,-3.9716,-3.9457,-3.9389,-3.8917,-3.8707,-3.8707,-3.8707,-3.8707,-3.8707,-3.8707,-3.8707,-3.8762,-3.9386,-3.9643,-3.9735,-4.0543,-4.0838,-4.0948,-4.8971,-4.8394,-4.7702,-4.6432,-4.5883,-4.5594,-4.5594,-4.5594,-4.5594,-4.5594,-4.5594,-4.5594,-4.5594,-4.5594,-4.5594,-4.5594,-4.5594,-4.5594,-4.5594,-4.5594,-4.5594,-4.5594,-4.5594,-4.5594,-4.5594,-4.5594,-4.5594,-4.5594,-4.5594,-4.5594,-4.5594,-4.5594,-4.5594,-4.5594,-4.5594,-4.5594,-4.5594,-4.5594,-4.5594,-4.5594,-4.5594,-4.5594,-4.5594,-4.5594,-4.5594,-4.5594,-4.5594,-4.5594,-4.5594,-4.5594,-4.5594,-4.5594,-4.5594,-4.5594,-4.5518,-4.5056,-4.4624,-4.4201,-4.3797,-4.3066,-4.2431,-4.2431,-4.1758,-4.1008,-4.0593,-4.0496,-4.0496,-4.0496,-4.0496,-4.0496,-4.0496,-4.0496,-4.0496,-4.0496,-4.0496,-4.0496,-4.0496,-4.0496,-4.0496,-4.0496,-4.0496,-4.0496,-4.0496,-4.0496,-4.0496,-4.0496,-4.0496,-4.0496,-4.0496,-4.0496,-4.0496,-4.0496,-4.0496,-4.0496,-4.0496,-4.0496,-4.0496,-4.0489,-3.9884,-3.9529,-3.9358,-3.8902,-3.8707,-3.8707,-3.8707,-3.8707,-3.8741,-3.9283,-3.9519,-3.9608,-4.057,-4.0957,-4.105,-4.1855,-4.24,-4.2828,-4.9567,-4.8702,-4.7855,-4.7038,-4.6182,-4.5594,-4.5594,-4.5594,-4.5594,-4.5594,-4.5594,-4.5594,-4.5594,-4.5594,-4.5594,-4.5594,-4.5594,-4.5594,-4.5594,-4.5594,-4.5594,-4.5594,-4.5594,-4.5594,-4.5594,-4.5594,-4.5594,-4.5594,-4.5594,-4.5594,-4.5594,-4.5594,-4.5594,-4.5594,-4.5594,-4.5594,-4.5594,-4.5594,-4.5594,-4.5594,-4.5594,-4.5594,-4.5594,-4.5594,-4.5594,-4.5594,-4.5594,-4.5594,-4.5594,-4.5594,-4.5594,-4.5594,-4.5594,-4.5594,-4.5594,-4.5594,-4.5094,-4.4509,-4.4509,-4.3932,-4.3316,-4.3316,-4.2662,-4.1835,-4.1112,-4.0708,-4.0496,-4.0496,-4.0496,-4.0496,-4.0496,-4.0496,-4.0496,-4.0496,-4.0496,-4.0496,-4.0496,-4.0496,-4.0496,-4.0496,-4.0496,-4.0496,-4.0496,-4.0496,-4.0496,-4.0496,-4.0496,-4.0496,-4.0496,-4.0496,-4.0496,-4.0496,-4.0496,-4.0496,-4.0496,-4.0496,-4.0496,-4.0489,-3.9954,-3.9552,-3.9251,-3.898,-3.8848,-3.8848,-3.901,-3.9084,-3.915,-4.0235,-4.0689,-4.079,-4.1877,-4.2296,-4.239,-4.3209,-4.4008,-4.4688,-4.9567,-4.8702,-4.7855,-4.7038,-4.6182,-4.5594,-4.5594,-4.5594,-4.5594,-4.5594,-4.5594,-4.5594,-4.5594,-4.5594,-4.5594,-4.5594,-4.5594,-4.5594,-4.5594,-4.5594,-4.5594,-4.5594,-4.5594,-4.5594,-4.5594,-4.5594,-4.5594,-4.5594,-4.5594,-4.5594,-4.5594,-4.5594,-4.5594,-4.5594,-4.5594,-4.5594,-4.5594,-4.5594,-4.5594,-4.5594,-4.5594,-4.5594,-4.5594,-4.5594,-4.5594,-4.5594,-4.5594,-4.5594,-4.5594,-4.5594,-4.5594,-4.5594,-4.5594,-4.5594,-4.5594,-4.5594,-4.5518,-4.5421,-4.5421,-4.4778,-4.4143,-4.4143,-4.3528,-4.2893,-4.2777,-4.1593,-4.0496,-4.0496,-4.0496,-4.0496,-4.0496,-4.0496,-4.0496,-4.0496,-4.0496,-4.0496,-4.0496,-4.0496,-4.0496,-4.0496,-4.0496,-4.0496,-4.0496,-4.0496,-4.0496,-4.0496,-4.0496,-4.0496,-4.0496,-4.0496,-4.0496,-4.0496,-4.0496,-4.0496,-4.0496,-4.0496,-4.0496,-4.0496,-4.0186,-4.0012,-3.9943,-3.963,-3.9469,-3.9507,-4.0283,-4.0597,-4.0684,-4.1524,-4.1857,-4.1964,-4.28,-4.3133,-4.3246,-4.4102,-4.4674,-4.4988,-5.0212,-4.9413,-4.8567,-4.7721,-4.6874,-4.6163,-4.5671,-4.5594,-4.5594,-4.5594,-4.5594,-4.5594,-4.5594,-4.5594,-4.5594,-4.5594,-4.5594,-4.5594,-4.5594,-4.5594,-4.5594,-4.5594,-4.5594,-4.5594,-4.5594,-4.5594,-4.5594,-4.5594,-4.5594,-4.5594,-4.5594,-4.5594,-4.5594,-4.5594,-4.5594,-4.5594,-4.5594,-4.5594,-4.5594,-4.5594,-4.5594,-4.5594,-4.5594,-4.5594,-4.5594,-4.5594,-4.5594,-4.5594,-4.5594,-4.5594,-4.5594,-4.5594,-4.5594,-4.5594,-4.5594,-4.5594,-4.5594,-4.5594,-4.5594,-4.5325,-4.5037,-4.5037,-4.4393,-4.3778,-4.3778,-4.2835,-4.1816,-4.1335,-4.0843,-4.0496,-4.0496,-4.0496,-4.0496,-4.0496,-4.0496,-4.0496,-4.0496,-4.0496,-4.0496,-4.0496,-4.0496,-4.0496,-4.0496,-4.0496,-4.0496,-4.0496,-4.0496,-4.0496,-4.0496,-4.0496,-4.0496,-4.0496,-4.0496,-4.0496,-4.0496,-4.0496,-4.0496,-4.0496,-4.0871,-4.071,-4.011,-4.0257,-4.0321,-4.0377,-4.1201,-4.156,-4.1659,-4.2667,-4.3106,-4.3194,-4.4202,-4.4579,-4.4637,-4.5027,-4.5253,-4.5352]},{"header":{"parameterUnit":"m.s-1","parameterCategory":1,"la1":30.6,"la2":28.766,"lo1":-90.7593,"lo2":-88.6598,"dy":0.0162,"dx":0.0183,"nx":116,"ny":114,"refTime":"2023-06-05T18:00:00:Z","depth":0,"parameterNumber":3,"parameterNumberName":"V-component_of_WINDS"},"data":[0.0,0.0,0.0,0.0,0.0,0.0,0.0,0.0,0.0,0.0,0.0,0.0,0.0,0.0,0.0,0.0,0.0,0.0,0.0,0.0,0.0,0.0,0.0,0.0,0.0,0.0,0.0,0.0,0.0,0.0,0.0,0.0,0.0,0.0,0.0,0.0,0.0,0.0,0.0,0.0,0.0,0.0,0.0,0.0,0.0,0.0,0.0,0.0,0.0,0.0,0.0,0.0,0.0,0.0,0.0,0.0,0.0,0.0,0.0,0.0,0.0,0.0,0.0,0.0,0.0,0.0,0.0,0.0,0.0,0.0,0.0,0.0,0.0,0.0,0.0,0.0,0.0,0.0,0.0,0.0,0.0,0.0,0.0,0.0,0.0,0.0,0.0,0.0,0.0,0.0,0.0,0.0,0.0,0.0,0.0,0.0,0.0,0.0,0.0,0.0,0.0,0.0,0.0,0.0,0.0,0.0,0.0,0.0,0.0,0.0,0.0,0.0,0.0,0.0,0.0,0.0,0.0,0.0,0.0,0.0,0.0,0.0,0.0,0.0,0.0,0.0,0.0,0.0,0.0,0.0,0.0,0.0,0.0,0.0,0.0,0.0,0.0,0.0,0.0,0.0,0.0,0.0,0.0,0.0,0.0,0.0,0.0,0.0,0.0,0.0,0.0,0.0,0.0,0.0,0.0,0.0,0.0,0.0,0.0,0.0,0.0,0.0,0.0,0.0,0.0,0.0,0.0,0.0,0.0,0.0,0.0,0.0,0.0,0.0,0.0,0.0,0.0,0.0,0.0,0.0,0.0,0.0,0.0,0.0,0.0,0.0,0.0,0.0,0.0,0.0,0.0,0.0,0.0,0.0,0.0,0.0,0.0,0.0,0.0,0.0,0.0,0.0,0.0,0.0,0.0,0.0,0.0,0.0,0.0,0.0,0.0,0.0,0.0,0.0,0.0,0.0,0.0,0.0,0.0,0.0,0.0,0.0,0.0,0.0,0.0,0.0,0.0,0.0,0.0,0.0,0.0,0.0,0.0,0.0,0.0,0.0,0.0,0.0,0.0,0.0,0.0,0.0,0.0,0.0,0.0,0.0,0.0,0.0,0.0,0.0,0.0,0.0,0.0,0.0,0.0,0.0,0.0,0.0,0.0,0.0,0.0,0.0,0.0,0.0,0.0,0.0,0.0,0.0,0.0,0.0,0.0,0.0,0.0,0.0,0.0,0.0,0.0,0.0,0.0,0.0,0.0,0.0,0.0,0.0,0.0,0.0,0.0,0.0,0.0,0.0,0.0,0.0,0.0,0.0,0.0,0.0,0.0,0.0,0.0,0.0,0.0,0.0,0.0,0.0,0.0,0.0,0.0,0.0,0.0,0.0,0.0,0.0,0.0,0.0,0.0,0.0,0.0,0.0,0.0,0.0,0.0,0.0,0.0,0.0,0.0,0.0,0.0,0.0,0.0,0.0,0.0,0.0,0.0,0.0,0.0,0.0,0.0,0.0,0.0,0.0,0.0,0.0,0.0,0.0,0.0,0.0,0.0,0.0,0.0,0.0,0.0,0.0,0.0,0.0,0.0,0.0,0.0,0.0,0.0,0.0,0.0,0.0,0.0,0.0,0.0,0.0,0.0,0.0,0.0,0.0,0.0,0.0,0.0,0.0,0.0,0.0,0.0,0.0,0.0,0.0,0.0,0.0,0.0,0.0,0.0,0.0,0.0,0.0,0.0,0.0,0.0,0.0,0.0,0.0,0.0,0.0,0.0,0.0,0.0,0.0,0.0,0.0,0.0,0.0,0.0,0.0,0.0,0.0,0.0,0.0,0.0,0.0,0.0,0.0,0.0,0.0,0.0,0.0,0.0,0.0,0.0,0.0,0.0,0.0,0.0,0.0,0.0,0.0,0.0,0.0,0.0,0.0,0.0,0.0,0.0,0.0,0.0,0.0,0.0,0.0,0.0,0.0,0.0,0.0,0.0,0.0,0.0,0.0,0.0,0.0,0.0,0.0,0.0,0.0,0.0,0.0,0.0,0.0,0.0,0.0,0.0,0.0,0.0,0.0,0.0,0.0,0.0,0.0,0.0,0.0,0.0,0.0,0.0,0.0,0.0,0.0,0.0,0.0,0.0,0.0,0.0,0.0,0.0,0.0,0.0,0.0,0.0,0.0,0.0,0.0,0.0,0.0,0.0,0.0,0.0,0.0,0.0,0.0,0.0,0.0,0.0,0.0,0.0,0.0,0.0,0.0,0.0,0.0,0.0,0.0,0.0,0.0,0.0,0.0,0.0,0.0,0.0,0.0,0.0,0.0,0.0,0.0,0.0,0.0,0.0,0.0,0.0,0.0,0.0,0.0,0.0,0.0,0.0,0.0,0.0,0.0,0.0,0.0,0.0,0.0,0.0,0.0,0.0,0.0,0.0,0.0,0.0,0.0,0.0,0.0,0.0,0.0,0.0,0.0,0.0,0.0,0.0,0.0,0.0,0.0,0.0,0.0,0.0,0.0,0.0,0.0,0.0,0.0,0.0,0.0,0.0,0.0,0.0,0.0,0.0,0.0,0.0,0.0,0.0,0.0,0.0,0.0,0.0,0.0,0.0,0.0,0.0,0.0,0.0,0.0,0.0,0.0,0.0,0.0,0.0,0.0,0.0,0.0,0.0,0.0,0.0,0.0,0.0,0.0,0.0,0.0,0.0,0.0,0.0,0.0,0.0,0.0,0.0,0.0,0.0,0.0,0.0,0.0,0.0,0.0,0.0,0.0,0.0,0.0,0.0,0.0,0.0,0.0,0.0,0.0,0.0,0.0,0.0,0.0,0.0,0.0,0.0,0.0,0.0,0.0,0.0,0.0,0.0,0.0,0.0,0.0,0.0,0.0,0.0,0.0,0.0,0.0,0.0,0.0,0.0,0.0,0.0,0.0,0.0,0.0,0.0,0.0,0.0,0.0,0.0,0.0,0.0,0.0,0.0,0.0,0.0,0.0,0.0,0.0,0.0,0.0,0.0,0.0,0.0,0.0,0.0,0.0,0.0,0.0,0.0,0.0,0.0,0.0,0.0,0.0,0.0,0.0,0.0,0.0,0.0,0.0,0.0,0.0,0.0,0.0,0.0,0.0,0.0,0.0,0.0,0.0,0.0,0.0,0.0,0.0,0.0,0.0,0.0,0.0,0.0,0.0,0.0,0.0,0.0,0.0,0.0,0.0,0.0,0.0,0.0,0.0,0.0,0.0,0.0,0.0,0.0,0.0,0.0,0.0,0.0,0.0,0.0,0.0,0.0,0.0,0.0,0.0,0.0,0.0,0.0,0.0,0.0,0.0,0.0,0.0,0.0,0.0,0.0,0.0,0.0,0.0,0.0,0.0,0.0,0.0,0.0,0.0,0.0,0.0,0.0,0.0,0.0,0.0,0.0,0.0,0.0,0.0,0.0,0.0,0.0,0.0,0.0,0.0,0.0,0.0,0.0,0.0,0.0,0.0,0.0,0.0,0.0,0.0,0.0,0.0,0.0,0.0,0.0,0.0,0.0,0.0,0.0,0.0,0.0,0.0,0.0,0.0,0.0,0.0,0.0,0.0,0.0,0.0,0.0,0.0,0.0,0.0,0.0,0.0,0.0,0.0,0.0,0.0,0.0,0.0,0.0,0.0,0.0,0.0,0.0,0.0,0.0,0.0,0.0,0.0,0.0,0.0,0.0,0.0,0.0,0.0,0.0,0.0,0.0,0.0,0.0,0.0,0.0,0.0,0.0,0.0,0.0,0.0,0.0,0.0,0.0,0.0,0.0,0.0,0.0,0.0,0.0,0.0,0.0,0.0,0.0,0.0,0.0,0.0,0.0,0.0,0.0,0.0,0.0,0.0,0.0,0.0,0.0,0.0,0.0,0.0,0.0,0.0,0.0,0.0,0.0,0.0,0.0,0.0,0.0,0.0,0.0,0.0,0.0,0.0,0.0,0.0,0.0,0.0,0.0,0.0,0.0,0.0,0.0,0.0,0.0,0.0,0.0,0.0,0.0,0.0,0.0,0.0,0.0,0.0,0.0,0.0,0.0,0.0,0.0,0.0,0.0,0.0,0.0,0.0,0.0,0.0,0.0,0.0,0.0,0.0,0.0,0.0,0.0,0.0,0.0,0.0,0.0,0.0,0.0,0.0,0.0,0.0,0.0,0.0,0.0,0.0,0.0,0.0,0.0,0.0,0.0,0.0,0.0,0.0,0.0,0.0,0.0,0.0,0.0,0.0,0.0,0.0,0.0,0.0,0.0,0.0,0.0,0.0,0.0,0.0,0.0,0.0,0.0,0.0,0.0,0.0,0.0,0.0,0.0,0.0,0.0,0.0,0.0,0.0,0.0,0.0,0.0,0.0,0.0,0.0,0.0,0.0,0.0,0.0,0.0,0.0,0.0,0.0,0.0,0.0,0.0,0.0,0.0,0.0,0.0,0.0,0.0,0.0,0.0,0.0,0.0,0.0,0.0,0.0,0.0,0.0,0.0,0.0,0.0,0.0,0.0,0.0,0.0,0.0,0.0,0.0,0.0,0.0,0.0,0.0,0.0,0.0,0.0,0.0,0.0,0.0,0.0,0.0,0.0,0.0,0.0,0.0,0.0,0.0,0.0,0.0,0.0,0.0,0.0,0.0,0.0,0.0,0.0,0.0,0.0,0.0,0.0,0.0,0.0,0.0,0.0,0.0,0.0,0.0,0.0,0.0,0.0,0.0,0.0,0.0,0.0,0.0,0.0,0.0,0.0,0.0,0.0,0.0,0.0,0.0,0.0,0.0,0.0,0.0,0.0,0.0,0.0,0.0,0.0,0.0,0.0,0.0,0.0,0.0,0.0,0.0,0.0,0.0,0.0,0.0,0.0,0.0,0.0,0.0,0.0,0.0,0.0,0.0,0.0,0.0,0.0,0.0,0.0,0.0,0.0,0.0,0.0,0.0,0.0,0.0,0.0,0.0,0.0,0.0,0.0,0.0,0.0,0.0,0.0,0.0,0.0,0.0,0.0,0.0,0.0,0.0,0.0,0.0,0.0,0.0,0.0,0.0,0.0,0.0,0.0,0.0,0.0,0.0,0.0,0.0,0.0,0.0,0.0,0.0,0.0,0.0,0.0,0.0,0.0,0.0,0.0,0.0,0.0,0.0,0.0,0.0,0.0,0.0,0.0,0.0,0.0,0.0,0.0,0.0,0.0,0.0,0.0,0.0,0.0,0.0,0.0,0.0,0.0,0.0,0.0,0.0,0.0,0.0,0.0,0.0,0.0,0.0,0.0,0.0,0.0,0.0,0.0,0.0,0.0,0.0,0.0,0.0,0.0,0.0,0.0,0.0,0.0,0.0,0.0,0.0,0.0,0.0,0.0,0.0,0.0,0.0,0.0,0.0,0.0,0.0,0.0,0.0,0.0,0.0,0.0,0.0,0.0,0.0,0.0,0.0,0.0,0.0,0.0,0.0,0.0,0.0,0.0,0.0,0.0,0.0,0.0,0.0,0.0,0.0,0.0,0.0,0.0,0.0,0.0,0.0,0.0,0.0,0.0,0.0,0.0,0.0,0.0,0.0,0.0,0.0,0.0,0.0,0.0,0.0,0.0,0.0,0.0,0.0,0.0,0.0,0.0,0.0,0.0,0.0,0.0,0.0,0.0,0.0,0.0,0.0,0.0,0.0,0.0,0.0,0.0,0.0,0.0,0.0,0.0,0.0,0.0,0.0,0.0,0.0,0.0,0.0,0.0,0.0,0.0,0.0,0.0,0.0,0.0,0.0,0.0,0.0,0.0,0.0,0.0,0.0,0.0,0.0,0.0,0.0,0.0,0.0,0.0,0.0,0.0,0.0,0.0,0.0,0.0,0.0,0.0,0.0,0.0,0.0,0.0,0.0,0.0,0.0,0.0,0.0,0.0,0.0,0.0,0.0,0.0,0.0,0.0,0.0,0.0,0.0,0.0,0.0,0.0,0.0,0.0,0.0,0.0,0.0,0.0,0.0,0.0,0.0,0.0,0.0,0.0,0.0,0.0,0.0,0.0,0.0,0.0,0.0,0.0,0.0,0.0,0.0,0.0,0.0,0.0,0.0,0.0,0.0,0.0,0.0,0.0,0.0,0.0,0.0,0.0,0.0,-2.3595,0.0,0.0,0.0,0.0,0.0,0.0,0.0,0.0,0.0,0.0,0.0,0.0,0.0,0.0,0.0,0.0,0.0,0.0,0.0,0.0,0.0,0.0,0.0,0.0,0.0,0.0,0.0,0.0,0.0,0.0,0.0,0.0,0.0,0.0,0.0,0.0,0.0,0.0,0.0,-1.7689,-1.7825,-1.8151,-1.8528,-1.8688,-1.8741,0.0,0.0,0.0,0.0,0.0,0.0,0.0,0.0,0.0,0.0,0.0,0.0,0.0,0.0,0.0,0.0,0.0,0.0,0.0,0.0,0.0,0.0,0.0,0.0,0.0,0.0,0.0,0.0,0.0,0.0,0.0,0.0,0.0,0.0,0.0,0.0,0.0,0.0,0.0,0.0,0.0,0.0,0.0,0.0,0.0,0.0,0.0,0.0,0.0,0.0,0.0,0.0,0.0,0.0,0.0,0.0,0.0,0.0,0.0,0.0,0.0,0.0,0.0,0.0,0.0,0.0,0.0,0.0,0.0,0.0,0.0,-2.3595,0.0,0.0,0.0,0.0,0.0,0.0,0.0,0.0,0.0,0.0,0.0,0.0,0.0,0.0,0.0,0.0,0.0,0.0,0.0,0.0,0.0,0.0,0.0,0.0,-1.2905,-1.2905,-1.3089,0.0,0.0,0.0,0.0,0.0,0.0,0.0,0.0,0.0,0.0,0.0,-1.7191,-1.7578,-1.8874,-1.8874,-1.8874,-1.8927,-1.9527,0.0,0.0,0.0,0.0,0.0,0.0,0.0,0.0,0.0,0.0,0.0,0.0,0.0,0.0,0.0,0.0,0.0,0.0,0.0,0.0,0.0,0.0,0.0,0.0,0.0,0.0,0.0,0.0,0.0,0.0,0.0,0.0,0.0,0.0,0.0,0.0,0.0,0.0,0.0,0.0,0.0,0.0,0.0,0.0,0.0,0.0,0.0,0.0,0.0,0.0,0.0,0.0,0.0,0.0,0.0,0.0,0.0,0.0,0.0,0.0,0.0,0.0,0.0,-2.3894,-2.3954,-2.3954,-2.3954,-2.3954,-2.3954,-2.3954,-2.3819,-2.3595,-2.3595,0.0,0.0,0.0,0.0,0.0,0.0,0.0,0.0,0.0,0.0,0.0,0.0,0.0,0.0,0.0,0.0,0.0,0.0,0.0,0.0,0.0,-1.2905,-1.2905,-1.2905,-1.386,-1.4387,0.0,0.0,0.0,0.0,0.0,0.0,0.0,-1.8342,-1.8377,-1.8555,-1.8474,-1.8847,-1.9643,-1.9643,-1.9643,-1.9669,-1.9747,-1.9097,-1.7934,0.0,0.0,0.0,0.0,0.0,0.0,0.0,0.0,0.0,0.0,0.0,0.0,0.0,0.0,0.0,0.0,0.0,0.0,0.0,0.0,0.0,0.0,0.0,0.0,0.0,0.0,0.0,0.0,0.0,0.0,0.0,0.0,0.0,0.0,0.0,0.0,0.0,0.0,0.0,0.0,0.0,-2.2489,-2.2558,0.0,0.0,0.0,0.0,0.0,0.0,0.0,0.0,0.0,0.0,0.0,0.0,0.0,-2.3595,-2.3595,-2.4171,-2.447,-2.4485,-2.5076,-2.5345,-2.5345,-2.5345,-2.5345,-2.5345,-2.5345,0.0,-2.3595,-2.3595,0.0,0.0,0.0,0.0,0.0,0.0,0.0,0.0,0.0,0.0,0.0,0.0,0.0,0.0,0.0,0.0,0.0,0.0,0.0,0.0,0.0,-1.319,-1.3396,-1.3396,-1.4462,-1.5107,-1.5017,0.0,0.0,0.0,0.0,0.0,0.0,-1.8286,-1.8274,-1.8688,-1.9123,-1.9475,-1.9798,-1.9798,-1.9798,-1.9798,-1.9798,-1.9449,-1.8859,-1.9176,0.0,0.0,0.0,0.0,0.0,0.0,0.0,0.0,0.0,0.0,0.0,0.0,0.0,0.0,0.0,0.0,0.0,0.0,0.0,0.0,0.0,0.0,0.0,0.0,0.0,0.0,0.0,0.0,0.0,0.0,0.0,0.0,0.0,0.0,0.0,0.0,0.0,0.0,0.0,-2.2114,-2.283,-2.3179,-2.3143,-2.2995,0.0,0.0,0.0,0.0,0.0,0.0,0.0,0.0,0.0,-2.4717,-2.4732,-2.4732,-2.4732,-2.5008,-2.5158,-2.5158,-2.5457,-2.5615,-2.5615,-2.5615,-2.5615,-2.5615,-2.5615,-2.527,-2.4732,-2.4732,-2.4513,-2.4177,0.0,0.0,0.0,0.0,-2.3462,-2.3597,0.0,0.0,0.0,0.0,0.0,0.0,0.0,0.0,0.0,0.0,0.0,0.0,-1.2905,-1.331,-1.3689,-1.3984,-1.4904,-1.5611,-1.5869,-1.7062,0.0,0.0,0.0,0.0,0.0,-1.834,-1.8421,-1.8992,-1.9527,-1.9798,-1.9798,-1.9798,-1.9798,-1.9798,-1.9798,-1.9798,-1.9798,-1.9798,-1.9798,-1.9747,0.0,0.0,0.0,0.0,0.0,0.0,0.0,0.0,0.0,0.0,0.0,0.0,0.0,0.0,0.0,0.0,0.0,0.0,0.0,0.0,0.0,0.0,0.0,0.0,0.0,0.0,0.0,0.0,0.0,0.0,0.0,0.0,0.0,0.0,0.0,0.0,0.0,-2.2392,-2.292,-2.353,-2.3187,-2.3105,0.0,0.0,0.0,0.0,0.0,0.0,-2.4806,-2.4859,-2.5083,-2.5576,-2.5615,-2.5615,-2.5615,-2.5944,-2.6108,-2.6123,-2.6452,-2.6617,-2.6617,-2.6617,-2.6617,-2.6608,-2.6382,-2.6283,-2.6248,-2.5583,-2.5039,-2.4562,-2.4016,-2.3828,-2.3766,-2.3138,-2.3178,-2.3509,0.0,0.0,0.0,0.0,0.0,0.0,0.0,0.0,0.0,0.0,0.0,-1.2905,-1.2905,-1.2929,-1.3385,-1.4461,-1.515,-1.5914,-1.686,-1.6882,-1.708,-1.7604,-1.6968,0.0,0.0,0.0,-1.9721,-1.9747,-1.9773,-1.9798,-1.9798,-1.9798,-1.9798,-1.9798,-1.9798,-1.9798,-1.9798,-1.9798,-1.9798,-1.9747,-1.9006,0.0,0.0,0.0,0.0,0.0,0.0,0.0,0.0,0.0,0.0,0.0,0.0,0.0,0.0,0.0,0.0,0.0,0.0,0.0,0.0,0.0,0.0,0.0,0.0,0.0,0.0,0.0,0.0,0.0,0.0,0.0,0.0,0.0,0.0,0.0,0.0,0.0,0.0,-2.353,-2.3573,0.0,0.0,0.0,0.0,-2.4646,-2.515,-2.5478,-2.5555,-2.5555,-2.557,-2.5615,-2.5615,-2.5615,-2.5615,-2.6866,-2.7495,-2.751,-2.8798,-2.9412,-2.9412,-2.9412,-2.9412,-2.9343,-2.8518,-2.8167,-2.798,-2.5549,-2.4484,-2.4403,-2.4377,-2.4313,-2.4277,-2.43,-2.392,-2.3318,0.0,0.0,0.0,0.0,0.0,0.0,0.0,0.0,0.0,-1.2749,-1.2905,-1.2905,-1.2905,-1.3893,-1.4731,-1.515,-1.6771,-1.7908,-1.8258,-1.8585,-1.8591,-1.8328,-1.8501,0.0,0.0,0.0,-1.9798,-1.9798,-1.9798,-1.9798,-1.9798,-1.9798,-1.9798,-1.9798,-1.9798,-1.9798,-1.9798,-1.9798,-1.9798,-1.9747,-1.9006,-1.8543,0.0,0.0,0.0,0.0,0.0,0.0,0.0,0.0,0.0,0.0,0.0,0.0,0.0,0.0,0.0,0.0,0.0,0.0,0.0,0.0,0.0,0.0,0.0,0.0,0.0,0.0,0.0,0.0,0.0,0.0,0.0,0.0,0.0,0.0,0.0,0.0,0.0,-2.4768,-2.4896,0.0,-2.4932,-2.5116,-2.5252,-2.5287,-2.5482,-2.5794,-2.6213,-2.6632,-2.7081,-2.753,-2.7949,-2.8158,-2.8158,-2.8663,-2.8888,-2.8903,-2.9382,-2.9606,-2.9606,-2.9606,-2.9277,-2.8749,-2.8425,-2.7982,-2.7361,-2.5968,-2.546,-2.5506,-2.5024,-2.4901,-2.4895,-2.3914,-2.3733,-2.3879,0.0,0.0,0.0,0.0,0.0,0.0,0.0,0.0,0.0,-1.2749,-1.2905,-1.2968,-1.3176,-1.4392,-1.5432,-1.6061,-1.7689,-1.8859,-1.9246,-1.9135,-1.8965,-1.8715,-1.9176,0.0,0.0,-1.9669,-1.9798,-1.9798,-1.9798,-1.9798,-1.9798,-1.9798,-1.9798,-1.9798,-1.9798,-1.9798,-1.9798,-1.9798,-1.9798,-1.9747,-1.9254,-1.8927,-1.8581,0.0,0.0,0.0,0.0,0.0,0.0,0.0,0.0,0.0,0.0,0.0,0.0,0.0,0.0,0.0,0.0,0.0,0.0,0.0,0.0,0.0,0.0,0.0,0.0,0.0,0.0,0.0,0.0,0.0,0.0,0.0,0.0,0.0,0.0,0.0,-2.3824,-2.5399,-2.5373,-2.5414,-2.589,-2.5944,-2.6123,-2.6587,-2.6342,-2.6584,-2.756,-2.7747,-2.8165,-2.8921,-2.9082,-2.9305,-2.9606,-2.9527,-2.975,-3.0238,-3.0462,-3.0531,-3.0438,-3.0438,-2.9929,-2.9066,-2.8792,-2.8222,-2.7458,-2.6692,-2.6214,-2.5935,-2.5258,-2.5096,-2.5066,-2.4045,-2.3997,-2.4391,0.0,0.0,0.0,0.0,0.0,0.0,0.0,-1.1366,-1.203,-1.2798,-1.2905,-1.3138,-1.3752,-1.432,-1.5381,-1.7181,-1.7831,-1.8615,-1.9683,-1.8447,-1.7988,-1.8688,0.0,0.0,-1.8741,-1.9423,-1.9798,-1.9773,-1.9773,-1.9747,-1.9721,-1.9747,-1.9773,-1.9773,-1.9798,-1.9798,-1.9773,-1.9773,-1.9747,-1.9747,-1.9773,-1.9371,-1.8661,0.0,0.0,0.0,0.0,0.0,0.0,0.0,0.0,0.0,0.0,0.0,0.0,0.0,0.0,0.0,0.0,0.0,0.0,0.0,0.0,0.0,0.0,0.0,0.0,0.0,0.0,0.0,0.0,0.0,0.0,0.0,0.0,0.0,-2.3475,-2.2924,-2.3252,-2.5384,-2.4985,-2.5085,-2.6489,-2.6613,-2.7141,-2.8439,-2.7788,-2.7968,-2.9453,-2.8779,-2.8751,-2.9612,-2.8809,-2.8795,-2.9672,-2.9449,-3.0061,-3.1483,-3.2109,-3.231,-3.2044,-3.2044,-3.1509,-3.0528,-2.9717,-2.9052,-2.841,-2.7656,-2.6666,-2.5624,-2.5059,-2.48,-2.4788,-2.4788,-2.4788,-2.4788,0.0,0.0,0.0,0.0,0.0,0.0,0.0,-1.0965,-1.15,-1.2749,-1.2905,-1.3272,-1.4254,-1.529,-1.6439,-1.7754,-1.8766,-1.9237,-1.9032,-1.9123,-1.9281,-1.9475,0.0,0.0,-1.9475,-1.9695,-1.9527,-1.9006,-1.9006,-1.8741,-1.8232,-1.8741,-1.9006,-1.9044,-1.9553,-1.9501,-1.9006,-1.9006,-1.8688,-1.8313,-1.9371,-1.9669,-1.9423,0.0,0.0,0.0,0.0,0.0,0.0,0.0,0.0,0.0,0.0,0.0,0.0,0.0,0.0,0.0,0.0,0.0,0.0,0.0,0.0,0.0,0.0,0.0,0.0,0.0,0.0,0.0,0.0,0.0,0.0,0.0,0.0,-2.3032,-2.3403,-2.3676,-2.4455,-2.6049,-2.5941,-2.6103,-2.7031,-2.6986,-2.7046,-2.7412,-2.7812,-2.7926,-2.7723,-2.8908,-2.975,-3.009,-3.0026,-3.0429,-3.1411,-3.063,-3.0443,-3.0839,-3.104,-3.1077,-3.0999,-3.0999,-3.0528,-2.9731,-2.9486,-2.8963,-2.8206,-2.7979,-2.7695,-2.7281,-2.5912,-2.5159,-2.4788,-2.4788,-2.4788,-2.4788,0.0,0.0,0.0,0.0,0.0,0.0,0.0,-1.0788,-1.13,-1.2725,-1.2905,-1.3433,-1.4825,-1.5526,-1.6607,-1.8335,-1.8716,-1.8953,-1.915,-1.9553,-1.9669,0.0,0.0,-1.9371,-1.9798,-1.9501,-1.9123,-1.8688,-1.8394,-1.8309,-1.8446,-1.8885,-1.9369,-1.9885,-1.9939,-1.9737,-1.9302,-1.8748,-1.8281,-1.7952,-1.861,-1.9071,-1.9281,-1.8847,-1.8874,-1.9071,-1.834,-1.8259,-1.8463,-1.8167,0.0,0.0,0.0,0.0,0.0,0.0,0.0,0.0,0.0,0.0,0.0,0.0,0.0,0.0,0.0,0.0,0.0,0.0,0.0,0.0,0.0,0.0,0.0,0.0,-2.3108,-2.325,-2.3609,-2.399,-2.4754,-2.6202,-2.6209,-2.6349,-2.7102,-2.7062,-2.7209,-2.7717,-2.7908,-2.816,-2.85,-2.9329,-3.0021,-3.0404,-3.0205,-3.0528,-3.1476,-3.0562,-3.0426,-3.1014,-3.1014,-3.0965,-3.0861,-3.0861,-3.0392,-2.9576,-2.9576,-2.9118,-2.8448,-2.8448,-2.831,0.0,0.0,0.0,0.0,0.0,-2.605,-2.585,0.0,0.0,0.0,0.0,0.0,0.0,0.0,-1.0788,-1.13,-1.2725,-1.2905,-1.3599,-1.5387,-1.5372,-1.6239,-1.8871,-1.8175,-1.8194,-1.9579,-1.9669,0.0,-1.8847,-1.9371,-1.9669,-1.9669,-1.8965,-1.8581,-1.8581,-1.7991,-1.8308,-1.9479,-1.9622,-2.0301,-2.1341,-2.0555,-2.014,-2.0,-1.8757,-1.8169,-1.8023,-1.7695,-1.8007,-1.8688,-1.8688,-1.915,-1.9721,-1.9071,-1.9228,-1.9695,-1.9044,0.0,0.0,0.0,0.0,0.0,0.0,0.0,0.0,0.0,0.0,0.0,0.0,0.0,0.0,0.0,0.0,0.0,0.0,0.0,0.0,0.0,0.0,0.0,0.0,-2.3195,-2.3409,-2.4017,-2.4142,-2.4677,-2.6,-2.5992,-2.618,-2.6998,-2.7067,-2.7509,-2.8624,-2.8172,-2.8538,-3.0235,0.0,0.0,0.0,0.0,-2.9861,-3.0665,-2.9861,-3.0113,-3.1387,-3.1387,-3.1281,-3.1044,-3.1044,-3.0595,-2.9792,-2.9792,-2.9503,-2.8988,-2.8988,-2.8737,-2.8285,-2.816,-2.8109,-2.8109,-2.8109,-2.7795,-2.7369,0.0,0.0,0.0,0.0,0.0,0.0,0.0,-1.0788,-1.13,-1.2725,-1.2905,-1.3746,-1.5977,-1.5604,-1.6399,-1.9407,-1.8389,-1.7977,-1.8859,-1.89,-1.9123,-1.9553,-1.915,-1.89,-1.89,-1.8194,-1.7825,-1.7825,-1.816,-1.8465,-1.8748,-1.9764,-2.0385,-2.0595,-2.0325,-1.9878,-1.9249,-1.8294,-1.7356,-1.6577,-1.7078,-1.7851,-1.8688,-1.8688,-1.915,-1.9773,-1.9643,-1.9669,-1.9773,-1.9643,-1.9579,-1.9579,-1.9579,0.0,0.0,0.0,0.0,0.0,0.0,0.0,0.0,0.0,0.0,0.0,0.0,0.0,0.0,0.0,0.0,0.0,0.0,0.0,0.0,-2.3753,-2.3841,-2.4029,-2.4582,-2.5021,-2.5453,-2.5893,-2.5768,-2.6147,-2.7373,-2.7341,-2.7531,-2.8196,-2.8751,-2.8913,-2.8602,-2.9519,-3.0164,-3.0428,-2.9965,-3.016,-3.1093,-3.016,-2.9885,-3.0164,0.0,0.0,-3.0075,-3.0075,-2.9972,-2.9792,-2.9792,-2.9729,-2.9628,-2.9628,-2.9566,-2.9377,-2.8461,-2.8109,-2.8109,-2.8109,-2.8034,-2.7946,0.0,0.0,0.0,0.0,0.0,0.0,0.0,-1.0788,-1.13,-1.2725,-1.2905,-1.3629,-1.5586,-1.5117,-1.5738,-1.846,-1.8367,-1.814,-1.814,-1.8847,-1.9423,-1.9773,-1.9097,-1.8688,-1.8688,-1.7633,-1.7062,-1.7062,-1.7233,-1.7643,-1.8275,-1.9107,-1.986,-2.0476,-1.9963,-1.953,-1.9123,-1.8059,-1.7135,-1.6408,-1.6568,-1.7035,-1.7688,-1.8409,-1.8927,-1.9293,-1.9669,-1.9798,-1.9798,-1.9798,-1.9798,-1.9798,-1.9798,-1.9752,-1.9762,0.0,0.0,0.0,0.0,0.0,0.0,0.0,0.0,0.0,0.0,0.0,0.0,0.0,0.0,-2.3195,0.0,0.0,-2.3753,-2.4318,-2.4406,-2.4594,-2.5134,-2.5686,-2.608,-2.6173,-2.6358,-2.6826,-2.7754,-2.7769,-2.7921,-2.8473,-2.8891,-2.9092,-2.8976,-2.9642,-3.0045,-3.0083,-2.9897,-3.0037,-3.0482,-3.0037,-2.9792,-2.9792,-2.9792,-2.9792,-2.9792,-2.9792,-2.9792,-2.9792,-2.9792,-2.9792,-2.9792,-2.9792,-2.9792,-2.9729,-2.9164,-2.895,-2.895,-2.895,-2.8762,-2.8511,0.0,0.0,0.0,0.0,0.0,0.0,0.0,0.0,-1.13,-1.2725,-1.2905,-1.3481,-1.5038,-1.4536,-1.4925,-1.6993,-1.7977,-1.8221,0.0,-1.8847,-1.9592,-1.9592,-1.8874,-1.8409,-1.8286,-1.6978,-1.635,-1.6492,-1.6395,-1.6991,-1.821,-1.8637,-1.9477,-2.0558,-1.9694,-1.9299,-1.9212,-1.7945,-1.7129,-1.6658,-1.6271,-1.6177,-1.6425,-1.7759,-1.8367,-1.8581,-1.9307,-1.9592,-1.963,-1.9885,-1.9962,-1.9987,-2.01,-2.0451,-2.0855,-2.0855,-2.073,0.0,0.0,0.0,0.0,0.0,0.0,0.0,0.0,0.0,-2.3108,-2.3108,-2.3195,-2.3409,-2.3916,-2.4092,-2.4343,-2.4883,-2.4971,-2.5197,-2.5837,-2.6361,-2.6738,-2.6952,-2.7266,-2.7657,-2.821,-2.826,-2.8499,-2.9013,-2.9051,-2.9302,-2.9767,-2.9792,-2.9792,-2.9792,-2.9792,-2.9792,-2.9792,-2.9792,-2.9792,-2.9792,-2.9792,-2.9792,-2.9792,-2.9792,-2.9792,-2.9792,-2.9792,-2.9792,-2.9792,-2.9792,-2.9792,-2.9792,-2.9792,-2.9792,-2.9792,-2.9792,-2.9503,-2.9051,0.0,0.0,0.0,0.0,0.0,0.0,0.0,0.0,0.0,-1.2725,-1.2905,-1.3481,-1.5038,-1.4536,-1.4527,-1.5553,-1.6912,0.0,-1.7605,-1.8367,-1.8821,-1.8821,-1.8112,-1.7413,-1.6765,-1.595,-1.5835,-1.6492,-1.7,-1.7838,-1.9004,-1.9524,-2.0046,-2.0558,-1.9694,-1.9299,-1.9212,-1.7945,-1.7129,-1.6658,-1.6271,-1.586,-1.5604,-1.6425,-1.7146,-1.7825,-1.8555,-1.8821,-1.9011,-2.0202,-2.0591,-2.0679,-2.1142,-2.1343,-2.1393,-2.1393,0.0,-2.1145,-2.0053,-2.0169,-2.0971,-2.2609,-2.3058,-2.3108,0.0,0.0,-2.3108,-2.3108,-2.354,-2.3916,-2.3991,-2.4406,-2.4908,-2.5423,-2.5511,-2.5875,-2.6942,-2.719,-2.7557,-2.8536,-2.8273,-2.8235,-2.875,-2.88,-2.9076,-2.9654,-2.9691,-2.9729,-2.9792,-2.9792,-2.9792,-2.9792,-2.9792,-2.9792,-2.9792,-2.9792,-2.9792,-2.9792,-2.9792,-2.9792,-2.9792,-2.9792,-2.9792,-2.9792,-2.9792,-2.9792,-2.9792,-2.9792,-2.9792,-2.9792,-2.9792,-2.9792,-2.9792,-2.9792,-2.9754,-2.9691,0.0,0.0,0.0,0.0,0.0,0.0,0.0,0.0,0.0,0.0,-1.2642,-1.3318,-1.4435,-1.4735,-1.4991,-1.5381,-1.6368,0.0,-1.695,-1.766,-1.807,-1.807,-1.7357,-1.6821,-1.6521,-1.5777,-1.5555,-1.5864,-1.6395,-1.6878,-1.7375,-1.7812,-1.8134,-1.8321,-1.7948,-1.7797,-1.7745,-1.7231,-1.6748,-1.6328,-1.6173,-1.5831,-1.5439,-1.5748,-1.6054,-1.6503,-1.7947,-1.8462,0.0,-1.9965,-2.041,-2.0531,-2.1266,-2.1707,-2.197,-2.197,-2.1865,0.0,-2.1136,-2.1502,-2.2206,0.0,-2.3108,-2.3108,-2.3108,-2.3358,-2.364,-2.364,-2.4061,-2.4569,-2.487,-2.5109,-2.5448,0.0,-2.6399,-2.6741,-2.7218,-2.7833,-2.8411,-2.8838,-2.9026,-2.9176,-2.9402,-2.9428,-2.9528,-2.9779,-2.9792,-2.9792,-2.9792,-2.9792,-2.9792,-2.9792,-2.9792,-2.9792,-2.9792,-2.9792,-2.9792,-2.9792,-2.9792,-2.9792,-2.9792,-2.9792,-2.9792,-2.9792,-2.9792,-2.9792,-2.9792,-2.9792,-2.9792,-2.9792,-2.9792,-2.9792,-2.9792,-2.9792,-2.9792,-2.9792,0.0,0.0,0.0,0.0,0.0,0.0,0.0,0.0,0.0,0.0,0.0,-1.3203,-1.4016,-1.4874,-1.541,-1.541,0.0,0.0,0.0,-1.7006,-1.7302,-1.7302,-1.6782,-1.6397,-1.6208,-1.5671,-1.541,-1.541,-1.5723,-1.5977,-1.6105,-1.6396,-1.658,-1.6697,-1.6697,-1.6697,-1.6697,-1.657,-1.6357,-1.6085,-1.5958,-1.5693,-1.541,-1.541,-1.5488,-1.5802,-1.7426,-1.8009,-1.8213,0.0,-2.0088,-2.0258,-2.1284,-2.1702,-2.189,-2.211,-2.1886,-2.1585,-2.1815,-2.2322,-2.2823,-2.3035,-2.3233,-2.3346,-2.3346,-2.3816,-2.423,-2.423,-2.4657,-2.5146,-2.5523,-2.5724,-2.6025,-2.6637,-2.7052,-2.7394,-2.7695,-2.8423,-2.895,-2.9151,-2.9528,-2.9792,-2.9792,-2.9792,-2.9792,-2.9792,-2.9792,-2.9792,-2.9792,-2.9792,-2.9792,-2.9792,-2.9792,-2.9792,-2.9792,-2.9792,-2.9792,-2.9792,-2.9792,-2.9792,-2.9792,-2.9792,-2.9792,-2.9792,-2.9792,-2.9792,-2.9792,-2.9792,-2.9792,-2.9792,-2.9792,-2.9792,-2.9792,-2.9792,-2.9792,-2.9792,0.0,0.0,0.0,0.0,0.0,0.0,0.0,0.0,0.0,0.0,0.0,0.0,0.0,0.0,-1.541,-1.541,0.0,0.0,0.0,-1.651,-1.6521,-1.6521,-1.651,-1.6179,-1.5439,-1.541,-1.541,-1.541,-1.542,-1.5644,-1.6095,-1.6105,-1.6318,-1.6697,-1.6697,-1.6697,-1.6668,-1.6269,-1.6105,-1.6056,-1.5596,-1.542,-1.541,-1.541,-1.5674,-1.6166,-1.6975,-1.7212,-1.7497,0.0,-1.9756,-1.9978,-2.1447,-2.133,0.0,-2.1655,-2.1322,-2.0814,-2.1659,-2.1908,-2.2125,-2.2914,-2.3521,-2.3966,-2.3966,-2.4406,-2.4763,-2.4763,-2.5209,-2.5573,-2.5598,-2.6084,-2.665,-2.7203,-2.7268,-2.7657,-2.87,-2.8863,-2.9139,-2.9691,-2.9779,-2.9792,0.0,-2.9792,-2.9792,-2.9792,-2.9792,-2.9792,-2.9792,-2.9792,-2.9792,-2.9792,-2.9792,-2.9792,-2.9792,-2.9792,-2.9792,-2.9792,-2.9792,-2.9792,-2.9792,-2.9792,-2.9792,-2.9792,-2.9792,-2.9792,-2.9792,-2.9792,-2.9792,-2.9792,-2.9792,-2.9792,-2.9792,-2.9792,-2.9792,-2.9792,0.0,0.0,0.0,0.0,0.0,0.0,0.0,0.0,0.0,0.0,0.0,0.0,0.0,0.0,0.0,0.0,-1.541,0.0,0.0,-1.5777,-1.5777,-1.5777,-1.5777,-1.5642,-1.541,-1.541,-1.541,-1.541,-1.541,-1.5488,-1.5635,-1.5635,-1.5713,-1.5859,-1.5859,-1.5859,-1.582,-1.5693,-1.5635,-1.5615,-1.5469,-1.541,-1.5439,-1.5762,-1.5958,-1.6204,0.0,-1.7348,0.0,0.0,0.0,0.0,-2.0694,-2.0846,-2.0722,-2.1373,-2.1536,-2.1604,-2.2242,-2.2856,-2.3362,-2.3641,-2.413,-2.4544,-2.4544,-2.4958,-2.5335,-2.5335,-2.5774,-2.6323,-2.664,-2.6612,-2.6801,-2.7682,-2.7821,-2.8084,-2.8787,-2.9252,-2.9578,-2.9767,-2.9792,0.0,0.0,0.0,0.0,-2.9792,-2.9792,-2.9792,-2.9792,-2.9792,-2.9792,-2.9792,-2.9792,-2.9792,-2.9792,-2.9792,-2.9792,-2.9792,-2.9792,-2.9792,-2.9792,-2.9792,-2.9792,-2.9792,-2.9792,-2.9792,-2.9792,-2.9792,-2.9792,-2.9792,-2.9792,-2.9792,-2.9792,-2.9792,-2.9792,-2.9792,0.0,0.0,0.0,0.0,0.0,0.0,0.0,0.0,0.0,0.0,0.0,0.0,0.0,0.0,0.0,0.0,0.0,-1.541,0.0,0.0,-1.541,-1.541,-1.541,-1.541,-1.541,-1.541,-1.541,-1.541,-1.541,-1.541,-1.541,-1.541,-1.541,-1.541,-1.541,-1.541,-1.541,-1.541,-1.541,-1.541,-1.541,-1.541,-1.5439,-1.5723,-1.6025,0.0,-1.6943,-1.7353,0.0,0.0,0.0,0.0,-1.9846,-2.0216,-2.0391,-2.0588,-2.1123,-2.1798,-2.2503,-2.3325,-2.4054,-2.4243,-2.4695,-2.5096,-2.5096,-2.5523,-2.59,-2.59,-2.5949,-2.6159,-2.6882,-2.6447,-2.6418,-2.7885,-2.8109,-2.8373,-2.9139,-2.9566,-2.9792,-2.9792,-2.9792,-2.9792,0.0,0.0,0.0,-2.9792,-2.9792,-2.9792,-2.9792,-2.9792,-2.9792,-2.9792,-2.9792,-2.9792,-2.9792,-2.9792,-2.9792,-2.9792,-2.9792,-2.9792,-2.9792,-2.9792,-2.9792,-2.9792,-2.9792,-2.9792,-2.9792,-2.9792,-2.9792,-2.9792,-2.9792,-2.9792,-2.9792,-2.9792,-2.9792,-2.9792,0.0,0.0,0.0,0.0,0.0,0.0,0.0,0.0,0.0,0.0,0.0,0.0,0.0,0.0,0.0,0.0,0.0,0.0,0.0,0.0,0.0,-1.541,-1.541,-1.541,-1.541,-1.541,-1.541,-1.541,-1.541,-1.541,-1.541,-1.541,-1.541,-1.541,-1.541,-1.541,-1.541,-1.541,-1.541,-1.541,-1.541,-1.541,-1.541,-1.5439,-1.5946,-1.6697,-1.6726,0.0,0.0,0.0,0.0,0.0,0.0,-1.9626,-1.9855,-1.9545,-2.0324,-2.1517,-2.2524,-2.3418,-2.4205,-2.47,-2.5259,-2.5636,-2.5636,-2.6097,-2.6499,-2.6499,-2.5699,-2.5312,0.0,0.0,-2.5648,-2.769,-2.8073,-2.8499,-2.9591,-2.9779,-2.9792,0.0,0.0,0.0,0.0,0.0,0.0,-2.9792,0.0,-2.9792,-2.9792,-2.9792,-2.9792,-2.9792,-2.9792,-2.9792,-2.9792,-2.9792,-2.9792,-2.9792,-2.9792,-2.9792,-2.9792,-2.9792,-2.9792,-2.9792,-2.9792,-2.9792,-2.9792,-2.9792,-2.9792,-2.9792,-2.9792,-2.9792,-2.9792,-2.9792,-2.9792,-2.9792,0.0,0.0,0.0,0.0,0.0,0.0,0.0,0.0,0.0,0.0,0.0,0.0,0.0,0.0,0.0,0.0,0.0,0.0,0.0,0.0,0.0,0.0,0.0,0.0,0.0,0.0,0.0,-1.541,-1.541,-1.541,-1.541,-1.541,-1.541,-1.541,-1.541,-1.541,-1.541,-1.541,-1.541,-1.541,-1.541,-1.541,-1.5449,-1.5801,-1.625,-1.6746,0.0,0.0,0.0,0.0,0.0,0.0,0.0,-2.0357,-2.062,-2.1562,-2.2048,-2.2604,-2.3924,-2.4721,-2.5222,-2.536,-2.5858,-2.6273,-2.6273,-2.6386,-2.6499,-2.6499,-2.5699,-2.5195,0.0,0.0,0.0,-2.6782,-2.7631,0.0,-2.9013,-2.9528,0.0,-2.9792,0.0,-2.9792,-2.9792,-2.9792,0.0,0.0,-2.9792,-2.9792,-2.9792,-2.9792,-2.9792,-2.9792,-2.9792,-2.9792,-2.9792,-2.9792,-2.9792,-2.9792,-2.9792,-2.9792,-2.9792,-2.9792,-2.9792,-2.9792,-2.9792,-2.9792,-2.9792,-2.9792,-2.9792,-2.9792,-2.9792,-2.9792,-2.9792,-2.9792,-2.9792,-2.9792,0.0,0.0,0.0,0.0,0.0,0.0,0.0,0.0,0.0,0.0,0.0,0.0,0.0,0.0,0.0,0.0,0.0,0.0,0.0,0.0,0.0,0.0,0.0,0.0,0.0,0.0,0.0,0.0,0.0,0.0,-1.541,-1.541,-1.541,-1.541,-1.541,-1.541,-1.541,-1.541,0.0,0.0,0.0,-1.541,-1.5439,-1.5684,-1.6055,0.0,0.0,0.0,0.0,0.0,0.0,-1.9955,-2.0462,-2.0736,-2.1045,-2.2071,0.0,-2.323,-2.4462,-2.5197,-2.5649,-2.5912,-2.6248,-2.6383,-2.5955,-2.5838,-2.5734,-2.5276,-2.4397,0.0,-2.4647,0.0,0.0,0.0,0.0,0.0,-2.8775,-2.9202,-2.9503,0.0,-2.9792,0.0,-2.9792,-2.9792,-2.9792,0.0,-2.9792,-2.9792,-2.9792,-2.9792,-2.9792,-2.9792,-2.9792,-2.9792,-2.9792,-2.9792,-2.9792,-2.9792,-2.9792,-2.9792,-2.9792,-2.9792,-2.9792,-2.9792,0.0,-2.9792,-2.9792,-2.9792,-2.9792,-2.9792,-2.9792,-2.9792,-2.9792,-2.9792,-2.9792,-2.9792,0.0,0.0,0.0,0.0,0.0,0.0,0.0,0.0,0.0,0.0,0.0,0.0,0.0,0.0,0.0,0.0,0.0,0.0,0.0,0.0,0.0,0.0,0.0,0.0,0.0,0.0,0.0,0.0,0.0,0.0,0.0,0.0,0.0,0.0,0.0,0.0,0.0,0.0,0.0,0.0,-1.541,-1.541,-1.541,0.0,0.0,0.0,0.0,0.0,0.0,0.0,-2.0687,-2.0782,-2.091,-2.1162,-2.1521,-2.1934,-2.2743,-2.3701,-2.4581,-2.5259,-2.5871,-2.6361,-2.6499,-2.6245,-2.5229,-2.5004,-2.4707,-2.3708,0.0,-2.2253,-2.3147,-2.3294,-2.3796,-2.5271,0.0,-2.7488,-2.8637,-2.885,-2.9101,-2.9729,-2.9792,-2.9792,-2.9792,-2.9792,-2.9792,-2.9792,-2.9792,-2.9792,-2.9792,-2.9792,-2.9792,-2.9792,-2.9792,-2.9792,-2.9792,-2.9792,-2.9792,-2.9792,-2.9792,-2.9792,-2.9792,-2.9792,-2.9792,-2.9792,-2.9792,-2.9792,-2.9792,-2.9792,-2.9792,-2.9792,-2.9792,-2.9792,-2.9792,-2.9792,-2.9792,-2.9792,0.0,0.0,0.0,0.0,0.0,0.0,0.0,0.0,0.0,0.0,-0.9465,-1.0094,0.0,0.0,0.0,0.0,0.0,0.0,0.0,0.0,0.0,0.0,0.0,0.0,0.0,-1.541,-1.541,-1.541,-1.541,0.0,0.0,0.0,0.0,0.0,0.0,0.0,0.0,0.0,0.0,0.0,-1.541,-1.541,-1.541,0.0,0.0,0.0,0.0,0.0,0.0,0.0,-2.108,-2.1784,-2.2476,-2.272,-2.2782,-2.2878,-2.3667,-2.4581,-2.4755,-2.5548,-2.6361,-2.6461,-2.6499,-2.6245,-2.5229,-2.5004,0.0,0.0,-2.2702,-2.2065,-2.2215,-2.2253,-2.2611,-2.3737,0.0,0.0,0.0,0.0,-2.9101,0.0,0.0,0.0,0.0,0.0,0.0,0.0,-2.9792,-2.9792,-2.9792,-2.9792,-2.9792,-2.9792,-2.9792,-2.9792,-2.9792,-2.9792,-2.9792,-2.9792,-2.9792,-2.9792,-2.9792,-2.9792,-2.9792,-2.9792,-2.9792,0.0,-2.9792,-2.9792,-2.9792,-2.9792,-2.9792,-2.9792,-2.9792,-2.9792,-2.9792,-2.9792,0.0,0.0,0.0,0.0,0.0,0.0,0.0,-0.8321,-0.8804,-0.8804,-0.9087,-0.958,-1.0405,-1.1261,-1.2303,0.0,0.0,0.0,0.0,0.0,0.0,0.0,0.0,0.0,0.0,-1.541,-1.541,-1.541,0.0,-1.541,-1.541,-1.541,-1.541,-1.541,-1.541,-1.541,-1.541,-1.541,-1.541,-1.541,-1.541,-1.541,0.0,0.0,0.0,0.0,0.0,0.0,0.0,0.0,-2.0814,-2.2032,-2.2854,-2.3108,-2.3108,-2.3108,-2.3697,-2.4393,-2.4393,-2.5184,-2.6047,-2.6047,-2.6273,-2.6094,-2.4552,0.0,0.0,0.0,-2.1603,-2.126,-2.126,0.0,0.0,0.0,0.0,0.0,0.0,0.0,0.0,0.0,0.0,0.0,0.0,0.0,0.0,-2.9792,-2.9792,-2.9792,-2.9792,-2.9792,-2.9792,-2.9792,-2.9792,-2.9792,-2.9792,-2.9792,-2.9792,-2.9792,-2.9792,-2.9792,-2.9792,-2.9792,-2.9792,-2.9792,-2.9792,-2.9792,-2.9792,-2.9792,-2.9792,-2.9792,-2.9792,-2.9792,-2.9792,-2.9792,-2.9792,-2.9792,0.0,0.0,0.0,0.0,0.0,0.0,0.0,-0.8321,-0.8804,-0.8804,-0.8804,-0.915,-1.0046,-1.0351,-1.1197,0.0,0.0,0.0,0.0,0.0,0.0,0.0,0.0,0.0,0.0,0.0,0.0,-1.541,-1.541,0.0,0.0,0.0,0.0,0.0,-1.541,-1.541,-1.541,-1.541,-1.541,0.0,0.0,-1.541,0.0,0.0,0.0,0.0,0.0,0.0,0.0,0.0,-2.0204,-2.1491,-2.231,-2.2823,-2.3078,-2.2884,-2.3386,-2.4004,-2.4004,-2.4707,-2.546,-2.5573,-2.5971,-2.583,-2.3929,-2.3514,0.0,0.0,-2.0605,-2.0605,-2.0605,0.0,-2.1773,0.0,0.0,0.0,0.0,0.0,0.0,0.0,0.0,0.0,0.0,0.0,0.0,-2.9456,-2.9456,-2.9534,-2.9792,-2.9792,-2.9792,-2.9792,-2.9792,-2.9792,-2.9792,-2.9792,-2.9792,-2.9792,-2.9792,-2.9792,-2.9792,-2.9792,-2.9792,-2.9792,-2.9792,-2.9792,-2.9792,-2.9792,-2.9792,-2.9792,-2.9792,-2.9792,-2.9792,-2.9792,-2.9792,-2.9792,0.0,0.0,0.0,0.0,0.0,0.0,0.0,-0.8321,-0.8804,-0.8804,-0.8804,-0.8844,-0.8944,-0.9868,-1.0574,0.0,0.0,0.0,0.0,0.0,0.0,0.0,0.0,0.0,0.0,0.0,0.0,-1.541,-1.541,0.0,0.0,0.0,0.0,0.0,0.0,-1.541,-1.541,-1.541,0.0,0.0,0.0,0.0,0.0,0.0,0.0,0.0,0.0,0.0,0.0,0.0,0.0,-1.9694,-2.0558,-2.1865,-2.2944,-2.223,0.0,0.0,-2.4004,-2.4443,-2.5008,-2.5473,-2.5636,-2.5302,-2.3849,0.0,0.0,-2.1011,-2.0605,-2.0605,-2.0605,-2.0673,-2.1011,0.0,0.0,-2.3115,0.0,0.0,0.0,0.0,0.0,0.0,0.0,0.0,0.0,-2.8255,-2.8255,-2.8727,-2.9753,-2.9792,-2.9792,-2.9792,-2.9792,-2.9792,-2.9792,-2.9792,-2.9792,-2.9792,-2.9792,-2.9792,-2.9792,-2.9792,-2.9792,-2.9792,-2.9792,-2.9792,0.0,-2.9792,-2.9792,-2.9792,-2.9792,-2.9792,-2.9792,-2.9792,-2.9792,-2.9792,0.0,0.0,0.0,0.0,0.0,0.0,-0.7589,-0.8321,-0.8804,-0.8804,-0.8804,-0.8804,-0.8804,-0.9191,-0.9758,-1.0454,0.0,0.0,0.0,0.0,0.0,0.0,0.0,0.0,0.0,0.0,-1.4894,-1.541,-1.541,0.0,0.0,0.0,0.0,0.0,0.0,-1.541,-1.541,-1.541,0.0,0.0,0.0,0.0,0.0,0.0,0.0,0.0,0.0,0.0,0.0,0.0,0.0,0.0,-1.9077,-2.0204,0.0,0.0,-2.2294,-2.2836,-2.3324,-2.3891,-2.4456,-2.4996,-2.4929,-2.4523,-2.3693,0.0,0.0,-2.0867,-2.0605,-2.0605,-2.0605,-2.0605,-2.0712,-2.1078,0.0,0.0,0.0,0.0,0.0,0.0,0.0,0.0,0.0,0.0,0.0,-2.7128,-2.7128,-2.7331,-2.7799,-2.7799,-2.7799,-2.7799,-2.7799,-2.8119,-2.8767,-2.8767,-2.9106,-2.9792,-2.9792,-2.9792,-2.9792,-2.9792,-2.9792,-2.9792,-2.9792,-2.9792,0.0,-2.9792,-2.9792,-2.9792,-2.9792,-2.9792,-2.9792,-2.9792,-2.9792,-2.9792,0.0,0.0,0.0,0.0,0.0,-0.6858,-0.7589,-0.8321,-0.8804,-0.8804,-0.8804,-0.8804,-0.8804,-0.8804,-0.9117,-0.9936,-1.0065,0.0,0.0,0.0,0.0,0.0,0.0,0.0,0.0,0.0,-1.4481,-1.505,-1.5294,-1.541,0.0,0.0,-1.541,-1.541,0.0,0.0,0.0,0.0,0.0,0.0,0.0,0.0,0.0,0.0,0.0,0.0,0.0,0.0,0.0,0.0,0.0,0.0,0.0,0.0,0.0,0.0,-2.1302,-2.1647,-2.2218,-2.2663,-2.322,-2.4188,-2.3968,-2.3526,0.0,0.0,0.0,-2.0789,-2.0605,-2.0605,-2.0605,-2.0605,-2.0605,-2.0605,0.0,-2.1669,-2.1952,0.0,0.0,0.0,0.0,0.0,0.0,0.0,0.0,-2.6016,-2.6016,-2.6016,-2.6016,-2.5683,-2.5808,-2.6472,-2.6524,-2.6842,-2.7602,-2.7924,-2.8518,-2.9287,-2.9287,-2.9287,-2.9275,-2.8961,-2.9,-2.9287,-2.9287,-2.9495,0.0,-2.9792,-2.9792,-2.9792,-2.9792,-2.9792,-2.9792,-2.9792,-2.9792,-2.9792,0.0,0.0,0.0,0.0,0.0,0.0,-0.7589,-0.8321,-0.8804,-0.8804,-0.8804,-0.8804,-0.8804,-0.8804,-0.8811,-0.8811,-0.9072,0.0,0.0,0.0,0.0,0.0,0.0,0.0,0.0,0.0,-1.4213,-1.4204,-1.5021,-1.541,-1.541,-1.541,-1.541,-1.541,0.0,0.0,0.0,0.0,0.0,0.0,0.0,0.0,0.0,0.0,0.0,0.0,0.0,0.0,0.0,0.0,0.0,0.0,0.0,0.0,0.0,0.0,-1.9944,-2.0623,-2.0623,-2.0623,-2.1096,-2.3041,-2.2774,-2.227,0.0,0.0,-2.1735,-2.0789,-2.0605,-2.0605,-2.0605,-2.0605,-2.0605,-2.0605,-2.0605,0.0,-2.1886,0.0,0.0,0.0,0.0,0.0,0.0,0.0,-2.483,-2.483,-2.483,0.0,-2.483,-2.3757,-2.4188,-2.6442,-2.6524,-2.6524,-2.6524,-2.7562,-2.8096,-2.8136,-2.8136,-2.8136,-2.8096,-2.7005,-2.7128,-2.8136,-2.8136,-2.8767,0.0,-2.9792,-2.9792,-2.9792,-2.9792,-2.9792,-2.9792,-2.9792,-2.9792,-2.9792,0.0,0.0,0.0,0.0,0.0,0.0,0.0,-0.7889,-0.8235,-0.8725,-0.8804,-0.8804,-0.8804,-0.8804,-0.8804,-0.8804,-0.8891,0.0,0.0,0.0,0.0,0.0,0.0,0.0,0.0,0.0,-1.3644,-1.4213,-1.5021,-1.541,-1.541,-1.541,-1.541,-1.541,-1.541,-1.541,0.0,0.0,0.0,0.0,0.0,0.0,0.0,0.0,0.0,0.0,0.0,0.0,0.0,0.0,0.0,0.0,0.0,0.0,0.0,0.0,0.0,0.0,-2.043,-2.0793,-2.124,-2.223,-2.1945,-2.1635,-2.2339,0.0,-2.0972,-2.0644,-2.0605,-2.0605,-2.0605,-2.0605,-2.0605,-2.0605,-2.0605,0.0,0.0,0.0,0.0,0.0,0.0,0.0,0.0,0.0,-2.3637,-2.3637,-2.3637,-2.3637,-2.3637,-2.3299,-2.343,-2.4145,-2.4188,-2.4553,-2.5336,-2.5661,-2.6243,-2.7005,-2.7005,-2.7005,-2.7005,-2.74,-2.7763,-2.8136,-2.8937,-2.9456,-2.9792,-2.9792,-2.9792,-2.9792,-2.9792,-2.9792,-2.9792,-2.9792,-2.9792,-2.9792,0.0,0.0,0.0,0.0,0.0,0.0,0.0,-0.7536,-0.7969,-0.8699,-0.8804,-0.8804,-0.8804,-0.8804,-0.8804,-0.8804,-0.8804,0.0,0.0,0.0,0.0,0.0,0.0,0.0,0.0,-1.3394,-1.3252,-1.3765,-1.454,-1.4962,-1.4962,-1.5264,-1.541,-1.541,-1.541,-1.541,0.0,0.0,0.0,0.0,0.0,0.0,-1.541,0.0,0.0,0.0,0.0,0.0,0.0,0.0,0.0,0.0,0.0,0.0,0.0,0.0,-1.8395,0.0,0.0,-1.9925,-2.0418,-2.1305,-2.1117,0.0,0.0,0.0,-2.0605,-2.0605,-2.0605,-2.0605,-2.0605,-2.0605,-2.0605,-2.0605,-2.0605,0.0,0.0,0.0,0.0,0.0,0.0,0.0,0.0,-2.3091,-2.3091,-2.3091,-2.3091,-2.3091,-2.3091,-2.3091,-2.3091,-2.3091,-2.3091,-2.343,-2.4168,-2.4585,-2.5168,-2.585,-2.585,-2.585,-2.5891,-2.6119,-2.6438,-2.6889,-2.7614,-2.841,0.0,-2.8712,-2.8791,-2.9118,-2.8712,-2.8542,-2.8581,-2.8988,-2.9157,-2.9236,0.0,0.0,0.0,0.0,0.0,0.0,0.0,-0.7155,-0.7883,-0.8619,-0.8778,-0.8804,-0.8804,-0.8804,-0.8804,-0.8804,0.0,0.0,0.0,0.0,0.0,0.0,0.0,0.0,0.0,-1.3334,-1.2978,-1.2917,-1.3786,-1.4213,-1.4213,-1.5021,-1.541,-1.541,-1.541,-1.541,-1.541,-1.541,-1.541,-1.541,-1.541,-1.541,0.0,0.0,0.0,0.0,0.0,0.0,0.0,0.0,0.0,0.0,0.0,0.0,0.0,0.0,0.0,0.0,0.0,0.0,0.0,0.0,0.0,0.0,0.0,0.0,0.0,-2.0605,-2.0605,-2.0605,-2.0605,-2.0605,-2.0605,-2.0605,0.0,0.0,0.0,0.0,0.0,0.0,0.0,0.0,0.0,-2.3091,-2.3091,-2.3091,-2.3091,-2.3091,-2.3091,-2.3091,-2.3091,-2.3091,-2.3091,-2.3091,-2.3091,-2.4168,-2.467,-2.467,-2.467,-2.467,-2.467,-2.3681,-2.38,0.0,-2.4872,-2.6066,-2.7924,-2.6924,-2.7087,-2.7896,-2.6883,-2.6524,-2.6637,-2.7602,-2.7976,-2.8136,0.0,0.0,0.0,0.0,0.0,0.0,0.0,0.0,0.0,0.0,-0.8454,-0.8804,-0.8804,-0.8804,-0.8804,0.0,0.0,0.0,0.0,0.0,0.0,0.0,0.0,0.0,0.0,-1.2787,-1.2704,-1.2081,-1.3507,-1.4213,-1.4213,-1.5021,-1.541,-1.541,-1.541,-1.541,-1.541,-1.541,-1.541,-1.541,-1.541,-1.541,0.0,0.0,0.0,0.0,-1.6697,-1.7252,0.0,0.0,0.0,0.0,0.0,0.0,0.0,0.0,-1.8008,-1.8008,-1.8008,0.0,-1.9232,-1.9574,-2.0031,-2.0517,0.0,0.0,0.0,0.0,0.0,0.0,-2.0605,-2.0605,0.0,0.0,0.0,0.0,0.0,0.0,0.0,0.0,0.0,0.0,-2.3091,-2.3091,-2.3091,-2.3091,-2.3091,-2.3091,-2.3091,-2.3091,-2.3091,-2.3091,-2.3091,-2.3091,-2.3091,-2.3387,-2.3507,-2.3507,-2.3507,-2.3507,-2.3507,-2.4135,-2.4542,-2.483,-2.5714,-2.6389,-2.6842,-2.6595,-2.6637,-2.6842,-2.6607,-2.6524,-2.6524,-2.676,-2.6883,-2.6924,0.0,0.0,0.0,0.0,0.0,0.0,0.0,0.0,0.0,0.0,0.0,0.0,0.0,0.0,0.0,0.0,0.0,0.0,0.0,0.0,0.0,0.0,0.0,-1.2604,-1.2901,-1.2596,-1.2235,-1.1803,-1.3023,-1.3644,-1.3666,-1.4835,-1.541,-1.541,-1.541,-1.541,-1.541,-1.541,-1.541,-1.541,-1.541,0.0,0.0,0.0,0.0,0.0,-1.6697,-1.7252,0.0,-1.8008,-1.8008,-1.8008,0.0,0.0,0.0,0.0,-1.8008,-1.8008,-1.8008,-1.8633,-1.9287,-1.9287,-1.9969,-2.0605,0.0,0.0,0.0,0.0,0.0,0.0,0.0,0.0,0.0,0.0,0.0,0.0,0.0,0.0,0.0,0.0,0.0,0.0,0.0,-2.3091,-2.3091,-2.3091,-2.3091,-2.3091,-2.3091,-2.3091,-2.3091,-2.3091,-2.3091,-2.3091,-2.3091,-2.3091,-2.3091,-2.3091,-2.3091,-2.3091,-2.3135,-2.3757,-2.4006,-2.4049,-2.4681,-2.5221,-2.5672,-2.5136,-2.5263,-2.5672,-2.5136,-2.4935,-2.502,-2.5515,-2.5714,-2.5797,0.0,0.0,0.0,0.0,0.0,0.0,0.0,0.0,0.0,0.0,0.0,0.0,0.0,0.0,0.0,0.0,0.0,0.0,0.0,0.0,0.0,0.0,0.0,-1.2381,-1.3627,-1.2443,-1.1741,-1.1617,-1.2543,-1.3009,-1.3039,-1.4658,-1.541,-1.541,-1.541,-1.541,-1.541,-1.541,-1.541,-1.541,-1.541,0.0,0.0,0.0,0.0,0.0,0.0,0.0,0.0,-1.8008,-1.8008,-1.8008,-1.8008,0.0,0.0,0.0,0.0,0.0,-1.8008,-1.8633,-1.9287,-1.9287,-1.9969,-2.0605,0.0,0.0,0.0,0.0,0.0,0.0,0.0,0.0,0.0,0.0,0.0,0.0,0.0,0.0,0.0,0.0,0.0,0.0,-2.3091,-2.3091,-2.3091,-2.3091,-2.3091,-2.3091,-2.3091,-2.3091,-2.3091,-2.3091,-2.3091,-2.3091,-2.3091,-2.3091,-2.3091,-2.3091,-2.3091,-2.3091,-2.3091,-2.3091,-2.3091,-2.3091,0.0,0.0,-2.4457,-2.3507,-2.3681,-2.4457,-2.3464,-2.3091,-2.3222,-2.4168,-2.4542,-2.467,0.0,0.0,0.0,0.0,0.0,0.0,0.0,0.0,0.0,0.0,0.0,0.0,0.0,0.0,0.0,0.0,0.0,0.0,0.0,0.0,0.0,0.0,-1.1654,-1.1593,-1.117,-1.1593,-1.1469,-1.0776,-1.2274,-1.3009,-1.3039,-1.4658,-1.541,-1.541,-1.541,-1.541,-1.541,-1.541,-1.541,-1.541,-1.541,0.0,0.0,0.0,0.0,0.0,0.0,0.0,0.0,-1.8008,-1.8008,-1.8008,-1.8008,0.0,0.0,0.0,0.0,0.0,-1.8008,-1.8633,-1.9287,-1.9287,-1.9969,-2.0605,0.0,0.0,0.0,0.0,0.0,0.0,0.0,0.0,0.0,0.0,0.0,0.0,0.0,0.0,0.0,0.0,0.0,-2.3091,-2.3091,-2.3091,-2.3091,-2.3091,-2.3091,-2.3091,-2.3091,-2.3091,-2.3091,-2.3091,-2.3091,-2.3091,-2.3091,-2.3091,-2.3091,-2.3091,-2.3091,-2.3091,-2.3091,-2.3091,-2.3091,-2.3091,0.0,-2.3222,-2.3343,-2.3178,-2.3222,-2.3343,-2.3178,-2.3091,-2.3135,-2.3299,-2.3343,-2.3387,0.0,0.0,0.0,0.0,0.0,0.0,0.0,0.0,0.0,0.0,0.0,0.0,0.0,0.0,0.0,0.0,0.0,0.0,0.0,0.0,0.0,-1.0629,-1.097,-1.1163,-1.1257,-1.1163,-1.0982,-1.0593,-1.2212,-1.2787,-1.2389,-1.3986,-1.4746,-1.4776,-1.5206,-1.541,-1.541,-1.541,-1.541,-1.541,0.0,0.0,0.0,0.0,0.0,0.0,0.0,0.0,0.0,0.0,-1.8008,-1.8008,-1.8008,0.0,0.0,0.0,0.0,0.0,-1.8008,-1.8633,-1.9287,-1.9287,-1.9969,-2.0605,0.0,0.0,0.0,0.0,0.0,0.0,0.0,0.0,0.0,0.0,0.0,0.0,0.0,-2.2441,-2.2877,0.0,0.0,-2.3091,-2.3091,-2.3091,-2.3091,-2.3091,-2.3091,-2.3091,-2.3091,-2.3091,-2.3091,-2.3091,-2.3091,-2.3091,-2.3091,-2.3091,-2.3091,-2.3091,-2.3091,-2.3091,-2.3091,-2.3091,-2.3091,-2.3091,0.0,-2.3091,-2.3091,-2.3091,-2.3091,-2.3091,-2.3091,-2.3091,-2.3091,-2.3091,-2.3091,-2.3091,0.0,0.0,0.0,0.0,0.0,0.0,0.0,0.0,0.0,0.0,0.0,0.0,0.0,0.0,0.0,0.0,0.0,0.0,0.0,0.0,-1.0147,-1.0214,-1.0472,-1.0895,-1.15,-1.0926,-1.0593,-1.0593,-1.2027,-1.2512,-1.2112,-1.3537,-1.4213,-1.4243,-1.505,-1.541,-1.541,-1.541,-1.541,-1.541,0.0,0.0,0.0,0.0,0.0,0.0,0.0,0.0,0.0,0.0,0.0,0.0,0.0,0.0,0.0,-1.8008,-1.8008,-1.8008,-1.8008,-1.8633,-1.9287,-1.9287,0.0,0.0,0.0,0.0,0.0,0.0,0.0,0.0,0.0,0.0,0.0,0.0,0.0,-2.1924,-2.2021,-2.2676,-2.3091,-2.3091,-2.3091,-2.3091,-2.3091,-2.3091,-2.3091,-2.3091,-2.3091,-2.3091,-2.3091,-2.3091,-2.3091,-2.3091,-2.3091,-2.3091,-2.3091,-2.3091,-2.3091,-2.3091,-2.3091,-2.3091,-2.3091,-2.3091,-2.3091,-2.3091,-2.3091,-2.3091,-2.3091,-2.3091,-2.3091,-2.3091,-2.3091,-2.3091,-2.3091,-2.3091,-2.3091,-2.3091,0.0,0.0,0.0,0.0,0.0,0.0,0.0,0.0,0.0,0.0,0.0,0.0,0.0,0.0,0.0,0.0,0.0,0.0,0.0,0.0,-1.0241,-1.0546,-1.0579,-1.0624,-1.0688,-1.0624,-1.0593,-1.0593,-1.1469,-1.2235,-1.2917,-1.3786,-1.4213,-1.4243,-1.505,-1.541,-1.541,-1.541,-1.541,-1.541,-1.541,0.0,0.0,0.0,0.0,0.0,0.0,0.0,0.0,0.0,0.0,0.0,0.0,0.0,-1.8008,-1.8008,-1.8008,-1.8008,-1.8008,-1.8633,-1.9287,-1.9287,-1.9969,0.0,-2.0605,-2.0605,0.0,-2.0605,0.0,0.0,0.0,0.0,0.0,0.0,0.0,-2.2021,-2.2412,0.0,-2.3091,-2.3091,-2.3091,-2.3091,-2.3091,-2.3091,-2.3091,-2.3091,-2.3091,-2.3091,-2.3091,-2.3091,-2.3091,-2.3091,-2.3091,-2.3091,-2.3091,-2.3091,-2.3091,-2.3091,-2.3091,-2.3091,-2.3091,-2.3091,-2.3091,-2.3091,-2.3091,-2.3091,-2.3091,-2.3091,-2.3091,-2.3091,-2.3091,-2.3091,-2.3091,-2.3091,-2.3091,-2.3091,0.0,0.0,0.0,0.0,0.0,0.0,0.0,0.0,0.0,0.0,0.0,0.0,0.0,0.0,0.0,0.0,0.0,0.0,0.0,0.0,-1.0472,-1.0586,-1.0593,-1.0593,-1.0593,-1.0593,-1.0593,-1.0593,-1.0895,-1.1476,-1.2266,-1.3092,-1.3183,-1.2779,-1.459,-1.5108,-1.4688,-1.5206,-1.541,-1.5439,-1.5703,-1.5948,0.0,0.0,0.0,0.0,0.0,0.0,0.0,0.0,-1.8008,-1.8008,-1.8008,-1.8008,-1.8008,-1.8008,-1.8008,-1.8066,-1.8295,-1.8838,-1.9346,-1.9609,0.0,0.0,0.0,-2.0605,-2.0605,-2.0605,-2.0605,0.0,0.0,0.0,0.0,0.0,0.0,-2.2031,-2.2451,-2.2828,-2.3091,-2.3091,-2.3091,-2.3091,-2.3091,-2.3091,-2.3091,-2.3091,-2.3091,-2.3091,-2.3091,-2.3091,-2.3091,-2.3091,-2.3091,-2.3091,-2.3091,-2.3091,-2.3091,-2.3091,-2.3091,-2.3091,-2.3091,-2.3091,-2.3091,-2.3091,-2.3091,-2.3091,-2.3091,-2.3091,-2.3091,-2.3091,-2.3091,-2.3091,-2.3091,-2.3091,-2.3091,-2.3091,0.0,0.0,0.0,0.0,0.0,0.0,0.0,0.0,0.0,0.0,0.0,0.0,0.0,0.0,0.0,0.0,0.0,0.0,-1.0579,-1.0593,-1.0593,-1.0593,-1.0593,-1.0593,-1.0593,-1.0593,-1.0593,-1.0593,-1.0593,-1.1014,-1.1795,-1.2358,-1.2451,-1.2258,-1.4165,-1.4717,-1.4243,-1.4785,-1.5244,-1.5644,-1.5696,-1.6036,0.0,0.0,0.0,0.0,0.0,0.0,0.0,0.0,-1.8008,-1.8008,-1.8008,-1.8008,-1.8008,-1.8008,-1.8008,-1.8105,-1.849,-1.8955,-1.9394,0.0,0.0,0.0,-2.0605,-2.0605,-2.0605,-2.0605,-2.0605,0.0,0.0,0.0,0.0,0.0,-2.1807,-2.2227,-2.2646,-2.2916,-2.3091,-2.3091,-2.3091,-2.3091,-2.3091,-2.3091,-2.3091,-2.3091,-2.3091,-2.3091,-2.3091,-2.3091,-2.3091,-2.3091,-2.3091,-2.3091,-2.3091,-2.3091,-2.3091,-2.3091,-2.3091,-2.3091,-2.3091,-2.3091,-2.3091,-2.3091,-2.3091,-2.3091,-2.3091,-2.3091,-2.3091,-2.3091,-2.3091,-2.3091,-2.3091,-2.3091,-2.3091,-2.3091,0.0,0.0,0.0,0.0,0.0,0.0,0.0,0.0,0.0,0.0,0.0,0.0,0.0,0.0,0.0,0.0,0.0,0.0,-1.0593,-1.0593,-1.0593,-1.0593,-1.0593,-1.0593,-1.0593,-1.0593,-1.0593,-1.0593,-1.0593,-1.1021,-1.1803,-1.1803,-1.2235,-1.3009,-1.3825,-1.4183,-1.4183,-1.4183,-1.4939,-1.6034,-1.5229,-1.592,-1.7383,0.0,0.0,0.0,0.0,0.0,0.0,0.0,-1.8008,-1.8008,-1.8008,-1.8008,-1.8008,-1.8008,-1.8008,-1.8105,-1.849,-1.8955,-1.9394,0.0,0.0,0.0,0.0,0.0,-2.0605,-2.0605,0.0,-2.0605,-2.0605,0.0,0.0,-2.1816,-2.2236,-2.2656,-2.3033,-2.3091,-2.3091,-2.3091,-2.3091,-2.3091,-2.3091,-2.3091,-2.3091,-2.3091,-2.3091,-2.3091,-2.3091,-2.3091,-2.3091,-2.3091,-2.3091,-2.3091,-2.3091,-2.3091,-2.3091,-2.3091,-2.3091,-2.3091,-2.3091,-2.3091,-2.3091,-2.3091,-2.3091,-2.3091,-2.3091,-2.3091,-2.3091,-2.3091,-2.3091,-2.3091,-2.3091,-2.3091,-2.3091,-2.3091,0.0,0.0,0.0,0.0,0.0,0.0,0.0,0.0,0.0,0.0,0.0,0.0,0.0,0.0,0.0,0.0,0.0,0.0,-1.0593,-1.0593,-1.0593,-1.0593,-1.0593,-1.0593,-1.0593,-1.0593,-1.0593,-1.0593,-1.0593,-1.0713,-1.0958,-1.1531,-1.1624,-1.1358,-1.2726,-1.3023,-1.2551,-1.3327,-1.425,-1.5266,-1.55,-1.6318,-1.7422,0.0,0.0,0.0,0.0,0.0,0.0,0.0,0.0,0.0,-1.8008,-1.8008,-1.8008,-1.8008,-1.8008,-1.8164,-1.8896,-1.9189,0.0,0.0,0.0,0.0,0.0,0.0,0.0,0.0,0.0,-2.0605,-2.0605,0.0,0.0,-2.1816,-2.2236,-2.2656,-2.3033,-2.3091,-2.3091,-2.3091,-2.3091,-2.3091,-2.3091,-2.3091,-2.3091,-2.3091,-2.3091,-2.3091,-2.3091,-2.3091,-2.3091,-2.3091,-2.3091,-2.3091,-2.3091,-2.3091,-2.3091,-2.3091,-2.3091,-2.3091,-2.3091,-2.3091,-2.3091,-2.3091,-2.3091,-2.3091,-2.3091,-2.3091,-2.3091,-2.3091,-2.3091,-2.3091,-2.3091,-2.3091,-2.3091,-2.3091,0.0,0.0,0.0,0.0,0.0,0.0,0.0,0.0,0.0,0.0,0.0,0.0,0.0,0.0,0.0,0.0,0.0,0.0,0.0,-1.0593,-1.0593,-1.0593,-1.0593,-1.0593,-1.0593,-1.0593,-1.0593,-1.0593,-1.0593,-1.0776,-1.1076,-1.1257,-1.1226,-1.1108,-1.2089,-1.2305,-1.2005,-1.2647,-1.3638,-1.4757,-1.4841,-1.5767,-1.7125,0.0,0.0,0.0,0.0,0.0,0.0,0.0,0.0,0.0,-1.8008,-1.8008,-1.8008,-1.8008,-1.8008,-1.8193,-1.9053,0.0,0.0,0.0,0.0,0.0,0.0,0.0,0.0,0.0,0.0,-2.0605,-2.0605,-2.1074,0.0,-2.1846,-2.2373,-2.2808,-2.3062,-2.3091,-2.3091,-2.3091,-2.3091,-2.3091,-2.3091,-2.3091,-2.3091,-2.3091,-2.3091,-2.3091,-2.3091,-2.3091,-2.3091,-2.3091,-2.3091,-2.3091,-2.3091,-2.3091,-2.3091,-2.3091,-2.3091,-2.3091,-2.3091,-2.3091,-2.3091,-2.3091,-2.3091,-2.3091,-2.3091,-2.3091,-2.3091,-2.3091,-2.3091,-2.3091,-2.3091,-2.3091,-2.3091,-2.3091,0.0,0.0,0.0,0.0,0.0,0.0,0.0,0.0,0.0,0.0,0.0,0.0,0.0,0.0,0.0,0.0,0.0,0.0,0.0,0.0,-1.0593,-1.0593,-1.0593,-1.0593,-1.0593,-1.0593,-1.0593,-1.0593,-1.0593,-1.0982,-1.1679,-1.0926,-1.0982,-1.1679,-1.1709,-1.1855,-1.2096,-1.2155,-1.3025,-1.4352,-1.37,-1.4727,-1.6602,-1.6706,0.0,0.0,0.0,0.0,0.0,0.0,0.0,0.0,-1.7896,-1.794,-1.7974,-1.7896,-1.7969,-1.8252,-1.9062,0.0,0.0,0.0,0.0,0.0,0.0,0.0,0.0,0.0,0.0,-2.0605,-2.0605,-2.1329,-2.1885,-2.1885,-2.2598,-2.3091,-2.3091,-2.3091,-2.3091,-2.3091,-2.3091,-2.3091,-2.3091,-2.3091,-2.3091,-2.3091,-2.3091,-2.3091,-2.3091,-2.3091,-2.3091,-2.3091,-2.3091,-2.3091,-2.3091,-2.3091,-2.3091,-2.3091,-2.3091,-2.3091,-2.3091,-2.3091,-2.3091,-2.3091,-2.3091,-2.3091,-2.3091,-2.3091,-2.3091,-2.3091,-2.3091,-2.3091,-2.3091,-2.3091,-2.3091,-2.3091,0.0,0.0,0.0,0.0,0.0,0.0,0.0,0.0,0.0,0.0,0.0,0.0,0.0,0.0,0.0,0.0,0.0,0.0,0.0,0.0,-1.0593,-1.0593,-1.0593,-1.0593,-1.0593,-1.0593,-1.0593,-1.0593,-1.0593,-1.0688,-1.0863,-1.0681,-1.0681,-1.0877,-1.1079,-1.1183,-1.1272,-1.1751,-1.2577,-1.3623,-1.4449,-1.5511,-1.6671,-1.7432,-1.7828,0.0,0.0,0.0,0.0,0.0,0.0,0.0,-1.7139,-1.7398,-1.7862,-1.7104,-1.766,-1.8578,0.0,-1.9531,0.0,0.0,0.0,0.0,0.0,0.0,0.0,0.0,-2.0605,-2.0605,-2.0605,-2.1329,-2.1885,-2.1885,-2.2598,-2.3091,-2.3091,-2.3091,-2.3091,-2.3091,-2.3091,-2.3091,-2.3091,-2.3091,-2.3091,-2.3091,-2.3091,-2.3091,-2.3091,-2.3091,-2.3091,-2.3091,-2.3091,-2.3091,-2.3091,-2.3091,-2.3091,-2.3091,-2.3091,-2.3091,-2.3091,-2.3091,-2.3091,-2.3091,-2.3091,-2.3091,-2.3091,-2.3091,-2.3091,-2.3091,-2.3091,-2.3091,-2.3091,-2.3091,-2.3091,-2.3091,0.0,0.0,0.0,0.0,0.0,0.0,0.0,0.0,0.0,0.0,0.0,0.0,0.0,0.0,0.0,0.0,0.0,0.0,0.0,0.0,-1.0593,-1.0593,-1.0593,-1.0593,-1.0593,-1.0593,-1.0593,-1.0593,-1.0593,-1.0593,-1.0593,-1.0593,-1.0667,-1.0807,-1.0922,-1.1149,-1.1464,-1.1772,-1.2266,-1.287,-1.3526,-1.4371,-1.5261,-1.5763,-1.6228,-1.6655,-1.6655,0.0,0.0,0.0,0.0,0.0,0.0,0.0,-1.7217,-1.674,-1.7532,-1.8695,0.0,0.0,0.0,0.0,0.0,0.0,0.0,0.0,0.0,0.0,-2.0605,-2.0605,-2.0605,-2.1113,-2.1641,-2.1846,-2.2422,-2.2867,-2.3062,-2.3091,-2.3091,-2.3091,-2.3091,-2.3091,-2.3091,-2.3091,-2.3091,-2.3091,-2.3091,-2.3091,-2.3091,-2.3091,-2.3091,-2.3091,-2.3091,-2.3091,-2.3091,-2.3091,-2.3091,-2.3091,-2.3091,-2.3091,-2.3091,-2.3091,-2.3091,-2.3091,-2.3091,-2.3091,-2.3091,-2.3091,-2.3091,-2.3091,-2.3091,-2.3091,-2.3091,-2.3091,-2.3091,-2.3091,0.0,0.0,0.0,0.0,0.0,0.0,0.0,0.0,0.0,0.0,0.0,0.0,0.0,0.0,0.0,0.0,0.0,0.0,0.0,0.0,0.0,-1.0593,-1.0593,-1.0593,-1.0593,-1.0593,-1.0593,-1.0593,-1.0593,-1.062,0.0,-1.0667,-1.0794,-1.0995,-1.1096,-1.1444,-1.1906,-1.196,-1.2084,-1.2298,-1.2482,-1.3025,-1.3709,-1.3882,-1.4494,-1.5199,-1.5199,-1.5199,-1.5199,-1.5199,0.0,0.0,0.0,0.0,-1.6367,-1.643,-1.7424,-1.8624,0.0,0.0,0.0,0.0,0.0,0.0,0.0,0.0,0.0,0.0,-2.0605,-2.0605,-2.0605,-2.0937,-2.1317,-2.1719,-2.2129,-2.2519,-2.2828,-2.2945,-2.2984,-2.2984,-2.3052,-2.3091,-2.3091,-2.3091,-2.3091,-2.3091,-2.3091,-2.3091,-2.3091,-2.3091,-2.3091,-2.3091,-2.3091,-2.3091,-2.3091,-2.3091,-2.3091,-2.3091,-2.3091,-2.3091,-2.3091,-2.3091,-2.3091,-2.3091,-2.3091,-2.3091,-2.3091,-2.3091,-2.3091,-2.3091,-2.3091,-2.3091,-2.3091,-2.3091,-2.3091,-2.3091,0.0,0.0,0.0,0.0,0.0,0.0,0.0,0.0,0.0,0.0,0.0,0.0,0.0,0.0,0.0,0.0,0.0,0.0,-1.0593,0.0,0.0,-1.0593,-1.0593,-1.0593,-1.0593,-1.0593,-1.0593,-1.0593,-1.0593,0.0,0.0,0.0,0.0,-1.1015,-1.1558,-1.1832,-1.1926,-1.2138,-1.2265,-1.2372,-1.3208,-1.36,-1.3818,-1.4665,-1.5092,-1.5199,-1.5199,-1.5199,-1.5199,-1.5199,-1.5199,0.0,0.0,0.0,-1.547,-1.5816,-1.6895,-1.8276,0.0,0.0,0.0,0.0,0.0,0.0,0.0,0.0,0.0,0.0,-2.0605,-2.0605,-2.0605,-2.0937,-2.121,-2.1268,-2.1689,-2.1992,-2.2041,-2.2363,-2.2598,-2.2598,-2.2877,-2.3091,-2.3091,-2.3091,-2.3091,-2.3091,-2.3091,-2.3091,-2.3091,-2.3091,-2.3091,-2.3091,-2.3091,-2.3091,-2.3091,-2.3091,-2.3091,-2.3091,-2.3091,-2.3091,-2.3091,-2.3091,-2.3091,-2.3091,-2.3091,-2.3091,-2.3091,-2.3091,-2.3091,-2.3091,-2.3091,-2.3091,-2.3091,-2.3091,-2.3091,-2.3091,0.0,0.0,0.0,0.0,0.0,0.0,0.0,0.0,0.0,0.0,0.0,0.0,0.0,0.0,0.0,-1.0593,-1.0593,-1.0593,-1.0593,-1.0593,-1.0593,-1.0593,-1.0593,-1.0593,-1.0593,-1.0593,-1.0593,-1.0593,0.0,0.0,0.0,-1.1363,-1.1517,0.0,0.0,0.0,-1.2124,0.0,-1.2305,-1.2335,-1.2732,0.0,-1.3025,-1.3991,-1.4343,-1.4343,-1.4343,-1.4343,-1.4279,-1.373,-1.3593,-1.3484,-1.3062,0.0,0.0,0.0,-1.6336,0.0,0.0,0.0,0.0,0.0,0.0,0.0,0.0,0.0,0.0,0.0,-2.0605,-2.0605,-2.0605,-2.0723,-2.0947,-2.1151,-2.1356,-2.1611,-2.1846,-2.2041,-2.2158,-2.2158,-2.2324,-2.2441,-2.2441,-2.2441,-2.2441,-2.2441,-2.2441,-2.2539,-2.273,-2.274,-2.2847,-2.3091,-2.3091,-2.3091,-2.3091,-2.3091,-2.3091,-2.3091,-2.3091,-2.3091,-2.3091,-2.3091,-2.3091,-2.3091,-2.3091,-2.3091,-2.3091,-2.3091,-2.3091,-2.3091,-2.3091,-2.3091,-2.3091,-2.3091,-2.3091,-2.3091,0.0,0.0,0.0,0.0,0.0,0.0,0.0,0.0,0.0,0.0,0.0,0.0,0.0,0.0,0.0,0.0,-1.0593,-1.0593,-1.0593,-1.0593,-1.0593,-1.0593,-1.0593,-1.0593,-1.0593,-1.0667,-1.07,-1.07,0.0,0.0,-1.1229,-1.1698,-1.1946,0.0,-1.2013,-1.2098,0.0,0.0,0.0,0.0,0.0,0.0,0.0,-1.3346,-1.3564,-1.3419,-1.3882,-1.3774,-1.331,-1.3127,-1.2879,-1.2673,-1.2755,-1.3462,0.0,0.0,0.0,0.0,0.0,0.0,0.0,0.0,0.0,0.0,0.0,0.0,0.0,0.0,-2.0605,-2.0605,-2.0605,-2.0605,-2.0713,-2.1016,-2.1064,-2.1182,-2.1504,-2.165,-2.1719,-2.1719,-2.1816,-2.1885,-2.1885,-2.1885,-2.1885,-2.1885,-2.1885,-2.2021,-2.2334,-2.2353,-2.25,-2.2812,-2.2822,-2.2822,-2.2822,-2.2886,-2.2935,-2.2935,-2.3042,-2.3091,-2.3091,-2.3091,-2.3091,-2.3091,-2.3091,-2.3091,-2.3091,-2.3091,-2.3091,-2.3091,-2.3091,-2.3091,-2.3091,-2.3091,-2.3091,-2.3091,0.0,0.0,0.0,0.0,0.0,0.0,0.0,0.0,0.0,0.0,0.0,0.0,-1.0428,-1.0561,-1.0593,-1.0593,-1.0593,-1.0593,-1.0593,-1.0593,-1.0593,-1.0593,-1.0593,0.0,-1.0593,-1.0861,-1.0969,0.0,0.0,0.0,-1.1859,-1.1893,-1.2053,-1.2278,-1.2278,-1.2285,-1.2305,0.0,0.0,0.0,0.0,0.0,0.0,-1.3346,-1.3135,-1.2622,-1.445,-1.3947,-1.2666,-1.445,-1.4414,-1.3688,-1.4007,-1.4834,-1.5622,0.0,0.0,0.0,0.0,0.0,0.0,0.0,0.0,0.0,0.0,0.0,0.0,0.0,-2.0605,-2.0605,-2.0605,-2.0605,-2.0615,-2.0635,-2.0635,-2.0644,-2.0664,-2.1006,-2.1229,-2.1229,-2.1631,-2.1885,-2.1885,-2.1885,-2.1885,-2.1885,-2.1885,-2.1894,-2.1924,-2.1924,-2.1924,-2.1953,-2.1953,-2.1953,-2.1953,-2.2344,-2.2549,-2.2549,-2.2906,-2.3091,-2.3091,-2.3091,-2.3091,-2.3091,-2.3091,-2.3091,-2.3091,-2.3091,-2.3091,-2.3091,-2.3091,-2.3091,-2.3091,-2.3091,-2.3091,-2.3091,0.0,0.0,0.0,0.0,0.0,0.0,0.0,0.0,0.0,0.0,0.0,0.0,0.0,-1.0269,-1.0593,-1.0593,-1.0593,-1.0673,-1.0861,-1.0868,-1.0922,-1.1109,-1.1116,-1.1116,-1.1116,-1.1216,-1.1269,0.0,0.0,-1.1764,-1.1906,-1.2094,-1.2204,-1.2305,-1.2305,-1.2305,-1.2305,-1.2305,0.0,0.0,0.0,0.0,0.0,0.0,0.0,0.0,0.0,0.0,-1.4442,-1.4531,-1.4021,-1.3394,-1.3505,-1.4284,-1.531,-1.6086,0.0,0.0,0.0,0.0,0.0,0.0,0.0,0.0,0.0,0.0,0.0,-2.0605,-2.0605,-2.0605,-2.0605,-2.0605,-2.0605,-2.0605,-2.0605,-2.0605,-2.0605,-2.0703,-2.0801,-2.0801,-2.0937,-2.1075,-2.1075,-2.1075,-2.1075,-2.1075,-2.1075,-2.1162,-2.1455,-2.1465,-2.1592,-2.1875,-2.1885,-2.1885,-2.1885,-2.2031,-2.2109,-2.2119,-2.2266,-2.248,-2.2691,-2.2691,-2.2838,-2.3091,-2.3091,-2.3091,-2.3091,-2.3091,-2.3091,-2.3091,-2.3091,-2.3091,-2.3091,-2.3091,-2.3091,-2.3091,0.0,0.0,0.0,0.0,0.0,0.0,0.0,0.0,0.0,-0.6621,0.0,0.0,0.0,0.0,-1.0451,-1.0842,-1.0888,-1.0929,-1.1129,-1.1136,-1.1223,-1.1382,-1.1389,-1.1389,-1.1389,-1.1389,0.0,0.0,0.0,0.0,0.0,-1.2211,-1.2305,-1.2305,-1.2305,-1.2305,0.0,0.0,0.0,-1.2305,0.0,0.0,-1.2631,0.0,0.0,0.0,0.0,0.0,-1.5873,-1.5889,-1.5413,-1.4715,-1.4474,-1.4464,-1.4819,-1.6134,0.0,0.0,-1.6041,0.0,0.0,0.0,0.0,0.0,0.0,0.0,0.0,-2.0527,-2.0605,-2.0605,-2.0605,-2.0605,-2.0605,-2.0605,-2.0605,-2.0605,-2.0605,-2.0605,-2.0489,-2.0128,-2.004,-2.004,-2.004,-2.004,-2.0196,-2.0566,-2.0605,0.0,-2.0996,-2.1016,-2.1143,-2.1435,-2.1445,-2.1445,-2.1445,-2.1592,-2.167,-2.167,-2.1816,-2.2031,-2.2305,-2.2305,-2.2529,-2.2886,-2.2886,-2.2964,-2.3091,-2.3091,-2.3091,-2.3091,-2.3091,-2.3091,-2.3091,-2.3091,-2.3091,-2.3091,0.0,0.0,0.0,0.0,0.0,0.0,0.0,0.0,-0.6658,-0.6695,0.0,0.0,0.0,0.0,0.0,-1.1294,-1.1389,-1.1395,-1.1402,-1.1402,-1.1409,-1.1415,-1.1415,-1.1415,-1.1415,0.0,0.0,0.0,0.0,0.0,0.0,0.0,-1.2305,-1.2305,-1.2305,-1.2305,-1.2305,0.0,-1.2305,-1.2318,0.0,-1.2492,-1.2912,0.0,0.0,0.0,-1.698,-1.7084,0.0,-1.8535,0.0,0.0,0.0,0.0,0.0,0.0,0.0,0.0,0.0,0.0,0.0,0.0,0.0,0.0,0.0,0.0,0.0,-2.0284,-2.0518,-2.0527,-2.0518,-2.0566,-2.0605,-2.0566,-2.0566,-2.0605,-2.0605,-2.0605,-2.0196,-1.9155,-1.9045,-1.9045,-1.9045,-1.9045,-1.9481,-2.0527,-2.0605,-2.0605,-2.0605,-2.0605,-2.0605,-2.0605,-2.0605,-2.0605,-2.0605,-2.0996,-2.1171,-2.1181,-2.1641,-2.1855,-2.1865,-2.1865,-2.21,-2.249,-2.249,-2.2691,-2.3081,-2.3091,-2.3091,-2.3091,-2.3091,-2.3091,-2.3091,-2.3091,-2.3091,-2.3091,0.0,0.0,0.0,0.0,0.0,0.0,-0.5395,-0.5591,-0.6021,0.0,0.0,0.0,-0.9202,-1.0322,-1.1064,-1.1382,-1.1389,-1.1482,-1.173,-1.175,-1.1844,-1.2051,-1.2058,-1.2058,-1.2058,-1.2058,-1.2104,-1.2184,-1.2184,-1.2225,-1.2305,-1.2305,-1.2305,0.0,-1.2305,-1.2305,-1.2305,-1.2305,0.0,-1.2663,-1.2663,-1.2844,0.0,0.0,0.0,0.0,0.0,-1.6025,-1.5543,0.0,-1.6261,-1.6404,0.0,0.0,0.0,0.0,0.0,0.0,-1.4088,0.0,0.0,0.0,0.0,0.0,0.0,0.0,0.0,-1.8141,-1.8868,-1.9195,-1.835,-1.9511,-2.0362,-1.9559,-2.0079,-2.0605,-2.0605,-2.0605,-2.0489,-2.0196,-2.0157,-2.0157,-2.0157,-2.0157,-2.0284,0.0,-2.0605,-2.0605,-2.0605,-2.0605,-2.0605,-2.0605,-2.0605,-2.0605,-2.0605,-2.0723,-2.0752,-2.0752,-2.0918,-2.1103,-2.1375,-2.1375,-2.165,-2.206,-2.206,-2.2295,-2.2672,-2.2974,-2.3091,-2.3091,-2.3091,-2.3091,-2.3091,-2.3091,-2.3091,-2.3091,0.0,0.0,0.0,0.0,0.0,-0.5491,-0.5491,-0.5845,-0.6188,0.0,0.0,0.0,-1.0014,-1.0724,-1.1272,-1.1742,-1.179,-1.1864,-1.2037,-1.2087,-1.2124,-1.2291,-1.2305,-1.2305,-1.2305,-1.2184,-1.2178,-1.2305,-1.2178,-1.2184,-1.2305,-1.2305,-1.2305,0.0,0.0,0.0,0.0,0.0,0.0,0.0,-1.2924,0.0,0.0,-1.3966,-1.4547,0.0,0.0,0.0,-1.6661,-1.618,-1.5866,0.0,0.0,0.0,0.0,0.0,0.0,0.0,0.0,0.0,0.0,0.0,0.0,0.0,-1.5621,-1.6191,-1.6764,0.0,-1.7827,-1.8109,-1.7415,-1.8341,-1.9027,-1.839,-1.8829,-1.9392,-1.9883,-1.9923,-1.9766,-1.9274,-1.9234,-1.9392,-1.9883,-1.9923,-2.0118,-2.0566,-2.0605,-2.0605,-2.0605,-2.0605,-2.0605,-2.0605,-2.0605,-2.0605,-2.0605,-2.0605,-2.0605,-2.0605,-2.0605,-2.0703,-2.0957,-2.0957,-2.1201,-2.1611,-2.1611,-2.1855,-2.2285,-2.2662,-2.2935,-2.3091,-2.3091,-2.3091,-2.3091,-2.3091,-2.3091,-2.3091,0.0,0.0,-0.5443,-0.5443,-0.5559,-0.5613,-0.5613,-0.6385,-0.6694,0.0,-0.7405,-0.899,-1.0292,-1.0575,-1.1064,-1.2204,-1.2305,-1.2305,-1.2305,-1.2305,-1.2305,-1.2305,-1.2305,-1.2305,-1.2305,-1.2087,-1.2044,-1.2305,-1.2044,-1.2087,-1.2305,-1.2305,-1.2318,-1.2365,0.0,0.0,0.0,0.0,0.0,-1.2911,-1.3146,-1.3393,0.0,0.0,-1.4413,-1.5538,-1.5538,-1.6797,-1.831,-1.7415,-1.6396,0.0,0.0,0.0,0.0,0.0,-1.4088,0.0,0.0,0.0,0.0,0.0,-1.4088,0.0,-1.5296,-1.5538,-1.5786,0.0,-1.7058,-1.7098,-1.6976,-1.7139,-1.7261,-1.7131,-1.7212,-1.7658,-1.8678,-1.8798,-1.8439,-1.7415,-1.7302,-1.7747,-1.8877,-1.8997,-1.9441,-2.0527,-2.0605,-2.0605,-2.0605,-2.0605,-2.0605,-2.0605,-2.0605,-2.0605,-2.0605,-2.0605,-2.0605,-2.0605,-2.0605,-2.0605,-2.0605,-2.0605,-2.0781,-2.1122,-2.1122,-2.1406,-2.1846,-2.2217,-2.2604,-2.3033,-2.3081,-2.3091,-2.3091,-2.3091,-2.3091,-2.3091,0.0,0.0,-0.5715,-0.5715,-0.5739,-0.5762,-0.5762,-0.5926,-0.6024,-0.5969,-0.7131,-0.836,-0.9451,-1.0273,-1.1187,-1.2218,-1.2305,-1.2305,-1.2305,-1.2305,-1.2305,-1.2305,-1.2305,-1.2305,-1.2305,-1.2245,-1.2245,-1.2305,-1.2245,-1.2245,-1.2305,-1.2305,-1.2432,-1.2697,0.0,0.0,0.0,0.0,0.0,-1.3433,-1.3493,0.0,-1.4001,-1.4001,-1.4154,-1.4412,-1.4412,-1.4699,-1.5144,-1.5786,-1.5304,-1.4573,0.0,0.0,0.0,-1.4088,0.0,0.0,0.0,0.0,0.0,0.0,-1.4088,0.0,-1.437,-1.4412,-1.4454,0.0,-1.5421,-1.5745,-1.4859,-1.6124,-1.7009,-1.615,-1.6723,-1.7374,-1.7585,-1.7617,-1.7536,-1.7342,-1.7302,-1.7747,-1.8877,-1.8997,-1.9441,-2.0527,-2.0605,-2.0605,-2.0605,-2.0605,-2.0605,-2.0605,-2.0605,-2.0605,-2.0605,-2.0605,-2.0605,-2.0605,-2.0605,-2.0605,-2.0605,-2.0605,-2.0654,-2.0732,-2.0732,-2.0947,-2.1327,-2.1405,-2.1892,-2.2666,-2.2964,-2.3091,-2.3091,-2.3091,-2.3091,-2.3091,0.0,-0.58,-0.58,-0.58,-0.5864,-0.5915,-0.5915,-0.5983,-0.6057,-0.6135,-0.7533,-0.8917,-0.9927,-1.0944,-1.1731,-1.2261,-1.2305,-1.2305,-1.2305,-1.2305,-1.2305,-1.2305,-1.2305,-1.2305,-1.2305,-1.2305,-1.2305,-1.2305,-1.2305,-1.2378,-1.2563,-1.2563,-1.2723,-1.3025,0.0,0.0,0.0,0.0,-1.3868,-1.3868,-1.3868,0.0,-1.4088,-1.4088,-1.4088,-1.4088,-1.4088,-1.4088,-1.425,-1.5338,-1.4977,0.0,-1.4734,-1.4531,-1.4088,0.0,-1.4088,-1.4088,0.0,0.0,0.0,-1.4088,-1.4088,0.0,0.0,-1.4088,-1.4088,-1.4088,-1.4531,-1.4734,-1.4208,-1.4985,-1.5511,-1.4977,-1.5345,-1.5718,-1.5718,-1.6157,-1.6519,-1.6519,-1.6519,-1.6927,-1.8029,-1.8149,-1.839,-1.8908,-1.9481,-1.9805,-1.9805,-2.0323,-2.0605,-2.0605,-2.0605,-2.0605,-2.0605,-2.0605,-2.0605,-2.0605,-2.0605,-2.0605,-2.0605,-2.0605,-2.0605,-2.0605,-2.0605,-2.0693,-2.0918,-2.1103,-2.1453,-2.1892,-2.2535,-2.2779,-2.2808,-2.3013,-2.3091,-2.3091,-0.5891,0.0,-0.5891,-0.5891,-0.5993,-0.6074,-0.6074,-0.6179,-0.6377,-0.6567,-0.8012,-0.948,-1.0671,-1.1502,-1.2077,-1.2261,-1.2305,-1.2325,-1.2385,-1.2385,-1.2385,-1.2385,-1.2445,-1.2445,-1.2385,-1.2445,-1.2478,-1.2478,-1.2478,-1.2599,-1.2878,-1.2878,-1.3038,0.0,0.0,0.0,0.0,0.0,0.0,-1.4088,0.0,-1.4088,-1.4088,-1.4088,-1.4088,-1.4088,-1.4088,-1.4088,-1.425,-1.5095,-1.4817,-1.4088,-1.4088,-1.4088,0.0,0.0,0.0,0.0,0.0,0.0,0.0,0.0,0.0,-1.4088,0.0,0.0,0.0,-1.4088,-1.4088,-1.4088,0.0,-1.4088,0.0,0.0,0.0,0.0,0.0,-1.4817,0.0,-1.5372,-1.5372,-1.5827,-1.6887,-1.7172,-1.7302,-1.7302,-1.8149,-1.8758,-1.9006,-1.9805,-2.0401,-2.0605,-2.0605,-2.0605,-2.0605,-2.0605,-2.0605,-2.0605,-2.0605,-2.0605,-2.0605,-2.0605,-2.0605,-2.0605,-2.0605,-2.0605,-2.0635,-2.0957,-2.1064,-2.1151,-2.2051,-2.2441,-2.2549,-2.2847,-2.3023,-2.3091,-0.6245,-0.6245,0.0,-0.6245,-0.6262,-0.6272,-0.6272,-0.6289,-0.6602,-0.7518,-0.7821,-0.8685,-1.0596,-1.0895,-1.1316,-1.2224,-1.2305,-1.2412,-1.2717,-1.273,-1.273,-1.273,-1.2959,-1.2979,-1.2737,-1.2966,-1.3106,-1.3106,-1.3106,-1.3126,-1.316,-1.316,0.0,0.0,-1.3586,0.0,0.0,0.0,-1.4088,0.0,-1.4088,-1.4088,0.0,-1.4088,-1.4088,-1.4088,-1.4088,-1.4088,-1.413,0.0,-1.4208,-1.4088,0.0,-1.4088,-1.4088,-1.4088,0.0,0.0,0.0,0.0,0.0,0.0,-1.4088,-1.4088,-1.4088,0.0,-1.4088,-1.4088,0.0,-1.4088,-1.4088,0.0,0.0,0.0,0.0,0.0,-1.3693,-1.3998,-1.4292,-1.4292,-1.4292,-1.4692,-1.5786,-1.6723,-1.7302,-1.7302,-1.7415,-1.7948,-1.8957,-1.9116,-1.9599,-2.0566,-2.0605,-2.0605,-2.0605,-2.0605,-2.0605,-2.0605,-2.0605,-2.0605,-2.0605,-2.0605,-2.0605,-2.0605,-2.0605,-2.0605,-2.0605,-2.0664,-2.0683,-2.0772,-2.1611,-2.2187,-2.2519,-2.2568,-2.2779,-2.3091,-0.63,-0.63,0.0,-0.63,-0.63,-0.63,-0.63,-0.63,-0.6482,-0.6995,-0.7548,-0.8286,-0.9183,0.0,0.0,0.0,0.0,-1.2879,-1.3006,-1.3013,-1.3013,-1.3013,-1.314,-1.3153,-1.3019,-1.314,-1.3213,-1.3213,-1.3213,-1.33,-1.342,-1.342,0.0,0.0,-1.3901,0.0,-1.4088,0.0,-1.4088,0.0,0.0,0.0,0.0,-1.4088,-1.4088,-1.4088,-1.4088,-1.4088,-1.4088,0.0,-1.4088,0.0,0.0,0.0,0.0,-1.4088,0.0,0.0,0.0,0.0,0.0,0.0,0.0,0.0,-1.4088,0.0,-1.4088,-1.4088,0.0,0.0,0.0,0.0,0.0,0.0,-1.4008,0.0,0.0,0.0,-1.4088,0.0,0.0,0.0,-1.4734,-1.5186,-1.5428,-1.5428,-1.6034,-1.6601,-1.7041,-1.7698,-1.851,-1.9638,-1.9678,-1.9962,-2.0605,-2.0605,-2.0605,-2.0605,-2.0605,-2.0605,-2.0605,-2.0605,-2.0605,-2.0605,-2.0605,-2.0605,-2.0605,-2.0605,-2.0605,-2.0644,-2.1016,-2.1387,-2.1795,-2.2324,-2.2627,-2.2812,-0.6422,0.0,0.0,0.0,-0.63,-0.6313,-0.6354,-0.6392,-0.6536,-0.6918,-0.7608,0.0,-0.9041,-1.0554,0.0,0.0,-1.2718,-1.324,-1.328,-1.3327,-1.3327,-1.3327,-1.3407,-1.3414,-1.3327,-1.3407,-1.3454,-1.3454,-1.3454,-1.3561,-1.3726,-1.3726,-1.3881,0.0,0.0,-1.4088,-1.4088,0.0,-1.4088,-1.4088,-1.4088,-1.4088,-1.4088,-1.4088,-1.4088,-1.4088,-1.4088,-1.4088,-1.4088,-1.4088,-1.4088,0.0,-1.4088,-1.4088,-1.4088,0.0,0.0,0.0,-1.4088,0.0,0.0,0.0,0.0,0.0,0.0,0.0,0.0,-1.4088,-1.4088,0.0,0.0,0.0,-1.4062,-1.3981,0.0,-1.4055,0.0,-1.4035,0.0,0.0,0.0,0.0,0.0,-1.4088,-1.4088,-1.4088,-1.4817,-1.5379,-1.5696,-1.6437,-1.7374,-1.8519,-1.851,-1.9076,-2.0157,-2.0157,-2.0323,-2.0605,-2.0605,-2.0605,-2.0605,-2.0605,-2.0605,-2.0605,-2.0605,-2.0605,-2.0605,-2.0605,-2.0605,-2.0605,-2.0605,-2.0762,-2.1143,-2.1885,-2.2305,-2.2559,-0.6685,-0.6497,0.0,0.0,0.0,-0.6347,-0.6484,-0.659,-0.7057,0.0,0.0,0.0,0.0,0.0,0.0,0.0,0.0,-1.3327,-1.3573,-1.3586,-1.3586,-1.3586,-1.3908,-1.3928,-1.3593,-1.3908,-1.4055,-1.4055,-1.4055,-1.4068,-1.4075,-1.4075,-1.4082,0.0,-1.4088,-1.4088,-1.4088,-1.4088,-1.4088,-1.4088,-1.4088,-1.4088,-1.4088,0.0,-1.4088,-1.4088,-1.4088,0.0,0.0,-1.4088,-1.4088,0.0,0.0,0.0,0.0,0.0,0.0,0.0,0.0,0.0,0.0,-1.4088,0.0,0.0,0.0,0.0,-1.4088,0.0,0.0,-1.4088,-1.4088,-1.4088,-1.3995,-1.3666,0.0,0.0,0.0,0.0,0.0,0.0,0.0,0.0,0.0,-1.4088,-1.4088,-1.4088,-1.4124,-1.4615,-1.5662,-1.5745,-1.6232,-1.7334,-1.7334,-1.7908,-1.9036,-1.9036,-1.9559,-2.0605,-2.0605,-2.0605,-2.0605,-2.0605,-2.0605,-2.0605,-2.0605,-2.0605,-2.0605,-2.0605,-2.0605,-2.0605,-2.0605,-2.0615,-2.0683,-2.1103,-2.1797,-2.251,0.0,0.0,0.0,0.0,0.0,0.0,0.0,-0.6668,0.0,0.0,-0.8014,0.0,0.0,-1.1142,-1.2195,0.0,0.0,-1.3828,-1.3928,-1.3935,-1.3935,-1.3935,-1.4035,-1.4041,-1.3941,-1.4035,-1.4088,-1.4088,-1.4088,-1.4088,0.0,0.0,0.0,0.0,0.0,-1.4088,0.0,0.0,0.0,0.0,0.0,-1.4088,-1.4088,0.0,-1.4088,-1.4088,-1.4088,-1.4088,0.0,-1.4088,-1.4088,-1.4088,-1.4088,-1.4088,-1.4088,-1.4088,-1.4088,-1.4088,0.0,0.0,-1.4088,-1.4088,0.0,0.0,0.0,0.0,0.0,0.0,0.0,-1.4088,-1.4088,-1.4088,-1.4055,-1.3955,-1.4021,-1.4048,0.0,0.0,0.0,0.0,0.0,0.0,0.0,0.0,-1.4088,-1.4088,-1.4088,-1.425,-1.4615,-1.4657,-1.5137,-1.6191,-1.6232,-1.6764,-1.7859,-1.8638,-1.9195,-1.9559,-2.0245,-2.0605,-2.0605,-2.0605,-2.0605,-2.0605,-2.0605,-2.0605,-2.0605,-2.0605,-2.0605,-2.0605,-2.0605,-2.0605,-2.0664,-2.1064,-2.1385,-2.1707,-0.6858,0.0,0.0,0.0,0.0,0.0,0.0,0.0,0.0,0.0,-0.7641,0.0,-0.9392,0.0,-1.2029,0.0,-1.3646,-1.4088,-1.4088,-1.4088,-1.4088,-1.4088,-1.4088,-1.3906,-1.347,-1.3864,-1.3913,-1.347,-1.3913,-1.4088,0.0,0.0,0.0,0.0,0.0,-1.4088,-1.4088,-1.4088,-1.4088,0.0,0.0,-1.4088,0.0,0.0,-1.4088,-1.4088,0.0,-1.4088,-1.4088,-1.4088,-1.4088,-1.4088,-1.4088,-1.4088,-1.4088,-1.4088,-1.4088,-1.4088,-1.4088,-1.4088,0.0,-1.4088,-1.4088,0.0,-1.4088,0.0,-1.4088,0.0,0.0,0.0,0.0,-1.4088,-1.4088,-1.4088,-1.4088,-1.4088,0.0,-1.4088,0.0,0.0,0.0,0.0,0.0,-1.4088,-1.4088,-1.4088,-1.4088,-1.4088,-1.4088,-1.4088,-1.4412,-1.5095,-1.5137,-1.567,-1.6723,-1.7455,-1.802,-1.839,-1.952,-2.004,-2.004,-2.045,-2.0605,-2.0605,-2.0605,-2.0605,-2.0605,-2.0605,-2.0605,-2.0605,-2.0605,-2.0605,-2.0635,-2.0889,-2.1094,-2.1298,-0.7095,0.0,0.0,0.0,-0.6844,0.0,0.0,0.0,-0.7095,0.0,-0.7139,-0.8053,-1.0351,-1.0654,-1.1606,-1.3913,-1.4088,-1.4088,-1.4088,-1.4088,0.0,0.0,-1.4088,-1.3555,-1.2413,-1.3512,-1.3555,-1.237,0.0,0.0,0.0,0.0,0.0,0.0,-1.4088,0.0,-1.4088,-1.4088,-1.4088,-1.4088,-1.4088,-1.4088,-1.4088,-1.4088,-1.4088,-1.4088,-1.4088,-1.4088,-1.4088,-1.4088,-1.4088,-1.4088,-1.4088,-1.4088,-1.4088,-1.4088,-1.4088,-1.4088,-1.4088,-1.4088,-1.4088,-1.4088,-1.4088,0.0,0.0,0.0,-1.4088,0.0,0.0,0.0,0.0,0.0,-1.4088,-1.4088,-1.4088,-1.4088,0.0,0.0,-1.4088,0.0,0.0,0.0,0.0,-1.4088,-1.4088,-1.4088,-1.4088,-1.4088,0.0,-1.4088,-1.4088,-1.4088,-1.4088,-1.4573,-1.5621,-1.5655,-1.6191,-1.7212,-1.839,-1.8917,-1.8957,-1.9962,-2.044,-2.044,-2.044,-2.044,-2.044,-2.044,-2.044,-2.044,-2.044,-2.044,-2.044,-2.0566,-2.0791,-2.1139,-0.7095,-0.7095,-0.7071,0.0,-0.7014,-0.7041,0.0,0.0,0.0,0.0,-0.7885,-0.8973,-1.0438,-1.1338,-1.2467,-1.3955,-1.4088,0.0,0.0,0.0,0.0,-1.4088,-1.4088,-1.3955,-1.3646,-1.3955,-1.3955,-1.3646,0.0,0.0,-1.4088,0.0,0.0,0.0,0.0,0.0,-1.4088,-1.4088,-1.4088,-1.4088,-1.4088,-1.4088,-1.4088,0.0,-1.4088,-1.4088,-1.4088,-1.4088,-1.4088,-1.4088,-1.4088,-1.4088,-1.4088,-1.4088,-1.4088,-1.4088,-1.4088,-1.4088,-1.4088,-1.4088,-1.4088,-1.4088,-1.4088,-1.4088,0.0,0.0,0.0,0.0,0.0,0.0,0.0,0.0,0.0,0.0,0.0,0.0,0.0,0.0,0.0,-1.4088,0.0,0.0,-1.4088,-1.4088,-1.4088,-1.4088,-1.4088,-1.4088,-1.4088,0.0,-1.4088,-1.4088,-1.4088,-1.425,-1.4496,-1.5296,-1.582,-1.6108,-1.7212,-1.7738,-1.7747,-1.802,-1.8141,-1.8141,-1.8141,-1.8141,-1.8141,-1.8141,-1.8141,-1.8141,-1.8141,-1.8141,-1.8341,-1.9991,-2.0156,-1.9623,-0.7095,-0.7095,0.0,-0.7095,0.0,0.0,-0.7095,-0.7197,0.0,-0.7241,-0.7881,0.0,-0.9924,-1.0583,-1.1474,-1.268,-1.3305,0.0,-1.3447,0.0,0.0,-1.3343,-1.3294,-1.3075,-1.2559,-1.3561,-1.393,-1.352,-1.4012,-1.4342,-1.4469,0.0,0.0,0.0,0.0,-1.4469,-1.4462,-1.4329,-1.4275,-1.4262,-1.4135,-1.4088,0.0,-1.4088,-1.4088,-1.4088,-1.4088,-1.4088,-1.4088,-1.4088,-1.4088,-1.4088,-1.4088,-1.4088,-1.4088,-1.4088,-1.4088,-1.4088,-1.4088,-1.4088,-1.4088,-1.4088,-1.4088,-1.4088,-1.4088,-1.4088,-1.4088,0.0,-1.4088,-1.4088,0.0,0.0,0.0,0.0,0.0,0.0,0.0,0.0,0.0,0.0,-1.4088,-1.4088,-1.4088,-1.4088,-1.4088,-1.4088,-1.4088,-1.4088,0.0,0.0,-1.4088,-1.4088,-1.4088,-1.4088,-1.4088,-1.4692,-1.5019,-1.5012,-1.6075,-1.6601,-1.6601,-1.709,-1.7302,-1.7302,-1.7302,-1.7302,-1.7302,-1.7302,-1.7302,-1.7302,-1.7302,-1.7302,-1.7464,-1.8709,-1.8789,-1.8304,-0.7156,0.0,0.0,0.0,0.0,0.0,0.0,-0.7299,0.0,-0.7446,0.0,-0.8013,-0.9161,-0.9296,-0.9802,-1.0992,-1.2097,-1.2648,-1.2431,-1.2503,-1.2443,-1.2175,-1.2299,-1.1954,-1.0958,-1.3059,-1.3836,-1.3077,-1.4075,-1.471,-1.5008,0.0,0.0,0.0,0.0,0.0,0.0,-1.4689,-1.4583,-1.4556,-1.4302,-1.4202,-1.4202,-1.4202,-1.4175,-1.4142,-1.4142,-1.4122,-1.4088,-1.4088,-1.4088,-1.4088,-1.4088,-1.4088,-1.4088,-1.4088,-1.4088,-1.4088,-1.4088,-1.4088,-1.4088,-1.4088,-1.4088,-1.4088,-1.4088,-1.4088,-1.4088,-1.4088,-1.4088,-1.4088,-1.4088,0.0,0.0,0.0,0.0,0.0,0.0,0.0,0.0,0.0,0.0,0.0,-1.4088,-1.4088,-1.4088,-1.4088,-1.4088,-1.4088,0.0,0.0,-1.4088,-1.4088,-1.4088,-1.4088,-1.4088,-1.4088,-1.4088,-1.413,-1.5054,-1.5496,-1.5538,-1.6445,-1.6895,-1.6895,-1.6895,-1.6895,-1.6895,-1.6895,-1.6895,-1.6895,-1.6895,-1.6895,-1.6895,-1.6895,-1.6895,-1.6895,-0.7519,0.0,0.0,0.0,0.0,-0.7519,-0.7519,-0.7434,-0.7463,-0.7543,-0.7584,-0.8013,-0.9161,-0.9296,-0.9802,-1.0992,-1.1314,0.0,0.0,0.0,0.0,-1.1288,-1.2333,-1.2788,-1.2564,-1.4078,-1.4785,-1.4609,-1.4794,-1.4955,-1.5008,-1.5008,0.0,0.0,0.0,0.0,-1.5008,-1.4955,0.0,-1.4928,-1.4874,-1.4854,-1.4854,-1.4854,-1.4656,-1.4442,-1.4442,-1.4289,-1.4088,-1.4088,-1.4088,-1.4088,-1.4088,-1.4088,-1.4088,-1.4088,-1.4088,-1.4088,-1.4088,-1.4088,-1.4088,-1.4088,-1.4088,-1.4088,-1.4088,-1.4088,-1.4088,-1.4088,-1.4088,-1.4088,-1.4088,0.0,0.0,0.0,0.0,0.0,0.0,0.0,0.0,0.0,0.0,-1.4088,-1.4088,-1.4088,-1.4088,-1.4088,-1.4088,-1.4088,0.0,0.0,-1.4088,0.0,-1.4088,-1.4088,0.0,0.0,-1.4088,-1.4088,-1.4286,-1.437,-1.437,-1.4573,-1.4657,-1.4657,-1.4657,-1.4657,-1.4657,-1.4657,-1.4657,-1.4657,-1.4657,-1.4657,-1.4657,-1.4657,-1.4657,-1.4776,-0.76,0.0,0.0,0.0,0.0,0.0,0.0,-0.7648,-0.7628,-0.7699,-0.778,-0.8018,-0.8586,-0.8635,-0.8871,-0.944,-1.0153,-1.0441,-1.0289,-1.0374,-1.0375,-1.0172,-1.0767,-1.1089,-1.1089,-1.2973,-1.401,-1.4153,-1.4858,-1.5264,-1.5411,-1.5411,0.0,0.0,0.0,-1.5411,0.0,0.0,0.0,-1.5223,-1.5068,-1.5008,-1.5008,-1.5008,-1.4921,-1.475,-1.475,-1.4663,-1.4539,-1.4188,-1.4088,-1.4088,-1.4088,-1.4088,-1.4088,-1.4088,-1.4088,-1.4088,-1.4088,-1.4088,-1.4088,-1.4088,-1.4088,-1.4088,-1.4088,-1.4088,-1.4088,-1.4088,-1.4088,-1.4088,-1.4088,-1.4088,0.0,0.0,0.0,0.0,0.0,0.0,-1.4088,0.0,0.0,0.0,0.0,0.0,0.0,0.0,0.0,-1.4088,-1.4088,0.0,-1.4088,0.0,0.0,0.0,-1.4088,0.0,-1.4088,-1.4088,-1.4088,-1.4088,-1.4088,-1.4088,-1.4088,-1.4088,-1.4088,-1.4088,-1.4088,-1.4088,-1.4088,-1.4088,-1.4088,-1.4088,-1.4088,-1.4088,-1.4088,-1.425,0.0,-0.7692,0.0,0.0,-0.7692,-0.7729,-0.7841,-0.7862,-0.7862,-0.7862,-0.7914,-0.7988,-0.7988,-0.7988,-0.7988,-0.7988,-0.897,-0.9449,-0.9216,-0.9344,-0.9284,-0.9048,-0.9276,-0.9464,-0.9464,-1.1925,-1.3275,-1.3526,-1.4814,-1.5571,-1.5738,-1.5751,-1.5784,0.0,0.0,0.0,0.0,0.0,-1.5491,-1.5471,-1.5244,-1.515,-1.515,-1.515,-1.511,-1.5102,-1.5102,-1.5062,-1.4941,-1.4429,-1.4235,-1.4168,-1.4108,-1.4088,-1.4088,-1.4088,-1.4088,-1.4088,-1.4088,-1.4088,-1.4088,-1.4088,-1.4088,-1.4088,-1.4088,-1.4088,-1.4088,-1.4088,-1.4088,-1.4088,-1.4088,-1.4088,0.0,0.0,0.0,0.0,0.0,0.0,-1.4088,0.0,0.0,0.0,-1.4088,-1.4088,0.0,0.0,-1.4088,-1.4088,-1.4088,-1.4088,-1.4088,0.0,0.0,-1.4088,-1.4088,0.0,-1.4088,-1.4088,-1.4088,-1.4088,-1.4088,-1.4088,-1.4088,-1.4088,-1.4088,-1.4088,-1.4088,-1.4088,-1.4088,-1.4088,-1.4088,-1.4088,-1.4088,-1.4088,-1.4088,-1.425,0.0,0.0,0.0,0.0,0.0,-0.7951,-0.7968,-0.7968,-0.7968,-0.7968,-0.7982,-0.7988,-0.7988,-0.7988,-0.7988,-0.7988,-0.8137,-0.818,-0.8166,-0.8163,-0.8159,-0.8142,-0.9265,-0.9947,-0.9947,-1.2502,-1.3814,-1.3837,-1.5156,-1.5665,-1.5444,-1.5705,-1.5784,0.0,0.0,0.0,0.0,-1.5751,-1.5744,-1.5738,-1.5758,-1.5752,-1.5752,-1.5752,-1.5585,-1.5357,-1.5357,-1.519,-1.5001,-1.4948,-1.4703,-1.4436,-1.4168,-1.4088,-1.4088,-1.4088,-1.4088,-1.4088,-1.4088,-1.4088,-1.4088,-1.4088,-1.4088,-1.4088,-1.4088,-1.4088,-1.4088,-1.4088,-1.4088,-1.4088,-1.4088,-1.4088,-1.4088,0.0,0.0,0.0,0.0,0.0,-1.4088,-1.4088,0.0,0.0,-1.4088,-1.4088,0.0,0.0,-1.4088,-1.4088,-1.4088,-1.4088,-1.4088,-1.4088,-1.4088,-1.4088,-1.4088,-1.4088,-1.4088,-1.4088,-1.4088,-1.4088,-1.4088,-1.4088,-1.4088,-1.4088,-1.4088,-1.4088,-1.4088,-1.4088,-1.4088,-1.4088,-1.4088,-1.4088,-1.4088,-1.4088,-1.4088,-1.425,0.0,0.0,0.0,0.0,0.0,0.0,0.0,-0.7988,-0.7988,-0.7988,-0.7988,-0.7988,-0.7988,-0.7988,-0.7988,-0.7988,-0.7988,-0.7988,-0.7988,-0.7988,-0.7988,-0.7988,-0.8531,-0.8825,-0.8825,-1.1356,-1.2328,-1.1551,-1.4418,-1.5332,-1.4496,-1.5386,-1.5784,0.0,0.0,-1.5784,-1.5784,-1.5784,-1.5784,-1.5784,-1.5784,-1.5784,-1.5784,-1.5784,-1.5711,-1.5658,-1.5658,-1.5578,-1.5458,-1.5284,-1.503,-1.4736,-1.4436,-1.4349,-1.4315,-1.4135,-1.4088,-1.4088,-1.4088,-1.4088,-1.4088,-1.4088,-1.4088,-1.4088,-1.4088,-1.4088,-1.4088,-1.4088,-1.4088,-1.4088,-1.4088,-1.4088,-1.4088,-1.4088,0.0,0.0,0.0,0.0,0.0,-1.4088,0.0,-1.4088,-1.4088,-1.4088,0.0,0.0,0.0,-1.4088,-1.4088,-1.4088,-1.4088,-1.4088,0.0,-1.4088,-1.4088,-1.4088,-1.4088,-1.4088,-1.4088,-1.4088,-1.4088,-1.4088,-1.4088,-1.4088,-1.4088,-1.4088,-1.4088,-1.4088,-1.4088,-1.4088,-1.4088,-1.4088,-1.4088,-1.4088,-1.4088,-1.4166,-0.7988,0.0,-0.7988,0.0,-0.7988,-0.7988,-0.7988,-0.7988,-0.7988,-0.7988,-0.7988,-0.7988,-0.7988,-0.7988,-0.7988,-0.7988,-0.7988,-0.7988,-0.7988,-0.7988,-0.7988,-0.7988,-0.7988,0.0,-0.7988,-1.019,-1.0925,-0.9998,-1.3542,-1.4715,-1.3761,-1.5072,-1.5698,0.0,-1.5784,-1.5784,-1.5784,-1.5784,-1.5784,-1.5784,-1.5784,-1.5784,-1.5784,-1.5784,-1.5784,-1.5784,-1.5784,-1.5784,-1.5751,-1.5591,-1.5391,-1.515,-1.477,-1.4649,-1.4589,-1.4302,-1.4215,-1.4195,-1.4108,-1.4088,-1.4088,-1.4088,-1.4088,-1.4088,-1.4088,-1.4088,-1.4088,-1.4088,-1.4088,-1.4088,-1.4088,-1.4088,-1.4088,-1.4088,0.0,0.0,0.0,-1.4088,0.0,-1.4088,-1.4088,-1.4088,-1.4088,-1.4088,0.0,0.0,0.0,-1.4088,-1.4088,-1.4088,-1.4088,0.0,0.0,0.0,-1.4088,-1.4088,-1.4088,-1.4088,-1.4088,-1.4088,-1.4088,-1.4088,-1.4088,-1.4088,-1.4088,-1.4088,-1.4088,-1.4088,-1.4088,-1.4088,-1.4088,-1.4088,-1.4088,-1.4088,-1.4088,-1.4088,-0.7988,-0.7988,-0.7988,-0.7988,-0.7988,-0.7988,-0.7988,-0.7988,-0.7988,-0.7988,-0.7988,-0.7988,-0.7988,-0.7988,-0.7988,-0.7988,-0.7988,-0.7988,-0.7988,-0.7988,-0.7988,0.0,0.0,-0.7988,-0.7988,-0.9316,-0.9998,-0.9998,0.0,-1.3743,-1.3444,-1.4777,-1.5558,-1.5784,-1.5784,-1.5784,-1.5784,-1.5784,-1.5784,-1.5784,-1.5784,-1.5784,-1.5784,-1.5784,-1.5784,-1.5784,-1.5784,-1.5784,-1.5784,-1.5778,-1.5771,-1.5718,-1.5137,-1.5001,-1.4948,-1.4603,-1.4516,-1.4449,-1.4168,-1.4088,-1.4088,-1.4088,-1.4088,-1.4088,-1.4088,-1.4088,-1.4088,-1.4088,-1.4088,-1.4088,-1.4088,-1.4088,-1.4088,-1.4088,0.0,0.0,0.0,-1.4088,0.0,-1.4088,-1.4088,-1.4088,-1.4088,-1.4088,0.0,0.0,0.0,-1.4088,-1.4088,0.0,0.0,-1.4088,-1.4088,0.0,-1.4088,-1.4088,-1.4088,-1.4088,-1.4088,-1.4088,-1.4088,-1.4088,-1.4088,-1.4088,-1.4088,-1.4088,-1.4088,-1.4088,-1.4088,-1.4088,-1.4088,-1.4088,-1.4088,-1.4088,-1.4088,-1.4088,-0.7988,-0.7988,-0.7988,-0.7988,-0.7988,-0.7988,-0.7988,-0.7988,-0.7988,-0.7988,-0.7988,-0.7988,-0.7988,-0.7988,-0.7988,0.0,-0.7988,-0.7988,0.0,-0.7988,-0.7988,-0.7988,-0.7988,-0.7988,-0.7988,-0.9312,-0.9558,-0.8627,0.0,0.0,-1.3749,-1.5059,-1.5738,-1.5784,-1.5784,-1.5784,-1.5784,-1.5784,-1.5784,-1.5784,-1.5784,-1.5784,-1.5784,-1.5784,-1.5784,-1.5784,-1.5784,-1.5784,-1.5784,-1.5784,-1.5784,-1.5751,-1.5611,-1.5418,-1.5204,-1.4955,-1.4676,-1.4496,-1.4409,-1.4242,-1.4088,-1.4088,-1.4088,-1.4088,-1.4088,-1.4088,-1.4088,-1.4088,-1.4088,-1.4088,-1.4088,-1.4088,-1.4088,-1.4088,-1.4088,0.0,-1.4088,0.0,-1.4088,-1.4088,-1.4088,-1.4088,-1.4088,-1.4088,0.0,0.0,0.0,0.0,0.0,0.0,0.0,0.0,-1.4088,0.0,-1.4088,-1.4088,-1.4088,-1.4088,-1.4088,-1.4088,-1.4088,-1.4088,-1.4088,-1.4088,-1.4088,-1.4088,-1.4088,-1.4088,-1.4088,-1.4088,-1.4088,-1.4088,-1.4088,-1.4088,-1.4088,-1.4088,-0.7988,-0.7988,-0.7988,-0.7988,-0.7988,-0.7988,-0.7988,-0.7988,-0.7988,-0.7988,-0.7988,-0.7988,-0.7988,-0.7988,0.0,-0.7988,-0.7988,-0.7988,-0.7988,-0.7988,-0.7988,-0.7988,-0.7988,-0.7988,-0.7988,-0.8821,0.0,-0.7988,-1.0632,-1.2334,-1.3199,-1.4956,-1.5534,-1.5092,-1.5588,-1.5784,-1.5784,-1.5784,-1.5784,-1.5784,-1.5784,-1.5784,-1.5784,-1.5784,-1.5784,-1.5784,-1.5784,-1.5784,-1.5784,-1.5784,-1.5784,-1.5784,-1.5784,-1.5705,-1.5504,-1.5211,-1.499,-1.4803,-1.4576,-1.4389,-1.4222,-1.4115,-1.4088,-1.4088,-1.4088,-1.4088,-1.4088,-1.4088,-1.4088,-1.4088,-1.4088,-1.4088,-1.4088,-1.4088,-1.4088,-1.4088,-1.4088,-1.4088,-1.4088,-1.4088,-1.4088,-1.4088,-1.4088,-1.4088,-1.4088,0.0,0.0,0.0,0.0,0.0,-1.4088,-1.4088,-1.4088,-1.4088,-1.4088,-1.4088,-1.4088,-1.4088,-1.4088,-1.4088,-1.4088,-1.4088,-1.4088,-1.4088,-1.4088,-1.4088,-1.4088,-1.4088,-1.4088,-1.4088,-1.4088,-1.4088,-1.4088,-1.4088,-1.4088,-1.4088,-0.7988,-0.7988,-0.7988,-0.7988,-0.7988,-0.7988,-0.7988,-0.7988,-0.7988,-0.7988,-0.7988,-0.7988,-0.7988,-0.7988,-0.7988,-0.7988,0.0,0.0,-0.7988,-0.7988,-0.7988,-0.7988,-0.7988,-0.7988,-0.7988,-0.7988,-0.7988,-0.7988,-1.0534,-1.175,-1.1799,-1.437,-1.4949,-1.3974,-1.514,-1.573,-1.5784,-1.5784,-1.5784,-1.5784,-1.5784,-1.5784,-1.5784,-1.5784,-1.5784,-1.5784,-1.5784,-1.5784,-1.5784,-1.5784,-1.5784,-1.5784,-1.5784,-1.5784,-1.5724,-1.5504,-1.5411,-1.5277,-1.473,-1.4506,-1.4456,-1.4182,-1.4102,-1.4088,-1.4088,-1.4088,-1.4088,-1.4088,-1.4088,-1.4088,-1.4088,-1.4088,-1.4088,-1.4088,-1.4088,-1.4088,-1.4088,-1.4088,-1.4088,-1.4088,0.0,0.0,-1.4088,-1.4088,-1.4088,0.0,0.0,0.0,0.0,0.0,-1.4088,-1.4088,-1.4088,-1.4088,-1.4088,-1.4088,-1.4088,-1.4088,-1.4088,-1.4088,-1.4088,-1.4088,-1.4088,-1.4088,-1.4088,-1.4088,-1.4088,-1.4088,-1.4088,-1.4088,-1.4088,-1.4088,-1.4088,-1.4088,-1.4088,-1.4088,0.0,0.0,-0.7988,-0.7988,-0.7988,-0.7988,-0.7988,-0.7988,-0.7988,-0.7988,-0.7988,-0.7988,-0.7988,-0.7988,-0.7988,-0.7988,-0.7988,-0.7988,-0.7988,-0.7988,-0.7988,-0.7988,-0.7988,-0.7988,-0.7988,-0.7988,-0.7988,-0.7988,-0.9653,-1.0435,-1.0485,-1.2091,-1.3204,-1.3926,-1.422,-1.4902,-1.5784,-1.5784,-1.5784,-1.5784,-1.5784,-1.5784,-1.5784,-1.5784,-1.5784,-1.5784,-1.5784,-1.5784,-1.5784,-1.5784,-1.5784,-1.5784,-1.5784,-1.5784,-1.5764,-1.5698,-1.5571,-1.5364,-1.5231,-1.4863,-1.4502,-1.4436,-1.4249,-1.4088,-1.4088,-1.4088,-1.4088,-1.4088,-1.4088,-1.4088,-1.4088,-1.4088,-1.4088,-1.4088,-1.4088,-1.4088,-1.4088,-1.4088,-1.4088,0.0,-1.4088,-1.4088,-1.4088,-1.4088,-1.4088,0.0,0.0,-1.4088,-1.4088,-1.4088,-1.4088,-1.4088,-1.4088,-1.4088,-1.4088,-1.4088,-1.4088,-1.4088,-1.4088,-1.4088,-1.4088,-1.4088,-1.4088,-1.4088,-1.4088,-1.4088,-1.4088,-1.4088,-1.4088,-1.4088,-1.4088,-1.4088,-1.4088,-1.4088,-1.4088,-1.4088,-0.7988,-0.7988,-0.7988,-0.7988,-0.7988,-0.7988,-0.7988,-0.7988,-0.7988,-0.7988,-0.7988,-0.7988,-0.7988,-0.7988,-0.7988,-0.7988,-0.7988,-0.7988,-0.7988,-0.7988,-0.7988,-0.7988,-0.7988,-0.7988,-0.7988,-0.7988,-0.7988,-0.7988,-0.9361,-0.9706,-0.9118,-1.1023,-1.2285,-1.3006,-1.3632,-1.4609,-1.5784,-1.5784,-1.5784,-1.5784,-1.5784,-1.5784,-1.5784,-1.5784,-1.5784,-1.5784,-1.5784,-1.5784,-1.5784,-1.5784,-1.5784,-1.5784,-1.5784,-1.5784,-1.5784,-1.5784,-1.5718,-1.5565,-1.5431,-1.5064,-1.4518,-1.3715,-1.3359,-1.3294,-1.3294,-1.3294,-1.3428,-1.3997,-1.4088,-1.4088,-1.4088,-1.4088,-1.4088,-1.4088,-1.4088,-1.3906,-1.3336,-1.3737,-1.3913,-1.3336,-1.3773,-1.4088,-1.4088,-1.4088,-1.4088,-1.4088,-1.4088,0.0,-1.4088,-1.4088,-1.4088,-1.4088,-1.4088,-1.4088,-1.4088,-1.4088,-1.4088,-1.4088,-1.4088,-1.4088,-1.4088,-1.4088,-1.4088,-1.4088,-1.4088,-1.4088,-1.4088,-1.4088,-1.4088,-1.4088,-1.4088,-1.4088,-1.4088,-1.4088,-1.4088,-1.4088,-0.7988,-0.7988,-0.7988,-0.7988,-0.7988,-0.7988,-0.7988,-0.7988,-0.7988,-0.7988,-0.7988,-0.7988,-0.7988,-0.7988,-0.7988,-0.7988,-0.7988,-0.7988,-0.7988,-0.7988,-0.7988,-0.7988,-0.7988,-0.7988,-0.7988,-0.7988,-0.7988,-0.7988,-0.9118,-0.9118,-0.8038,-1.0288,-1.1409,-1.1653,-1.2813,-1.4022,-1.5194,-1.5439,-1.5486,-1.5534,-1.573,-1.5784,-1.5784,-1.5784,-1.5784,-1.5784,-1.5784,-1.5784,-1.5784,-1.5784,-1.5784,-1.5784,-1.5784,-1.5683,-1.5486,-1.5486,-1.5391,-1.519,-1.5192,-1.4839,-1.404,-1.2457,-1.2029,-1.2109,-1.2242,-1.2285,-1.2632,-1.3864,-1.4088,-1.4088,-1.4088,-1.4088,-1.4088,-1.4088,-1.3955,-1.347,-1.2456,0.0,-1.3209,-1.2157,-1.3118,-1.3822,-1.3822,-1.3997,-1.4088,-1.4088,-1.4088,-1.4088,-1.4088,-1.4088,-1.4088,-1.4088,-1.4088,-1.4088,-1.4088,-1.4088,-1.4088,-1.4088,-1.4088,-1.4088,-1.4088,-1.4088,-1.4088,-1.4088,-1.4088,-1.4088,-1.4088,-1.4088,-1.4088,-1.4088,-1.4088,-1.4088,-1.4088,-1.4088,-1.4088,-1.4088,-0.7988,-0.7988,-0.7988,-0.7988,-0.7988,-0.7988,-0.7988,-0.7988,-0.7988,-0.7988,-0.7988,-0.7988,-0.7988,-0.7988,-0.7988,-0.7988,-0.7988,-0.7988,-0.7988,-0.7988,-0.7988,-0.7988,-0.7988,-0.7988,-0.7988,-0.7988,-0.7988,-0.7988,-0.8187,-0.8187,-0.7988,-0.8432,-0.9213,-1.0293,-1.0534,-1.1312,-1.2576,-1.3686,-1.4166,-1.4268,-1.5384,-1.5784,-1.5784,-1.5784,-1.5784,-1.5784,-1.5784,-1.5784,-1.5784,-1.5784,-1.5784,-1.5784,-1.5784,-1.5045,-1.4166,-1.4166,-1.3397,-1.2764,-1.3831,-1.3053,-1.1716,-1.1027,-1.0864,-1.1128,-1.2066,-1.2285,-1.2632,-1.3864,-1.4088,-1.4088,-1.4088,-1.4088,-1.4088,-1.4088,-1.3245,-1.2498,-1.2328,0.0,-1.1085,-1.0869,-1.1901,-1.2589,-1.2589,-1.3512,-1.4088,-1.4088,-1.4088,-1.4088,-1.4088,-1.4088,-1.4088,-1.4088,-1.4088,-1.4088,-1.4088,-1.4088,-1.4088,-1.4088,-1.4088,-1.4088,-1.4088,-1.4088,-1.4088,-1.4088,-1.4088,-1.4088,-1.4088,-1.4088,-1.4088,-1.4088,-1.4088,-1.4088,-1.4088,-1.4088,-1.4088,-1.4088,-0.8005,-0.7988,-0.7988,-0.7988,-0.7988,-0.7988,-0.7988,-0.7988,-0.7988,-0.7988,-0.7988,-0.7988,-0.7988,-0.7988,-0.7988,-0.7988,-0.7988,-0.7988,-0.7988,-0.7988,-0.7988,-0.7988,-0.7988,-0.7988,-0.7988,-0.7988,-0.7988,-0.7988,-0.7988,-0.7988,-0.7988,-0.7988,-0.8726,-0.9998,-0.9998,-1.073,-1.1945,-1.2571,-1.2813,-1.2958,-1.4268,-1.4322,-1.3788,-1.4513,-1.4316,-1.3692,-1.3692,-1.3692,-1.3692,-1.3692,-1.3692,-1.3692,-1.3692,-1.3301,-1.2813,-1.2813,-1.2377,-1.1991,-1.2404,-1.1899,-1.104,-0.9939,-0.9666,-0.9836,-1.0351,-1.0481,-1.0783,-1.1955,-1.2211,-1.2211,-1.2211,-1.2211,-1.2211,-1.2211,-1.1735,-1.1166,-1.0567,-1.0524,-1.0351,-0.9753,-1.0697,-1.1381,-1.1381,-1.2419,-1.3118,-1.3118,-1.373,-1.4088,-1.4088,-1.4088,-1.4088,-1.4088,-1.4088,-1.4088,-1.4088,-1.4088,-1.4088,-1.4088,-1.4088,-1.4088,-1.4088,-1.4088,-1.4088,-1.4088,-1.4088,-1.4088,-1.4088,-1.4088,-1.4088,-1.4088,-1.4088,-1.4088,-1.4088,-1.4088,-1.4088,-1.4088,-0.8116,-0.8015,-0.7988,-0.7988,-0.7988,-0.7988,-0.7988,-0.7988,-0.7988,-0.7988,-0.7988,-0.7988,-0.7988,-0.7988,-0.7988,-0.7988,-0.7988,-0.7988,-0.7988,-0.7988,-0.7988,-0.7988,-0.7988,-0.7988,-0.7988,-0.7988,-0.7988,-0.7988,-0.7988,-0.7988,-0.7988,-0.7988,-0.8528,-0.9558,-0.9558,-1.0096,-1.1023,-1.1312,-1.1463,-1.1556,-1.2909,-1.2813,-1.1994,-1.3054,-1.2813,-1.1896,-1.1896,-1.1896,-1.1896,-1.1896,-1.1896,-1.1896,-1.1896,-1.1702,-1.1463,-1.1463,-1.123,-1.0918,-1.0873,-1.0646,-1.0067,-0.8794,-0.8496,-0.854,-0.8846,-0.889,-0.9235,-1.0351,-1.0611,-1.0611,-1.0611,-1.0611,-1.0611,-1.0611,0.0,-0.9879,-0.9017,-0.9401,-0.9444,-0.8584,-0.9488,-1.0183,-1.0183,-1.1252,-1.1895,-1.1895,-1.3033,-1.3688,-1.3688,-1.3955,-1.4088,-1.4088,-1.4088,-1.4088,-1.4088,-1.4088,-1.4088,-1.4088,-1.4088,-1.4088,-1.4088,-1.4088,-1.4088,-1.4088,-1.4088,-1.4088,-1.4088,-1.4088,-1.4088,-1.4088,-1.4088,-1.4088,-1.4088,-1.4088,-1.4088,-1.4088,-0.8255,-0.8136,-0.7988,-0.7988,-0.7988,-0.7988,-0.7988,-0.7988,-0.7988,-0.7988,-0.7988,-0.7988,-0.7988,-0.7988,-0.7988,-0.7988,-0.7988,-0.7988,-0.7988,-0.7988,-0.7988,-0.7988,-0.7988,-0.7988,-0.7988,-0.7988,-0.7988,-0.7988,-0.7988,-0.7988,-0.7988,-0.7988,-0.8038,-0.8137,-0.8137,-0.8187,-0.8382,-0.9604,-1.0145,-1.0243,-1.1507,-1.1994,-1.1901,-1.1994,-1.1994,-1.1896,-1.1896,-1.1896,-1.1896,-1.1896,-1.1896,-1.1896,-1.1896,-1.1068,-1.0145,-1.0145,-0.9149,-0.8313,-0.9346,-0.867,-0.7615,-0.7313,-0.7228,-0.7536,-0.8627,-0.889,-0.9235,-1.0351,-1.0611,-1.0611,-1.0611,-1.0611,-1.0611,-1.0611,0.0,0.0,-0.889,-0.8013,-0.7312,-0.7228,-0.8277,-0.9017,-0.9017,-1.0053,-1.074,-1.074,-1.1772,-1.2413,-1.2413,-1.3512,-1.4088,-1.4088,-1.4088,-1.4088,-1.4088,-1.4088,-1.4088,-1.4088,-1.4088,-1.4088,-1.4088,-1.4088,-1.4088,-1.4088,-1.4088,-1.4088,-1.4088,-1.4088,-1.4088,-1.4088,-1.4088,-1.4088,-1.4088,-1.4088,-1.4088,-1.4088,-0.834,-0.8147,-0.7988,-0.7988,-0.7988,-0.7988,-0.7988,-0.7988,-0.7988,-0.7988,-0.7988,-0.7988,-0.7988,-0.7988,-0.7988,-0.7988,-0.7988,-0.7988,-0.7988,-0.7988,-0.7988,-0.7988,-0.7988,-0.7988,-0.7988,-0.7988,-0.7988,-0.7988,-0.7988,-0.7988,-0.7988,-0.7988,-0.7988,-0.7988,-0.7988,-0.7988,-0.8038,-0.8528,-0.8775,-0.8871,-1.0194,-1.0239,-0.9558,-1.0386,-1.0194,-0.946,-0.946,-0.946,-0.946,-0.946,-0.946,-0.946,-0.946,-0.9167,-0.8775,-0.8775,-0.8254,-0.776,-0.8211,-0.7848,-0.7333,-0.7136,-0.7095,-0.7228,-0.7665,-0.7797,-0.7925,-0.8356,-0.8444,-0.8444,-0.8444,-0.8444,-0.8444,-0.8444,0.0,-0.7797,-0.7797,-0.7404,-0.7095,-0.7095,-0.7489,-0.7797,-0.7797,-0.8842,-0.9536,-0.9536,-1.0611,-1.1252,-1.1252,-1.1692,-1.1912,-1.1912,-1.2601,-1.3336,-1.4088,-1.4088,-1.4088,-1.4088,-1.4088,-1.4088,-1.4088,-1.4088,-1.4088,-1.4088,-1.4088,-1.4088,-1.4088,-1.4088,-1.4088,-1.4088,-1.4088,-1.4088,-1.4088,-1.4088,-1.4088,-1.4088,-0.8357,-0.8177,-0.7988,-0.7988,-0.7988,-0.7988,-0.7988,-0.7988,-0.7988,-0.7988,-0.7988,-0.7988,-0.7988,-0.7988,-0.7988,-0.7988,-0.7988,-0.7988,-0.7988,-0.7988,-0.7988,-0.7988,-0.7988,-0.7988,-0.7988,-0.7988,-0.7988,-0.7988,-0.7988,-0.7988,-0.7988,-0.7988,-0.7988,-0.7988,-0.7988,-0.7988,-0.7988,-0.7988,-0.7988,-0.8088,-0.9019,-0.8821,-0.8088,-0.9019,-0.8825,-0.7988,-0.7988,-0.7988,-0.7988,-0.7988,-0.7988,-0.7988,-0.7988,-0.7988,-0.7982,-0.7931,-0.7794,-0.759,-0.7543,-0.7417,-0.7275,-0.7122,-0.7095,-0.7095,-0.7095,-0.7095,-0.7095,-0.7095,-0.7095,-0.7095,-0.7095,-0.7095,-0.7095,-0.7095,-0.7095,-0.7095,-0.7095,-0.7095,-0.7095,-0.7095,-0.7095,-0.7095,-0.7095,-0.7841,-0.8324,-0.8324,-0.9401,-1.0221,-1.0567,-1.0611,-1.0611,-1.0611,-1.1338,-1.2163,-1.2997,-1.3737,-1.4088,-1.4088,-1.4088,-1.4088,-1.4088,-1.4088,-1.4088,-1.4088,-1.4088,-1.4088,-1.4088,-1.4088,-1.4088,-1.4088,-1.4088,-1.4088,-1.4088,-1.4088,-1.4088,-1.4088,-0.8482,-0.8245,-0.7992,-0.7988,-0.7988,-0.7988,-0.7988,-0.7988,-0.7988,-0.7988,-0.7988,-0.7988,-0.7988,-0.7988,-0.7988,-0.7988,-0.7988,-0.7988,-0.7988,-0.7988,-0.7988,-0.7988,-0.7988,-0.7988,-0.7988,-0.7988,-0.7988,-0.7988,-0.7988,-0.7988,-0.7988,-0.7988,-0.7988,-0.7988,-0.7988,-0.7988,-0.7988,-0.7988,-0.7988,-0.7988,-0.7988,-0.7988,-0.7988,-0.7988,-0.7988,-0.7988,-0.7988,-0.7988,-0.7988,-0.7988,-0.7988,-0.7988,-0.7988,-0.7988,-0.7961,-0.7858,-0.7709,-0.7567,-0.7414,-0.7258,-0.7095,-0.7095,-0.7095,-0.7095,-0.7095,-0.7095,-0.7095,-0.7095,-0.7095,-0.7095,-0.7095,-0.7095,-0.7095,-0.7095,-0.7095,-0.7095,-0.7095,-0.7095,-0.7095,-0.7095,-0.7095,-0.7095,-0.7095,-0.7095,-0.7095,-0.7095,-0.8189,-0.9366,-1.0524,-1.0567,-1.0567,-1.0567,-1.0567,-1.0611,-1.0611,-1.2912,-1.4088,-1.4088,-1.4088,-1.4088,-1.4088,-1.4088,-1.4088,-1.4088,-1.4088,-1.4088,-1.4088,-1.4088,-1.4088,-1.4088,-1.4088,-1.4088,-1.4088,-1.4088,-1.4088,-1.4088,-0.8503,-0.833,-0.8167,-0.8008,-0.7988,-0.7988,-0.7988,-0.7988,-0.7988,-0.7988,-0.7988,-0.7988,-0.7988,-0.7988,-0.7988,-0.7988,-0.7988,-0.7988,-0.7988,-0.7988,-0.7988,-0.7988,-0.7988,-0.7988,-0.7988,-0.7988,-0.7988,-0.7988,-0.7988,-0.7988,-0.7988,-0.7988,-0.7988,-0.7988,-0.7988,-0.7988,-0.7988,-0.7988,-0.7988,-0.7988,-0.7988,-0.7988,-0.7988,-0.7988,-0.7988,-0.7988,-0.7988,-0.7988,-0.7988,-0.7988,-0.7988,-0.7988,-0.7988,-0.7988,-0.7961,-0.7858,-0.7709,-0.7567,-0.7414,-0.7258,-0.7095,-0.7095,-0.7095,-0.7095,-0.7095,-0.7095,-0.7095,-0.7095,-0.7095,-0.7095,-0.7095,-0.7095,-0.7095,-0.7095,-0.7095,-0.7095,-0.7095,-0.7095,-0.7095,-0.7095,-0.7095,-0.7095,-0.7095,-0.7095,-0.7095,-0.7095,-0.7448,-0.7797,-0.8141,-0.8141,-0.8141,-0.8141,-0.8969,-0.9405,-0.9405,-1.0875,-1.1649,-1.1649,-1.2462,-1.2851,-1.2851,-1.3688,-1.4088,-1.4088,-1.4088,-1.4088,-1.4088,-1.4088,-1.4088,-1.4088,-1.4088,-1.4088,-1.4088,-1.4088,-1.4088,-1.4115,-0.8513,-0.8367,-0.8221,-0.8015,-0.7988,-0.7988,-0.7988,-0.7988,-0.7988,-0.7988,-0.7988,-0.7988,-0.7988,-0.7988,-0.7988,-0.7988,-0.7988,-0.7988,-0.7988,-0.7988,-0.7988,-0.7988,-0.7988,-0.7988,-0.7988,-0.7988,-0.7988,-0.7988,-0.7988,-0.7988,-0.7988,-0.7988,-0.7988,-0.7988,-0.7988,-0.7988,-0.7988,-0.7988,-0.7988,-0.7988,-0.7988,-0.7988,-0.7988,-0.7988,-0.7988,-0.7988,-0.7988,-0.7988,-0.7988,-0.7988,-0.7988,-0.7988,-0.7988,-0.7988,-0.7961,-0.7858,-0.7709,-0.7567,-0.7414,-0.7258,-0.7095,-0.7095,-0.7095,-0.7095,-0.7095,-0.7095,-0.7095,-0.7095,-0.7095,-0.7095,-0.7095,-0.7095,-0.7095,-0.7095,-0.7095,-0.7095,-0.7095,-0.7095,-0.7095,-0.7095,-0.7095,-0.7095,-0.7095,-0.7095,-0.7095,-0.7095,-0.7095,-0.7095,-0.7095,-0.7095,-0.7095,-0.7095,-0.7797,-0.8193,-0.8193,-0.8882,-0.9913,-1.1295,-1.1986,-1.2547,-1.3033,-1.3779,-1.4088,-1.4088,-1.4088,-1.4088,-1.4088,-1.4088,-1.4088,-1.4088,-1.4088,-1.4088,-1.4102,-1.4215,-1.4255,-1.4302,-0.8516,-0.8377,-0.8238,-0.8019,-0.7988,-0.7988,-0.7988,-0.7988,-0.7988,-0.7988,-0.7988,-0.7988,-0.7988,-0.7988,-0.7988,-0.7988,-0.7988,-0.7988,-0.7988,-0.7988,-0.7988,-0.7988,-0.7988,-0.7988,-0.7988,-0.7988,-0.7988,-0.7988,-0.7988,-0.7988,-0.7988,-0.7988,-0.7988,-0.7988,-0.7988,-0.7988,-0.7988,-0.7988,-0.7988,-0.7988,-0.7988,-0.7988,-0.7988,-0.7988,-0.7988,-0.7988,-0.7988,-0.7988,-0.7988,-0.7988,-0.7988,-0.7988,-0.7988,-0.7988,-0.7961,-0.7858,-0.7719,-0.7587,-0.7434,-0.7278,-0.7119,-0.7119,-0.7105,-0.7095,-0.7095,-0.7095,-0.7095,-0.7095,-0.7095,-0.7095,-0.7095,-0.7095,-0.7095,-0.7095,-0.7095,-0.7095,-0.7095,-0.7095,-0.7095,-0.7095,-0.7095,-0.7095,-0.7095,-0.7095,-0.7095,-0.7095,-0.7095,-0.7095,-0.7095,-0.7095,-0.7095,-0.7095,-0.7095,-0.7095,-0.7095,-0.7095,-0.8698,-1.1852,-1.2066,-1.2723,-1.3779,-1.3997,-1.4088,-1.4088,-1.4088,-1.4088,-1.4088,-1.4088,-1.4088,-1.4088,-1.4115,-1.4128,-1.4162,-1.4449,-1.4563,-1.4603,-0.8537,-0.8459,-0.8353,-0.8035,-0.7988,-0.7988,-0.7988,-0.7988,-0.7988,-0.7988,-0.7988,-0.7988,-0.7988,-0.7988,-0.7988,-0.7988,-0.7988,-0.7988,-0.7988,-0.7988,-0.7988,-0.7988,-0.7988,-0.7988,-0.7988,-0.7988,-0.7988,-0.7988,-0.7988,-0.7988,-0.7988,-0.7988,-0.7988,-0.7988,-0.7988,-0.7988,-0.7988,-0.7988,-0.7988,-0.7988,-0.7988,-0.7988,-0.7988,-0.7988,-0.7988,-0.7988,-0.7988,-0.7988,-0.7988,-0.7988,-0.7988,-0.7988,-0.7988,-0.7988,-0.7961,-0.7858,-0.779,-0.7733,-0.759,-0.7438,-0.7322,-0.7322,-0.7227,-0.7095,-0.7095,-0.7095,-0.7095,-0.7095,-0.7095,-0.7095,-0.7095,-0.7095,-0.7095,-0.7095,-0.7095,-0.7095,-0.7095,-0.7095,-0.7095,-0.7095,-0.7095,-0.7095,-0.7095,-0.7095,-0.7095,-0.7095,-0.7095,-0.7095,-0.7095,-0.7095,-0.7095,-0.7095,-0.7095,-0.7095,-0.7095,-0.7095,-0.7489,-0.8269,-1.0086,-1.1128,-1.1434,-1.3258,-1.4088,-1.4088,-1.4088,-1.4088,-1.4088,-1.4088,-1.4088,-1.4108,-1.4335,-1.4429,-1.4462,-1.4756,-1.4914,-1.4955,-0.8635,-0.8533,-0.8411,-0.8187,-0.8039,-0.7988,-0.7988,-0.7988,-0.7988,-0.7988,-0.7988,-0.7988,-0.7988,-0.7988,-0.7988,-0.7988,-0.7988,-0.7988,-0.7988,-0.7988,-0.7988,-0.7988,-0.7988,-0.7988,-0.7988,-0.7988,-0.7988,-0.7988,-0.7988,-0.7988,-0.7988,-0.7988,-0.7988,-0.7988,-0.7988,-0.7988,-0.7988,-0.7988,-0.7988,-0.7988,-0.7988,-0.7988,-0.7988,-0.7988,-0.7988,-0.7988,-0.7988,-0.7988,-0.7988,-0.7988,-0.7988,-0.7988,-0.7988,-0.7988,-0.7975,-0.7894,-0.7868,-0.7794,-0.7723,-0.7594,-0.7482,-0.7482,-0.7363,-0.7231,-0.7112,-0.7095,-0.7095,-0.7095,-0.7095,-0.7095,-0.7095,-0.7095,-0.7095,-0.7095,-0.7095,-0.7095,-0.7095,-0.7095,-0.7095,-0.7095,-0.7095,-0.7095,-0.7095,-0.7095,-0.7095,-0.7095,-0.7095,-0.7095,-0.7095,-0.7095,-0.7095,-0.7095,-0.7095,-0.7095,-0.7095,-0.7095,-0.7095,-0.7139,-0.9483,-1.0869,-1.1472,-1.33,-1.4088,-1.4088,-1.4088,-1.4088,-1.4053,-1.3574,-1.3367,-1.3349,-1.2986,-1.2865,-1.2894,-1.3197,-1.3419,-1.3555,-0.874,-0.8587,-0.8438,-0.8347,-0.8143,-0.7988,-0.7988,-0.7988,-0.7988,-0.7988,-0.7988,-0.7988,-0.7988,-0.7988,-0.7988,-0.7988,-0.7988,-0.7988,-0.7988,-0.7988,-0.7988,-0.7988,-0.7988,-0.7988,-0.7988,-0.7988,-0.7988,-0.7988,-0.7988,-0.7988,-0.7988,-0.7988,-0.7988,-0.7988,-0.7988,-0.7988,-0.7988,-0.7988,-0.7988,-0.7988,-0.7988,-0.7988,-0.7988,-0.7988,-0.7988,-0.7988,-0.7988,-0.7988,-0.7988,-0.7988,-0.7988,-0.7988,-0.7988,-0.7988,-0.7988,-0.7988,-0.7901,-0.7848,-0.7848,-0.7746,-0.7638,-0.7638,-0.7522,-0.7377,-0.7203,-0.7132,-0.7095,-0.7095,-0.7095,-0.7095,-0.7095,-0.7095,-0.7095,-0.7095,-0.7095,-0.7095,-0.7095,-0.7095,-0.7095,-0.7095,-0.7095,-0.7095,-0.7095,-0.7095,-0.7095,-0.7095,-0.7095,-0.7095,-0.7095,-0.7095,-0.7095,-0.7095,-0.7095,-0.7095,-0.7095,-0.7095,-0.7095,-0.7139,-0.927,-1.0783,-1.1766,-1.2948,-1.3519,-1.3519,-1.3528,-1.3553,-1.3481,-1.2686,-1.2343,-1.2276,-1.1466,-1.1185,-1.121,-1.1477,-1.1586,-1.1609,-0.874,-0.8587,-0.8438,-0.8347,-0.8143,-0.7988,-0.7988,-0.7988,-0.7988,-0.7988,-0.7988,-0.7988,-0.7988,-0.7988,-0.7988,-0.7988,-0.7988,-0.7988,-0.7988,-0.7988,-0.7988,-0.7988,-0.7988,-0.7988,-0.7988,-0.7988,-0.7988,-0.7988,-0.7988,-0.7988,-0.7988,-0.7988,-0.7988,-0.7988,-0.7988,-0.7988,-0.7988,-0.7988,-0.7988,-0.7988,-0.7988,-0.7988,-0.7988,-0.7988,-0.7988,-0.7988,-0.7988,-0.7988,-0.7988,-0.7988,-0.7988,-0.7988,-0.7988,-0.7988,-0.7988,-0.7988,-0.7975,-0.7958,-0.7958,-0.7896,-0.7784,-0.7784,-0.7675,-0.7563,-0.7543,-0.7287,-0.7095,-0.7095,-0.7095,-0.7095,-0.7095,-0.7095,-0.7095,-0.7095,-0.7095,-0.7095,-0.7095,-0.7095,-0.7095,-0.7095,-0.7095,-0.7095,-0.7095,-0.7095,-0.7095,-0.7095,-0.7095,-0.7095,-0.7095,-0.7095,-0.7095,-0.7095,-0.7095,-0.7095,-0.7095,-0.7095,-0.7095,-0.7095,-0.8496,-0.9192,-0.9405,-1.0572,-1.1085,-1.1095,-1.1219,-1.1258,-1.1235,-1.1272,-1.1314,-1.1293,-1.1418,-1.1457,-1.1487,-1.1766,-1.119,-1.0386,-0.8797,-0.8713,-0.8564,-0.8414,-0.8265,-0.814,-0.8002,-0.7988,-0.7988,-0.7988,-0.7988,-0.7988,-0.7988,-0.7988,-0.7988,-0.7988,-0.7988,-0.7988,-0.7988,-0.7988,-0.7988,-0.7988,-0.7988,-0.7988,-0.7988,-0.7988,-0.7988,-0.7988,-0.7988,-0.7988,-0.7988,-0.7988,-0.7988,-0.7988,-0.7988,-0.7988,-0.7988,-0.7988,-0.7988,-0.7988,-0.7988,-0.7988,-0.7988,-0.7988,-0.7988,-0.7988,-0.7988,-0.7988,-0.7988,-0.7988,-0.7988,-0.7988,-0.7988,-0.7988,-0.7988,-0.7988,-0.7988,-0.7988,-0.7988,-0.7941,-0.7891,-0.7891,-0.7828,-0.7719,-0.7719,-0.7553,-0.7373,-0.7288,-0.7156,-0.7095,-0.7095,-0.7095,-0.7095,-0.7095,-0.7095,-0.7095,-0.7095,-0.7095,-0.7095,-0.7095,-0.7095,-0.7095,-0.7095,-0.7095,-0.7095,-0.7095,-0.7095,-0.7095,-0.7095,-0.7095,-0.7095,-0.7095,-0.7095,-0.7095,-0.7095,-0.7095,-0.7095,-0.7095,-0.776,-0.8375,-0.8938,-1.0177,-1.071,-1.0725,-1.0895,-1.099,-1.0919,-1.0441,-1.02,-1.0171,-0.9698,-0.9526,-0.9539,-0.9674,-0.9361,-0.897]}]]